[[{"header":{"parameterUnit":"m.s-1","parameterCategory":1,"la1":30.6,"la2":28.766,"lo1":-90.7593,"lo2":-88.6598,"dy":0.0162,"dx":0.0183,"nx":116,"ny":114,"refTime":"2023-05-13T06:00:00:Z","depth":0,"parameterNumber":2,"parameterNumberName":"U-component_of_WINDS"},"data":[0.0,0.0,0.0,0.0,0.0,0.0,0.0,0.0,0.0,0.0,0.0,0.0,0.0,0.0,0.0,0.0,0.0,0.0,0.0,0.0,0.0,0.0,0.0,0.0,0.0,0.0,0.0,0.0,0.0,0.0,0.0,0.0,0.0,0.0,0.0,0.0,0.0,0.0,0.0,0.0,0.0,0.0,0.0,0.0,0.0,0.0,0.0,0.0,0.0,0.0,0.0,0.0,0.0,0.0,0.0,0.0,0.0,0.0,0.0,0.0,0.0,0.0,0.0,0.0,0.0,0.0,0.0,0.0,0.0,0.0,0.0,0.0,0.0,0.0,0.0,0.0,0.0,0.0,0.0,0.0,0.0,0.0,0.0,0.0,0.0,0.0,0.0,0.0,0.0,0.0,0.0,0.0,0.0,0.0,0.0,0.0,0.0,0.0,0.0,0.0,0.0,0.0,0.0,0.0,0.0,0.0,0.0,0.0,0.0,0.0,0.0,0.0,0.0,0.0,0.0,0.0,0.0,0.0,0.0,0.0,0.0,0.0,0.0,0.0,0.0,0.0,0.0,0.0,0.0,0.0,0.0,0.0,0.0,0.0,0.0,0.0,0.0,0.0,0.0,0.0,0.0,0.0,0.0,0.0,0.0,0.0,0.0,0.0,0.0,0.0,0.0,0.0,0.0,0.0,0.0,0.0,0.0,0.0,0.0,0.0,0.0,0.0,0.0,0.0,0.0,0.0,0.0,0.0,0.0,0.0,0.0,0.0,0.0,0.0,0.0,0.0,0.0,0.0,0.0,0.0,0.0,0.0,0.0,0.0,0.0,0.0,0.0,0.0,0.0,0.0,0.0,0.0,0.0,0.0,0.0,0.0,0.0,0.0,0.0,0.0,0.0,0.0,0.0,0.0,0.0,0.0,0.0,0.0,0.0,0.0,0.0,0.0,0.0,0.0,0.0,0.0,0.0,0.0,0.0,0.0,0.0,0.0,0.0,0.0,0.0,0.0,0.0,0.0,0.0,0.0,0.0,0.0,0.0,0.0,0.0,0.0,0.0,0.0,0.0,0.0,0.0,0.0,0.0,0.0,0.0,0.0,0.0,0.0,0.0,0.0,0.0,0.0,0.0,0.0,0.0,0.0,0.0,0.0,0.0,0.0,0.0,0.0,0.0,0.0,0.0,0.0,0.0,0.0,0.0,0.0,0.0,0.0,0.0,0.0,0.0,0.0,0.0,0.0,0.0,0.0,0.0,0.0,0.0,0.0,0.0,0.0,0.0,0.0,0.0,0.0,0.0,0.0,0.0,0.0,0.0,0.0,0.0,0.0,0.0,0.0,0.0,0.0,0.0,0.0,0.0,0.0,0.0,0.0,0.0,0.0,0.0,0.0,0.0,0.0,0.0,0.0,0.0,0.0,0.0,0.0,0.0,0.0,0.0,0.0,0.0,0.0,0.0,0.0,0.0,0.0,0.0,0.0,0.0,0.0,0.0,0.0,0.0,0.0,0.0,0.0,0.0,0.0,0.0,0.0,0.0,0.0,0.0,0.0,0.0,0.0,0.0,0.0,0.0,0.0,0.0,0.0,0.0,0.0,0.0,0.0,0.0,0.0,0.0,0.0,0.0,0.0,0.0,0.0,0.0,0.0,0.0,0.0,0.0,0.0,0.0,0.0,0.0,0.0,0.0,0.0,0.0,0.0,0.0,0.0,0.0,0.0,0.0,0.0,0.0,0.0,0.0,0.0,0.0,0.0,0.0,0.0,0.0,0.0,0.0,0.0,0.0,0.0,0.0,0.0,0.0,0.0,0.0,0.0,0.0,0.0,0.0,0.0,0.0,0.0,0.0,0.0,0.0,0.0,0.0,0.0,0.0,0.0,0.0,0.0,0.0,0.0,0.0,0.0,0.0,0.0,0.0,0.0,0.0,0.0,0.0,0.0,0.0,0.0,0.0,0.0,0.0,0.0,0.0,0.0,0.0,0.0,0.0,0.0,0.0,0.0,0.0,0.0,0.0,0.0,0.0,0.0,0.0,0.0,0.0,0.0,0.0,0.0,0.0,0.0,0.0,0.0,0.0,0.0,0.0,0.0,0.0,0.0,0.0,0.0,0.0,0.0,0.0,0.0,0.0,0.0,0.0,0.0,0.0,0.0,0.0,0.0,0.0,0.0,0.0,0.0,0.0,0.0,0.0,0.0,0.0,0.0,0.0,0.0,0.0,0.0,0.0,0.0,0.0,0.0,0.0,0.0,0.0,0.0,0.0,0.0,0.0,0.0,0.0,0.0,0.0,0.0,0.0,0.0,0.0,0.0,0.0,0.0,0.0,0.0,0.0,0.0,0.0,0.0,0.0,0.0,0.0,0.0,0.0,0.0,0.0,0.0,0.0,0.0,0.0,0.0,0.0,0.0,0.0,0.0,0.0,0.0,0.0,0.0,0.0,0.0,0.0,0.0,0.0,0.0,0.0,0.0,0.0,0.0,0.0,0.0,0.0,0.0,0.0,0.0,0.0,0.0,0.0,0.0,0.0,0.0,0.0,0.0,0.0,0.0,0.0,0.0,0.0,0.0,0.0,0.0,0.0,0.0,0.0,0.0,0.0,0.0,0.0,0.0,0.0,0.0,0.0,0.0,0.0,0.0,0.0,0.0,0.0,0.0,0.0,0.0,0.0,0.0,0.0,0.0,0.0,0.0,0.0,0.0,0.0,0.0,0.0,0.0,0.0,0.0,0.0,0.0,0.0,0.0,0.0,0.0,0.0,0.0,0.0,0.0,0.0,0.0,0.0,0.0,0.0,0.0,0.0,0.0,0.0,0.0,0.0,0.0,0.0,0.0,0.0,0.0,0.0,0.0,0.0,0.0,0.0,0.0,0.0,0.0,0.0,0.0,0.0,0.0,0.0,0.0,0.0,0.0,0.0,0.0,0.0,0.0,0.0,0.0,0.0,0.0,0.0,0.0,0.0,0.0,0.0,0.0,0.0,0.0,0.0,0.0,0.0,0.0,0.0,0.0,0.0,0.0,0.0,0.0,0.0,0.0,0.0,0.0,0.0,0.0,0.0,0.0,0.0,0.0,0.0,0.0,0.0,0.0,0.0,0.0,0.0,0.0,0.0,0.0,0.0,0.0,0.0,0.0,0.0,0.0,0.0,0.0,0.0,0.0,0.0,0.0,0.0,0.0,0.0,0.0,0.0,0.0,0.0,0.0,0.0,0.0,0.0,0.0,0.0,0.0,0.0,0.0,0.0,0.0,0.0,0.0,0.0,0.0,0.0,0.0,0.0,0.0,0.0,0.0,0.0,0.0,0.0,0.0,0.0,0.0,0.0,0.0,0.0,0.0,0.0,0.0,0.0,0.0,0.0,0.0,0.0,0.0,0.0,0.0,0.0,0.0,0.0,0.0,0.0,0.0,0.0,0.0,0.0,0.0,0.0,0.0,0.0,0.0,0.0,0.0,0.0,0.0,0.0,0.0,0.0,0.0,0.0,0.0,0.0,0.0,0.0,0.0,0.0,0.0,0.0,0.0,0.0,0.0,0.0,0.0,0.0,0.0,0.0,0.0,0.0,0.0,0.0,0.0,0.0,0.0,0.0,0.0,0.0,0.0,0.0,0.0,0.0,0.0,0.0,0.0,0.0,0.0,0.0,0.0,0.0,0.0,0.0,0.0,0.0,0.0,0.0,0.0,0.0,0.0,0.0,0.0,0.0,0.0,0.0,0.0,0.0,0.0,0.0,0.0,0.0,0.0,0.0,0.0,0.0,0.0,0.0,0.0,0.0,0.0,0.0,0.0,0.0,0.0,0.0,0.0,0.0,0.0,0.0,0.0,0.0,0.0,0.0,0.0,0.0,0.0,0.0,0.0,0.0,0.0,0.0,0.0,0.0,0.0,0.0,0.0,0.0,0.0,0.0,0.0,0.0,0.0,0.0,0.0,0.0,0.0,0.0,0.0,0.0,0.0,0.0,0.0,0.0,0.0,0.0,0.0,0.0,0.0,0.0,0.0,0.0,0.0,0.0,0.0,0.0,0.0,0.0,0.0,0.0,0.0,0.0,0.0,0.0,0.0,0.0,0.0,0.0,0.0,0.0,0.0,0.0,0.0,0.0,0.0,0.0,0.0,0.0,0.0,0.0,0.0,0.0,0.0,0.0,0.0,0.0,0.0,0.0,0.0,0.0,0.0,0.0,0.0,0.0,0.0,0.0,0.0,0.0,0.0,0.0,0.0,0.0,0.0,0.0,0.0,0.0,0.0,0.0,0.0,0.0,0.0,0.0,0.0,0.0,0.0,0.0,0.0,0.0,0.0,0.0,0.0,0.0,0.0,0.0,0.0,0.0,0.0,0.0,0.0,0.0,0.0,0.0,0.0,0.0,0.0,0.0,0.0,0.0,0.0,0.0,0.0,0.0,0.0,0.0,0.0,0.0,0.0,0.0,0.0,0.0,0.0,0.0,0.0,0.0,0.0,0.0,0.0,0.0,0.0,0.0,0.0,0.0,0.0,0.0,0.0,0.0,0.0,0.0,0.0,0.0,0.0,0.0,0.0,0.0,0.0,0.0,0.0,0.0,0.0,0.0,0.0,0.0,0.0,0.0,0.0,0.0,0.0,0.0,0.0,0.0,0.0,0.0,0.0,0.0,0.0,0.0,0.0,0.0,0.0,0.0,0.0,0.0,0.0,0.0,0.0,0.0,0.0,0.0,0.0,0.0,0.0,0.0,0.0,0.0,0.0,0.0,0.0,0.0,0.0,0.0,0.0,0.0,0.0,0.0,0.0,0.0,0.0,0.0,0.0,0.0,0.0,0.0,0.0,0.0,0.0,0.0,0.0,0.0,0.0,0.0,0.0,0.0,0.0,0.0,0.0,0.0,0.0,0.0,0.0,0.0,0.0,0.0,0.0,0.0,0.0,0.0,0.0,0.0,0.0,0.0,0.0,0.0,0.0,0.0,0.0,0.0,0.0,0.0,0.0,0.0,0.0,0.0,0.0,0.0,0.0,0.0,0.0,0.0,0.0,0.0,0.0,0.0,0.0,0.0,0.0,0.0,0.0,0.0,0.0,0.0,0.0,0.0,0.0,0.0,0.0,0.0,0.0,0.0,0.0,0.0,0.0,0.0,0.0,0.0,0.0,0.0,0.0,0.0,0.0,0.0,0.0,0.0,0.0,0.0,0.0,0.0,0.0,0.0,0.0,0.0,0.0,0.0,0.0,0.0,0.0,0.0,0.0,0.0,0.0,0.0,0.0,0.0,0.0,0.0,0.0,0.0,0.0,0.0,0.0,0.0,0.0,0.0,0.0,0.0,0.0,0.0,0.0,0.0,0.0,0.0,0.0,0.0,0.0,0.0,0.0,0.0,0.0,0.0,0.0,0.0,0.0,0.0,0.0,0.0,0.0,0.0,0.0,0.0,0.0,0.0,0.0,0.0,0.0,0.0,0.0,0.0,0.0,0.0,0.0,0.0,0.0,0.0,0.0,0.0,0.0,0.0,0.0,0.0,0.0,0.0,0.0,0.0,0.0,0.0,0.0,0.0,0.0,0.0,0.0,0.0,0.0,0.0,0.0,0.0,0.0,0.0,0.0,0.0,0.0,0.0,0.0,0.0,0.0,0.0,0.0,0.0,0.0,0.0,0.0,0.0,0.0,0.0,0.0,0.0,0.0,0.0,0.0,0.0,0.0,0.0,0.0,0.0,0.0,0.0,0.0,0.0,0.0,0.0,0.0,0.0,0.0,0.0,0.0,0.0,0.0,0.0,0.0,0.0,0.0,0.0,0.0,0.0,0.0,0.0,0.0,0.0,0.0,0.0,0.0,0.0,0.0,0.0,0.0,0.0,0.0,0.0,0.0,0.0,0.0,0.0,0.0,0.0,0.0,0.0,0.0,0.0,0.0,0.0,0.0,0.0,0.0,0.0,0.0,0.0,0.0,0.0,0.0,0.0,0.0,0.0,0.0,0.0,0.0,0.0,0.0,0.0,0.0,0.0,0.0,0.0,0.0,0.0,0.0,0.0,0.0,0.0,0.0,0.0,0.0,0.0,0.0,0.0,0.0,0.0,0.0,0.0,0.0,0.0,0.0,0.0,0.0,0.0,0.0,0.0,0.0,0.0,0.0,0.0,0.0,1.7464,0.0,0.0,0.0,0.0,0.0,0.0,0.0,0.0,0.0,0.0,0.0,0.0,0.0,0.0,0.0,0.0,0.0,0.0,0.0,0.0,0.0,0.0,0.0,0.0,0.0,0.0,0.0,0.0,0.0,0.0,0.0,0.0,0.0,0.0,0.0,0.0,0.0,0.0,0.0,1.1448,1.2351,1.3455,1.3739,1.3595,1.3115,0.0,0.0,0.0,0.0,0.0,0.0,0.0,0.0,0.0,0.0,0.0,0.0,0.0,0.0,0.0,0.0,0.0,0.0,0.0,0.0,0.0,0.0,0.0,0.0,0.0,0.0,0.0,0.0,0.0,0.0,0.0,0.0,0.0,0.0,0.0,0.0,0.0,0.0,0.0,0.0,0.0,0.0,0.0,0.0,0.0,0.0,0.0,0.0,0.0,0.0,0.0,0.0,0.0,0.0,0.0,0.0,0.0,0.0,0.0,0.0,0.0,0.0,0.0,0.0,0.0,0.0,0.0,0.0,0.0,0.0,0.0,1.7638,0.0,0.0,0.0,0.0,0.0,0.0,0.0,0.0,0.0,0.0,0.0,0.0,0.0,0.0,0.0,0.0,0.0,0.0,0.0,0.0,0.0,0.0,0.0,0.0,1.0926,1.0956,1.0954,1.0957,0.0,0.0,0.0,0.0,0.0,0.0,0.0,1.1136,1.1491,1.1804,1.2708,1.3945,1.5362,1.527,1.4783,1.406,1.4622,0.0,0.0,0.0,0.0,0.0,0.0,0.0,0.0,0.0,0.0,0.0,0.0,0.0,0.0,0.0,0.0,0.0,0.0,0.0,0.0,0.0,0.0,0.0,0.0,0.0,0.0,0.0,0.0,0.0,0.0,0.0,0.0,0.0,0.0,0.0,0.0,0.0,0.0,0.0,0.0,0.0,0.0,0.0,0.0,0.0,0.0,0.0,0.0,0.0,0.0,0.0,0.0,0.0,0.0,0.0,0.0,0.0,0.0,0.0,0.0,0.0,0.0,0.0,1.874,1.9488,2.0144,1.9823,2.0203,2.0969,1.9364,1.8563,1.8299,1.7442,0.0,0.0,0.0,0.0,0.0,0.0,0.0,0.0,0.0,0.0,0.0,0.0,0.0,0.0,0.0,0.0,0.0,0.0,0.0,0.0,0.0,1.0704,1.0695,1.0112,1.0296,1.04,1.039,0.0,0.0,0.0,0.0,0.0,0.0,1.084,1.142,1.2123,1.404,1.5325,1.6108,1.7202,1.7418,1.6785,1.4845,1.3964,1.3923,0.0,0.0,0.0,0.0,0.0,0.0,0.0,0.0,0.0,0.0,0.0,0.0,0.0,0.0,0.0,0.0,0.0,0.0,0.0,0.0,0.0,0.0,0.0,0.0,0.0,0.0,0.0,0.0,0.0,0.0,0.0,0.0,0.0,0.0,0.0,0.0,0.0,0.0,0.0,0.0,0.0,1.863,1.8488,0.0,0.0,0.0,0.0,0.0,0.0,0.0,0.0,0.0,0.0,0.0,0.0,0.0,1.9377,1.899,2.0865,2.1805,2.1777,2.2694,2.3249,2.3405,2.1393,2.0955,2.1764,2.1502,0.0,1.8559,1.8432,0.0,0.0,0.0,0.0,0.0,0.0,0.0,0.0,0.0,0.0,0.0,0.0,0.0,0.0,0.0,0.0,0.0,0.0,0.0,0.0,0.0,1.1659,1.1778,1.2037,1.2505,1.248,1.18,1.1898,0.0,0.0,0.0,1.0954,1.0878,1.1627,1.2822,1.4518,1.5531,1.6704,1.7962,1.8621,1.8996,1.8961,1.7825,1.6638,1.5512,1.6061,0.0,0.0,0.0,0.0,0.0,0.0,0.0,0.0,0.0,0.0,0.0,0.0,0.0,0.0,0.0,0.0,0.0,0.0,0.0,0.0,0.0,0.0,0.0,0.0,0.0,0.0,0.0,0.0,0.0,0.0,0.0,0.0,0.0,0.0,0.0,0.0,0.0,0.0,0.0,1.8836,1.9168,1.9011,1.9089,1.9013,0.0,0.0,0.0,0.0,0.0,0.0,0.0,0.0,0.0,2.0235,2.0305,2.0704,2.1379,2.1694,2.2207,2.2958,2.3674,2.4383,2.5105,2.439,2.4106,2.4063,2.373,2.2303,2.022,2.0249,1.9302,1.7816,0.0,0.0,0.0,0.0,1.607,1.6426,0.0,0.0,0.0,0.0,0.0,0.0,0.0,0.0,0.0,0.0,0.0,0.0,1.2502,1.2698,1.3042,1.3668,1.4185,1.4009,1.2805,1.2866,0.0,0.0,0.0,1.1218,1.1361,1.2772,1.4529,1.656,1.71,1.8113,1.9686,2.0002,2.0335,2.0707,2.0822,1.9581,1.7422,1.775,1.7152,1.5984,0.0,0.0,0.0,0.0,0.0,0.0,0.0,0.0,0.0,0.0,0.0,0.0,0.0,0.0,0.0,0.0,0.0,0.0,0.0,0.0,0.0,0.0,0.0,0.0,0.0,0.0,0.0,0.0,0.0,0.0,0.0,0.0,0.0,0.0,0.0,0.0,0.0,1.9127,1.9725,1.9234,1.9581,1.9549,0.0,0.0,0.0,0.0,0.0,0.0,2.0871,2.0964,2.1084,2.1252,2.1341,2.1907,2.3007,2.2829,2.2999,2.356,2.4556,2.5272,2.5697,2.5986,2.5841,2.5307,2.4713,2.3568,2.2092,2.1509,2.0343,1.8942,1.8574,1.779,1.6804,1.6463,1.6866,1.7422,0.0,0.0,0.0,0.0,0.0,0.0,0.0,0.0,0.0,0.0,0.0,1.2723,1.2525,1.3444,1.4017,1.3732,1.3857,1.3487,1.2383,1.2447,1.2058,1.094,1.1206,1.1409,1.151,1.403,1.5989,1.7332,1.8639,1.9761,2.0749,2.1457,2.1767,2.1847,2.2566,2.1559,1.932,1.8344,1.7607,1.6992,1.5532,0.0,0.0,0.0,0.0,0.0,0.0,0.0,0.0,0.0,0.0,0.0,0.0,0.0,0.0,0.0,0.0,0.0,0.0,0.0,0.0,0.0,0.0,0.0,0.0,0.0,0.0,0.0,0.0,0.0,0.0,0.0,0.0,0.0,0.0,0.0,0.0,0.0,0.0,1.8807,2.0114,0.0,0.0,0.0,0.0,2.1121,2.2413,2.3039,2.2706,2.2853,2.2672,2.1988,2.2736,2.3148,2.3085,2.537,2.5756,2.42,2.6503,2.6707,2.5011,2.453,2.4279,2.4155,2.3546,2.35,2.369,2.1557,1.9649,1.8034,1.7736,1.7934,1.825,1.7984,1.8319,1.8867,0.0,0.0,0.0,0.0,0.0,0.0,0.0,0.0,1.1322,1.0899,1.181,1.3032,1.4486,1.5174,1.5988,1.7014,1.6999,1.6386,1.5143,1.4224,1.3373,1.2609,1.2203,1.2818,1.4533,1.6144,1.7697,1.9177,2.0256,2.147,2.2801,2.3179,2.3716,2.4403,2.4684,2.4125,2.2916,2.0991,1.9279,1.7831,1.7495,1.6562,0.0,0.0,0.0,0.0,0.0,0.0,0.0,0.0,0.0,0.0,0.0,0.0,0.0,0.0,0.0,0.0,0.0,0.0,0.0,0.0,0.0,0.0,0.0,0.0,0.0,0.0,0.0,0.0,0.0,0.0,0.0,0.0,0.0,0.0,0.0,0.0,0.0,2.1885,2.3172,0.0,2.2754,2.3071,2.3355,2.3362,2.396,2.442,2.4557,2.475,2.4708,2.445,2.4416,2.4469,2.457,2.4472,2.432,2.4227,2.5449,2.5708,2.5176,2.6069,2.6217,2.5748,2.5554,2.509,2.449,2.3264,2.1619,1.9913,2.0227,1.9915,1.9253,1.9331,1.9462,1.9498,0.0,0.0,0.0,0.0,0.0,0.0,0.0,0.0,1.1164,1.1078,1.2015,1.354,1.5712,1.647,1.7397,1.8824,1.8548,1.7802,1.6685,1.5222,1.3991,1.3215,1.2943,1.4002,1.6529,1.7794,1.92,2.0757,2.1794,2.2911,2.4116,2.4429,2.4984,2.5699,2.5762,2.5615,2.5145,2.3463,2.151,1.957,1.8995,1.8179,1.7098,0.0,0.0,0.0,0.0,0.0,0.0,0.0,0.0,0.0,0.0,0.0,0.0,0.0,0.0,0.0,0.0,0.0,0.0,0.0,0.0,0.0,0.0,0.0,0.0,0.0,0.0,0.0,0.0,0.0,0.0,0.0,0.0,0.0,0.0,0.0,2.3879,2.4215,2.5785,2.652,2.561,2.5561,2.573,2.6026,2.6172,2.6371,2.6654,2.6562,2.6424,2.623,2.5415,2.5146,2.5382,2.4655,2.4366,2.4394,2.5234,2.5454,2.5175,2.6294,2.6552,2.6158,2.6244,2.5729,2.4854,2.4317,2.3127,2.1668,2.1681,2.1107,2.0164,2.013,2.0249,2.0375,0.0,0.0,0.0,0.0,0.0,0.0,0.0,1.0905,1.1416,1.2084,1.2979,1.4222,1.6034,1.7159,1.8097,1.8871,1.8106,1.7314,1.6592,1.5107,1.3768,1.2627,1.3499,1.5035,1.721,1.8909,2.0557,2.1971,2.3328,2.4167,2.4587,2.529,2.5638,2.5664,2.5866,2.5929,2.589,2.5498,2.4229,2.2385,2.0029,1.9698,2.0282,0.0,0.0,0.0,0.0,0.0,0.0,0.0,0.0,0.0,0.0,0.0,0.0,0.0,0.0,0.0,0.0,0.0,0.0,0.0,0.0,0.0,0.0,0.0,0.0,0.0,0.0,0.0,0.0,0.0,0.0,0.0,0.0,0.0,2.1874,2.3942,2.5403,2.5445,2.7661,2.8714,2.7394,2.7432,2.7961,2.909,2.903,2.8958,2.9032,2.831,2.7673,2.6999,2.574,2.5153,2.5409,2.622,2.6039,2.4883,2.6116,2.6142,2.5141,2.5141,2.5141,2.5167,2.5365,2.5197,2.4845,2.4481,2.3891,2.303,2.1884,2.1308,2.1033,2.0382,2.0793,2.1557,0.0,0.0,0.0,0.0,0.0,0.0,0.0,1.0409,1.0805,1.1323,1.2896,1.4725,1.6657,1.7566,1.8434,1.9271,1.8028,1.6754,1.5882,1.4355,1.371,1.414,1.5939,1.8084,2.0468,2.1598,2.2825,2.4138,2.494,2.5467,2.5717,2.6609,2.7089,2.722,2.8001,2.8265,2.8101,2.7693,2.7236,2.6517,2.3768,2.205,2.1027,0.0,0.0,0.0,0.0,0.0,0.0,0.0,0.0,0.0,0.0,0.0,0.0,0.0,0.0,0.0,0.0,0.0,0.0,0.0,0.0,0.0,0.0,0.0,0.0,0.0,0.0,0.0,0.0,0.0,0.0,0.0,0.0,2.3063,2.5023,2.6953,2.8312,2.8712,3.0524,3.1029,2.9341,2.9563,3.0114,3.0755,2.9975,2.9392,2.9228,2.9104,2.829,2.6681,2.6388,2.6245,2.6186,2.5635,2.5623,2.6215,2.5793,2.5666,2.5909,2.5935,2.5882,2.5908,2.6353,2.6438,2.619,2.5942,2.5286,2.4263,2.2639,2.1783,2.1427,2.1187,2.1258,2.1486,0.0,0.0,0.0,0.0,0.0,0.0,0.0,0.9992,1.0545,1.1681,1.2751,1.4404,1.6942,1.717,1.7605,1.8834,1.7205,1.6035,1.578,1.4657,1.4568,1.5888,1.7817,1.9965,2.2285,2.3367,2.4354,2.5266,2.5903,2.6349,2.667,2.7494,2.8053,2.8485,2.9047,2.9216,2.9119,2.8908,2.8765,2.8608,2.6948,2.5387,2.3986,2.2718,2.1832,2.0971,1.848,1.7376,1.7099,1.7159,0.0,0.0,0.0,0.0,0.0,0.0,0.0,0.0,0.0,0.0,0.0,0.0,0.0,0.0,0.0,0.0,0.0,0.0,0.0,0.0,0.0,0.0,0.0,0.0,2.4027,2.5928,2.8485,2.9226,2.9947,3.1111,3.2125,3.2369,3.1587,3.1335,3.1422,3.1833,3.0799,3.0079,3.0159,2.9644,2.8831,2.7621,2.7357,2.7276,2.7143,2.6357,2.6324,2.7012,2.6181,2.5981,2.6432,2.6445,2.6391,2.6404,2.6655,2.6589,2.6383,2.6164,2.5566,0.0,0.0,0.0,0.0,0.0,2.1172,2.1002,0.0,0.0,0.0,0.0,0.0,0.0,0.0,0.9817,1.0561,1.2524,1.2546,1.3586,1.6827,1.6221,1.6173,1.7647,1.5914,1.5037,1.5828,1.5508,1.6049,1.7702,1.946,2.1403,2.3506,2.4721,2.5537,2.6025,2.6661,2.7196,2.7566,2.8278,2.8895,2.9399,2.9464,2.9575,2.9562,2.9575,2.9575,2.9562,2.951,2.8982,2.7838,2.5113,2.4367,2.4315,2.0617,1.9124,1.9304,2.1661,0.0,0.0,0.0,0.0,0.0,0.0,0.0,0.0,0.0,0.0,0.0,0.0,0.0,0.0,0.0,0.0,0.0,0.0,0.0,0.0,0.0,0.0,0.0,0.0,2.6751,2.9241,3.1667,3.0925,3.0839,3.2713,3.2961,3.3198,3.352,3.2597,3.2069,3.2549,3.1431,3.0814,3.1152,0.0,0.0,0.0,0.0,2.8109,2.8109,2.7776,2.7632,2.7528,2.705,2.6853,2.6904,2.6777,2.6714,2.6645,2.6496,2.6233,2.591,2.5676,2.5139,2.4369,2.4205,2.3329,2.2208,2.1608,2.1093,2.0606,0.0,0.0,0.0,0.0,0.0,0.0,0.0,1.0376,1.0968,1.2381,1.2687,1.3576,1.5645,1.5347,1.5188,1.5773,1.4454,1.3871,1.4462,1.5824,1.7505,1.9447,2.1613,2.3918,2.6379,2.6982,2.7736,2.8746,2.8782,2.8924,2.9048,2.9528,2.9805,3.0011,3.0764,3.1034,3.1098,3.1176,3.1252,3.1313,3.0859,2.9738,2.8252,2.7691,2.692,2.6129,2.5589,2.4293,2.2985,2.3984,2.3094,2.112,1.8691,1.7299,0.0,0.0,0.0,0.0,0.0,0.0,0.0,0.0,0.0,0.0,0.0,0.0,0.0,0.0,0.0,0.0,0.0,0.0,0.0,2.5643,2.7901,3.0189,3.2236,3.2288,3.2355,3.2919,3.4234,3.4365,3.2355,3.2365,3.251,3.2439,3.1721,3.1029,3.0405,3.0059,2.9417,2.8315,2.817,2.8109,2.8109,2.8009,2.8306,2.8809,0.0,0.0,2.826,2.7352,2.6794,2.6496,2.6427,2.6233,2.584,2.5535,2.4777,2.3815,2.305,2.2734,2.2698,2.2869,2.2545,2.215,0.0,0.0,0.0,0.0,0.0,0.0,0.0,0.9962,1.0562,1.145,1.1737,1.2536,1.4183,1.3917,1.3773,1.4209,1.391,1.4016,1.4757,1.6786,1.9009,2.1414,2.3428,2.5402,2.743,2.7987,2.8605,2.9416,2.9345,2.9418,2.967,2.9978,3.029,3.0546,3.1059,3.1421,3.1655,3.1421,3.1537,3.1746,3.1511,3.069,2.9653,2.9282,2.8685,2.804,2.8075,2.7136,2.596,2.6322,2.6453,2.5797,2.2116,2.0263,1.9171,0.0,0.0,0.0,0.0,0.0,0.0,0.0,0.0,0.0,0.0,0.0,0.0,0.0,0.0,2.1822,0.0,0.0,2.6816,2.8066,2.9872,3.1588,3.2771,3.35,3.3714,3.3234,3.4052,3.4016,3.2382,3.2736,3.2763,3.2273,3.1672,3.1196,3.0895,3.0646,3.0164,2.9377,2.9365,2.9227,2.895,2.8724,2.8798,2.9063,2.8328,2.7923,2.7814,2.713,2.6577,2.6164,2.5943,2.5734,2.5581,2.4895,2.4284,2.3607,2.2706,2.2492,2.2609,2.2515,2.2362,2.2237,0.0,0.0,0.0,0.0,0.0,0.0,0.0,0.958,1.0195,1.0637,1.0821,1.1439,1.2927,1.2541,1.233,1.274,1.3668,1.4624,1.5671,1.8042,2.0638,2.3389,2.4899,2.6476,2.8146,2.8675,2.9131,2.9614,2.9686,2.9816,3.0141,3.0199,3.0585,3.1161,3.1161,3.1486,3.2072,3.1744,3.181,3.2176,3.2006,3.1692,3.1104,3.0397,2.9928,2.9612,2.9083,2.8386,2.7695,2.7906,2.8208,2.7954,2.4773,2.293,2.1437,1.8533,1.8166,0.0,0.0,0.0,0.0,0.0,0.0,0.0,0.0,0.0,2.0711,2.1844,2.328,2.46,2.5722,2.7748,2.9504,3.0291,3.1711,3.281,3.332,3.4144,3.4273,3.3363,3.3859,3.4011,3.3325,3.3431,3.3285,3.2527,3.1816,3.1491,3.1669,3.1174,3.0884,3.0758,3.0557,3.0294,2.9955,2.953,2.924,2.9089,2.8623,2.7961,2.7209,2.6795,2.6333,2.5847,2.5443,2.5241,2.5134,2.44,2.399,2.37,2.285,2.2563,2.2598,2.2091,2.1966,2.2079,0.0,0.0,0.0,0.0,0.0,0.0,0.0,0.0,1.0626,1.0902,1.0925,1.1344,1.2478,1.1851,1.1328,1.1246,1.3326,1.5163,1.6399,1.9431,2.239,2.5122,2.6162,2.7617,2.9515,2.9621,3.0064,3.079,3.1014,3.1153,3.1268,3.1055,3.1228,3.1855,3.1855,3.2336,3.3066,3.3463,3.36,3.3365,3.2854,3.228,3.1654,3.1371,3.0868,3.0138,2.9087,2.7831,2.6746,2.722,2.5816,2.3967,2.48,2.3679,2.1686,1.9597,1.8422,1.7545,1.6586,1.7015,1.8178,2.0207,2.0188,2.0644,0.0,0.0,2.4462,2.614,2.6801,2.7236,2.7626,2.9074,3.0343,3.0891,3.2286,3.3479,3.3901,3.368,3.3297,3.3053,3.5073,3.6186,3.5467,3.4891,3.4422,3.4026,3.2898,3.2031,3.1423,3.1086,3.1048,3.1286,3.0382,3.0093,3.052,2.9967,2.9691,2.9691,2.8733,2.8285,2.811,2.6993,2.6239,2.5791,2.5326,2.5052,2.4814,2.4539,2.4255,2.3873,2.3191,2.3125,2.334,2.2752,2.2691,2.2831,0.0,0.0,0.0,0.0,0.0,0.0,0.0,0.0,0.0,1.02,1.0409,1.0705,1.1156,1.1015,1.0862,1.0926,1.3023,1.494,1.6382,1.9342,2.2245,2.4938,2.5795,2.7275,2.9434,2.9487,2.9981,3.0986,3.1061,3.1179,3.12,3.1501,3.1907,3.246,3.218,3.2736,3.3738,3.2919,3.2849,3.3316,3.2959,3.238,3.1552,3.1087,2.9766,2.8298,2.7882,2.6578,0.0,2.4908,2.4291,2.358,2.323,2.2633,2.1527,1.8762,1.8358,0.0,1.9089,1.9621,2.0434,0.0,2.2455,2.3492,2.5148,2.5469,2.5809,2.7086,2.8064,2.8859,2.9247,3.0473,3.1447,0.0,3.2541,3.3313,3.3654,3.3097,3.2618,3.2499,3.3739,3.4281,3.337,3.3758,3.3715,3.2818,3.2552,3.2251,3.1838,3.2003,3.2072,3.2124,3.1518,3.1148,3.1072,3.0766,3.0493,3.0319,2.9603,2.9015,2.8517,2.7281,2.6238,2.5361,2.5278,2.5111,2.4945,2.4551,2.4255,2.3965,2.338,2.3226,2.3242,2.2631,2.2651,2.2931,0.0,0.0,0.0,0.0,0.0,0.0,0.0,0.0,0.0,0.0,1.001,1.0322,1.0283,1.0505,1.0687,1.0802,1.2653,1.4506,1.6133,1.8674,2.1342,2.3982,2.5031,2.6517,2.8585,2.9009,2.9665,3.0516,3.0664,3.0803,3.1035,3.1581,3.2264,3.2908,3.2521,3.3009,3.3807,3.2581,3.246,3.3014,3.2854,3.2127,3.097,3.0008,2.8035,2.5892,2.5945,2.4672,2.2832,2.2421,2.2387,2.2377,2.1416,2.119,2.0722,1.8195,1.8189,1.9321,2.0528,2.1464,2.239,2.3228,2.4705,2.5996,2.6317,2.6726,2.7321,2.8374,2.922,2.9841,3.04,3.1091,3.171,3.2081,3.2481,3.2842,3.3098,3.2407,3.1738,3.1478,3.1565,3.1481,3.09,3.2315,3.3031,3.2462,3.2371,3.2448,3.2571,3.2899,3.2982,3.2873,3.2402,3.2028,3.1776,3.1392,3.0996,3.0671,3.0045,2.9419,2.8688,2.738,2.6248,2.5182,2.5241,2.5241,2.5158,2.4706,2.44,2.4213,2.3614,2.3508,2.352,2.2745,2.2731,2.2982,0.0,0.0,0.0,0.0,0.0,0.0,0.0,0.0,0.0,0.0,0.0,0.0,0.0,1.0534,1.0687,1.0621,1.2135,1.3919,1.5704,1.7647,1.9937,2.255,2.4189,2.566,2.6906,2.8319,2.9141,2.9327,2.9877,3.0438,3.0989,3.1132,3.1956,3.3178,3.3164,3.3157,3.3276,3.3555,3.3236,3.2684,3.2675,3.1573,2.9779,2.826,2.5968,2.3552,2.3299,2.1869,2.0031,2.0098,1.9582,1.909,1.9885,1.9792,1.9212,1.8487,1.7991,1.8024,1.9657,2.12,2.2858,2.5314,2.6569,2.7585,2.9048,2.9512,2.9993,3.1072,3.0748,3.0412,3.0959,3.0511,3.0441,3.1729,3.1916,3.2012,3.2277,3.1405,3.0498,2.9932,2.9,2.8533,0.0,3.1206,3.3015,3.4059,3.3053,3.2791,3.3636,3.3436,3.3385,3.3674,3.2636,3.2316,3.2841,3.1909,3.1122,3.0595,2.9699,2.9027,2.8474,2.7174,2.6113,2.5312,2.5312,2.5312,2.53,2.517,2.5087,2.4969,2.4225,2.4284,2.4613,2.3555,2.3167,2.3176,0.0,0.0,0.0,0.0,0.0,0.0,0.0,0.0,0.0,0.0,0.0,0.0,0.0,0.0,0.0,0.0,1.1623,1.2856,1.4006,1.6365,1.8503,2.0244,2.1836,2.3633,2.5621,2.6117,2.7088,2.8692,2.8892,2.9265,2.9786,3.0713,3.1541,3.2164,3.2314,3.2471,3.2637,3.226,3.1779,3.1266,3.0594,2.9396,2.7803,2.5496,2.2977,2.0581,0.0,1.8818,1.8087,1.6717,1.6894,1.7568,1.6965,1.7171,1.7659,1.7557,1.8164,1.9317,2.1584,2.4136,2.6482,2.7663,2.8725,2.9641,3.0127,2.9874,2.9521,2.9611,2.8932,2.827,2.8086,2.8133,2.8611,2.9955,3.0721,3.1521,3.2424,3.1816,3.0803,2.9514,2.9365,0.0,0.0,0.0,0.0,3.2051,3.2495,3.2682,3.2718,3.3437,3.37,3.3354,3.2911,3.2893,3.3431,3.1946,3.124,3.1236,2.9958,2.8835,2.7969,2.7184,2.6452,2.5817,2.5456,2.5312,2.5312,2.5182,2.5052,2.4838,2.4507,2.4339,2.4383,2.4024,2.3896,2.3769,0.0,0.0,0.0,0.0,0.0,0.0,0.0,0.0,0.0,0.0,0.0,0.0,0.0,0.0,0.0,0.0,0.0,1.1955,1.2715,1.4612,1.6305,1.7727,1.9198,2.1043,2.3254,2.3363,2.4347,2.6361,2.6243,2.6584,2.7442,2.8788,2.9729,3.0207,3.0559,3.0736,3.0729,3.0102,2.9188,2.815,2.7608,2.631,2.4423,2.2569,2.0568,0.0,1.686,1.6385,1.6338,1.5025,1.5257,1.6005,1.513,1.5731,1.6809,1.7156,1.8862,2.1152,2.349,2.6426,2.89,2.939,3.0297,3.0876,3.0407,2.9861,2.9207,2.8575,2.7606,2.6761,2.6214,2.602,2.6469,2.809,2.8827,2.9726,3.1366,3.0793,3.0012,2.9499,2.9322,2.9123,0.0,0.0,0.0,3.106,3.183,3.2286,3.2408,3.3178,3.3381,3.3018,3.2937,3.3023,3.3359,3.2117,3.1459,3.1357,2.977,2.8558,2.7705,2.7176,2.6526,2.5793,2.5456,2.5312,2.5312,2.5182,2.4992,2.4813,2.476,2.4495,2.4235,2.4602,2.4613,2.4388,0.0,0.0,0.0,0.0,0.0,0.0,0.0,0.0,0.0,0.0,0.0,0.0,0.0,0.0,0.0,0.0,0.0,0.0,1.1883,1.2519,1.3513,1.4974,1.6337,1.7999,2.0065,2.0205,2.1004,2.2519,2.2285,2.2845,2.4226,2.5494,2.6562,2.7407,2.8129,2.8153,2.7595,2.7204,2.572,2.3657,2.3999,2.2502,2.008,1.9684,1.8759,1.7421,1.5222,1.466,1.4869,1.4811,1.4693,1.462,1.462,1.5687,1.6993,1.7524,2.0138,2.3309,2.5499,2.7973,3.0083,3.0595,3.1246,3.1458,3.0146,2.9561,2.8984,2.7915,2.6773,2.5769,0.0,0.0,2.4124,2.6268,2.6502,2.7122,2.9419,2.8736,2.856,0.0,0.0,0.0,0.0,0.0,0.0,3.1123,0.0,3.1654,3.2541,3.2712,3.2712,3.2659,3.2646,3.2672,3.2738,3.2364,3.1685,3.0771,2.9268,2.8258,2.7705,2.7176,2.6358,2.5348,2.5312,2.5312,2.5312,2.5182,2.5004,2.4884,2.5121,2.4807,2.4395,2.536,2.5383,2.4734,0.0,0.0,0.0,0.0,0.0,0.0,0.0,0.0,0.0,0.0,0.0,0.0,0.0,0.0,0.0,0.0,0.0,0.0,1.0897,1.1914,1.2693,1.3219,1.4466,1.5818,1.7383,1.7823,1.8734,2.0157,2.101,2.1459,2.151,2.281,2.3416,2.3406,2.4408,2.502,2.5322,2.5071,2.3514,2.1259,2.1493,2.0565,1.8883,1.7873,1.6904,1.5992,1.5443,1.4993,1.4697,1.4731,1.5901,1.7451,1.7594,1.8643,1.9958,2.0751,2.2951,2.5625,2.7625,2.9609,3.1311,3.2458,3.2079,3.1304,3.0386,2.8797,2.7077,2.5572,2.3895,2.2497,0.0,0.0,0.0,2.5361,2.7097,0.0,2.9995,3.0903,0.0,2.9866,0.0,3.0335,2.9465,2.9915,0.0,0.0,3.189,3.223,3.1615,3.2722,3.296,3.2084,3.2058,3.2319,3.2851,3.2152,3.1062,2.9689,2.9292,2.8619,2.7705,2.7176,2.655,2.5877,2.548,2.5312,2.5312,2.5241,2.5266,2.5354,2.5409,2.5396,2.536,2.5624,2.5204,2.4426,0.0,0.0,0.0,0.0,0.0,0.0,0.0,0.0,0.0,0.0,0.0,0.0,0.0,0.0,0.0,0.0,0.0,0.0,0.0,1.1232,1.1767,1.1998,1.2881,1.37,1.4418,1.4935,1.5761,1.6799,1.7944,1.8561,1.8645,1.9835,2.0426,2.0556,2.1248,2.1911,2.2442,2.196,2.0583,0.0,0.0,1.797,1.6748,1.642,1.5954,1.5468,1.5435,1.5719,1.6201,1.6688,1.795,1.94,2.027,2.1559,2.2967,2.3925,2.5624,2.75,2.8994,3.0411,3.1551,3.2228,3.1326,3.0008,2.9081,2.7097,2.4957,2.2956,2.1399,2.0217,1.9467,2.0044,2.1255,0.0,0.0,0.0,2.9411,3.0391,3.0962,0.0,3.1343,0.0,3.0424,3.1009,3.1367,0.0,3.1621,3.1782,3.1461,3.2071,3.215,3.1483,3.147,3.1707,3.2206,3.1294,3.0611,2.9977,2.9051,2.8294,2.7693,2.6923,2.6274,2.5733,0.0,2.5312,2.5312,2.5312,2.5409,2.5554,2.5777,2.5505,2.5105,2.5622,2.5062,2.4009,0.0,0.0,0.0,0.0,0.0,0.0,0.0,0.0,0.0,0.0,0.8684,0.8694,0.0,0.0,0.0,0.0,0.0,0.0,0.0,0.0,1.0992,1.118,1.1737,1.2041,1.1954,1.2484,1.3046,1.3593,1.4675,1.5479,1.6087,1.7117,1.7909,1.8453,1.8687,1.9058,1.9427,1.8749,1.7676,1.6467,1.6338,1.561,1.4708,0.0,1.5614,1.5525,1.5345,1.6421,1.8106,1.9323,2.0349,2.1378,2.2887,2.4533,2.6054,2.7001,2.8071,2.9112,2.9867,3.0561,3.114,3.105,2.9798,2.8219,2.6976,2.4996,2.2718,2.0347,1.9247,1.8391,1.752,1.7956,1.9107,2.0882,0.0,2.4847,2.8268,2.8749,2.9699,3.1994,3.1859,3.154,3.1598,3.2361,3.2444,3.131,3.093,3.1021,3.1655,3.1365,3.1091,3.1029,3.1018,3.1099,3.1335,3.054,3.0323,3.0747,2.8919,2.7933,2.7693,2.6743,2.6021,2.5528,2.5528,2.5528,2.5457,2.5457,2.5479,2.5552,2.5995,2.5407,2.4432,2.5265,2.4797,2.3617,0.0,0.0,0.0,0.0,0.0,0.0,0.0,0.0,0.0,0.0,0.8491,0.8582,0.0,0.0,0.0,0.0,0.0,0.0,0.0,0.0,0.0,1.118,1.1627,1.2004,1.2305,1.2899,1.3297,1.3516,1.492,1.5473,1.5325,1.6166,1.6558,1.6576,1.7002,1.7181,1.7209,1.7475,1.6934,1.5985,1.6157,1.5847,1.531,1.5377,0.0,0.0,1.5402,1.6065,1.7387,1.9812,2.2432,2.4941,2.6133,2.8082,2.9867,2.9756,2.9905,3.02,3.0837,3.0563,3.0134,3.0343,2.9021,2.7128,2.5459,2.273,0.0,1.8743,1.736,1.6448,1.6518,1.7536,1.9138,2.1285,2.3417,2.5469,2.7584,2.8992,2.9849,0.0,3.0796,3.1101,3.065,3.1259,0.0,0.0,0.0,3.1189,3.1279,3.1513,3.1538,3.1216,3.1191,3.1342,3.1489,3.1417,3.0989,3.0218,2.9845,2.8991,2.7717,2.7524,2.7152,2.6659,2.6659,0.0,2.6336,2.6336,2.6023,2.5462,2.5541,2.5087,2.4524,2.4681,2.4084,2.3189,0.0,0.0,0.0,0.0,0.0,0.0,0.0,0.8786,0.8757,0.8643,0.8736,0.8693,0.844,0.8882,0.9341,0.0,0.0,0.0,0.0,0.0,0.0,0.0,0.0,0.0,1.2269,1.3031,1.338,1.3343,0.0,1.5119,1.5383,1.5769,1.619,1.6533,1.6586,1.6652,1.6821,1.697,1.668,1.6157,1.6032,1.578,1.5468,0.0,0.0,0.0,0.0,1.5928,1.7255,1.925,2.1746,2.4499,2.7021,2.9363,3.111,3.0974,3.0615,3.0395,3.0927,3.0181,2.9351,2.9461,2.7669,2.5449,2.3446,0.0,0.0,1.6393,1.5594,1.5255,1.518,1.6434,1.7838,1.9116,2.1149,2.3475,2.6056,2.746,2.8729,3.0226,3.0627,3.0822,3.1052,3.0931,3.1013,3.124,0.0,3.0887,3.1201,3.137,3.1384,3.1086,3.1317,3.1397,3.1385,3.1332,3.0999,3.0494,2.9941,2.928,2.8522,2.7969,2.7584,2.7332,2.7055,0.0,2.6784,2.6784,2.6279,2.5525,2.5525,2.4826,2.38,2.38,2.3193,2.2394,0.0,0.0,0.0,0.0,0.0,0.0,0.9001,0.8993,0.8911,0.8942,0.92,0.9238,0.8828,0.9089,0.9514,0.0,0.0,0.0,0.0,0.0,0.0,0.0,0.0,0.0,0.0,0.0,0.0,0.0,1.4084,0.0,0.0,0.0,0.0,0.0,1.6647,1.674,1.7044,1.6846,1.662,0.0,0.0,1.5748,0.0,0.0,0.0,0.0,0.0,0.0,1.7002,1.841,2.0152,2.2274,2.5487,2.8322,3.0528,3.0766,3.0411,3.0024,3.0561,2.992,2.8881,2.8466,2.6345,2.3823,2.1575,1.9047,1.6577,1.4625,1.433,1.4363,1.425,1.5318,1.6386,0.0,1.8685,2.113,2.4594,2.5751,2.742,3.0434,3.0592,0.0,3.1333,3.0725,0.0,3.1156,0.0,0.0,3.1022,3.11,3.1113,3.1031,3.1298,3.1388,3.1327,3.1199,3.0927,3.0699,2.9869,2.9352,2.91,2.827,2.7885,2.7861,2.7452,0.0,0.0,2.7119,2.6546,2.5739,2.5495,2.4472,2.3096,2.2843,2.2277,2.1603,0.0,0.0,0.0,0.0,0.0,0.0,0.895,0.9354,0.9319,0.8584,0.9923,1.0502,0.9202,0.9313,0.9599,0.0,0.0,0.0,0.0,0.0,0.0,0.0,0.0,0.0,0.0,0.0,0.0,0.0,0.0,0.0,0.0,0.0,0.0,0.0,0.0,0.0,1.7157,1.696,0.0,0.0,0.0,0.0,0.0,0.0,0.0,0.0,0.0,1.5629,1.6085,1.7687,1.8529,1.9156,2.0193,2.372,2.7601,2.804,2.8778,2.9558,3.0024,2.9915,2.9228,2.7363,2.5296,2.304,2.0348,1.7711,1.5633,1.4824,1.4024,1.37,1.4514,1.485,1.5436,0.0,0.0,1.9954,2.3773,2.5067,2.6667,2.9138,0.0,0.0,3.0314,3.0142,0.0,2.9508,0.0,0.0,3.0445,3.0825,3.1046,3.1189,3.1297,3.1357,3.1466,3.1586,3.1108,3.0158,3.0062,2.9508,2.8582,2.8474,2.8438,2.8426,2.8378,0.0,0.0,2.782,2.7,2.567,2.4935,2.4018,2.3018,2.2167,2.1678,2.1451,0.0,0.0,0.0,0.0,0.0,0.0,1.0325,1.026,1.02,1.0575,1.0774,1.0961,1.1081,1.1297,1.1282,1.0916,0.0,0.0,0.0,0.0,0.0,0.0,0.0,0.0,0.0,0.0,1.3459,1.3819,1.4289,0.0,0.0,0.0,0.0,0.0,0.0,0.0,0.0,0.0,0.0,0.0,0.0,0.0,0.0,0.0,0.0,0.0,0.0,0.0,1.5586,1.6267,1.6606,1.6665,1.6424,1.8173,2.0932,2.4072,2.5702,2.6842,2.8259,2.8812,2.8508,2.6875,2.4746,2.2324,1.9743,1.7277,1.5235,1.431,1.4051,1.4121,1.4554,1.4888,1.5168,1.5641,1.6128,0.0,2.0396,2.1355,2.3338,2.7544,2.8234,0.0,0.0,0.0,2.9463,0.0,0.0,0.0,3.0394,3.0842,3.1126,3.1201,3.1342,3.1415,3.1467,3.1659,3.1288,3.0555,3.0555,3.017,2.9448,2.9136,2.8979,2.8967,2.8655,0.0,0.0,2.7429,2.64,2.5136,2.4211,2.3193,2.2217,2.172,2.1447,2.1358,0.0,0.0,0.0,0.0,0.0,1.0118,1.1137,1.0848,1.0847,1.171,1.1342,1.133,1.2094,1.2542,1.2579,1.2126,1.2174,0.0,0.0,0.0,0.0,0.0,0.0,0.0,0.0,0.0,1.3336,1.3505,1.414,1.4698,0.0,0.0,0.0,0.0,0.0,0.0,0.0,0.0,0.0,0.0,0.0,0.0,0.0,0.0,0.0,0.0,0.0,0.0,0.0,0.0,0.0,1.4937,1.3982,1.4128,1.5491,1.9935,2.2377,2.41,2.5968,2.7212,2.7579,2.6229,2.4022,2.1593,1.925,1.6869,1.4861,1.3919,1.4009,1.4344,1.4567,1.4868,1.5003,1.4815,1.5042,1.6049,1.835,1.9104,2.1138,2.5554,0.0,2.7277,0.0,2.915,2.9181,0.0,0.0,0.0,3.0719,3.1014,3.1223,3.1214,3.1322,3.139,3.1222,3.1428,3.1168,3.0639,3.0482,3.0218,2.9833,2.9304,2.8889,2.8527,2.8253,0.0,0.0,2.6565,2.5724,2.4638,2.3694,2.2843,2.2031,2.1544,2.1407,2.1334,0.0,0.0,0.0,0.0,0.0,0.0,1.086,1.0917,1.1044,1.1191,1.1564,1.1751,1.1705,1.2411,1.3035,1.3446,1.3301,0.0,0.0,0.0,0.0,0.0,0.0,0.0,0.0,0.0,1.2975,1.3505,1.4242,1.4789,1.5203,1.6073,1.662,1.6803,0.0,0.0,0.0,0.0,0.0,0.0,0.0,0.0,0.0,0.0,0.0,0.0,0.0,0.0,0.0,0.0,0.0,0.0,0.0,1.2292,1.2535,1.5684,1.8976,2.1902,2.3201,2.5238,2.6645,2.5243,2.306,2.0731,1.8705,1.6351,1.4445,1.3809,1.3719,1.3883,1.4508,1.4729,1.4819,1.4963,1.5302,1.6369,1.8507,1.9512,2.0855,0.0,0.0,2.6223,2.6404,2.7711,0.0,0.0,0.0,0.0,3.1466,3.1357,3.1297,3.1214,3.1271,3.1071,3.067,3.087,3.0615,3.0086,2.9569,2.9316,2.9292,2.8763,2.7926,2.6823,0.0,0.0,0.0,2.5147,2.4904,2.4413,2.3444,2.3096,2.296,2.1785,2.1315,2.1172,0.0,0.0,0.0,0.0,0.0,0.0,1.2513,1.238,1.2285,1.2642,1.2843,1.2897,1.2746,1.3048,1.3323,1.3547,1.3459,0.0,0.0,0.0,0.0,0.0,0.0,0.0,0.0,1.2908,1.3142,1.3766,1.4422,1.4987,1.5429,1.635,1.6791,1.6876,1.6846,0.0,0.0,0.0,0.0,0.0,0.0,0.0,0.0,0.0,0.0,0.0,0.0,0.0,0.0,0.0,0.0,0.0,0.0,0.0,0.0,1.2224,1.4601,1.7512,1.9041,2.0568,2.155,2.0907,1.9493,1.7976,1.691,1.5336,1.3952,1.3422,1.3521,1.3748,1.3815,1.4385,1.4875,1.5089,1.5381,1.598,0.0,0.0,0.0,2.3675,2.7208,2.9284,0.0,0.0,0.0,0.0,0.0,0.0,3.1307,3.1322,3.1066,3.0634,3.1166,3.1222,3.0651,3.1156,3.1156,3.0627,3.0086,2.9641,2.928,2.8751,2.8339,0.0,0.0,0.0,0.0,2.5221,2.4382,2.3444,2.2501,2.2077,2.1863,2.1476,2.1154,2.0981,0.0,0.0,0.0,0.0,0.0,0.0,1.3168,1.2974,1.2897,1.3382,1.3234,1.3149,1.3276,1.3357,1.3459,1.3547,1.3594,0.0,0.0,0.0,0.0,0.0,0.0,0.0,1.3301,1.3151,1.339,1.4024,1.4448,1.4974,1.5589,1.6338,1.6778,1.6918,1.6846,1.6846,0.0,0.0,0.0,0.0,0.0,0.0,1.557,0.0,0.0,0.0,0.0,0.0,0.0,0.0,0.0,0.0,0.0,0.0,0.0,0.0,1.1715,1.3684,1.577,1.7249,1.827,1.84,1.7359,1.6216,1.5816,1.4669,1.3541,1.3135,1.3372,1.3669,1.3506,1.4209,1.4873,1.5042,1.5327,0.0,0.0,0.0,0.0,2.2909,0.0,0.0,0.0,0.0,0.0,0.0,0.0,0.0,3.1415,3.1427,3.1173,3.0471,3.1028,3.104,3.0272,3.0934,3.1117,3.0867,3.0049,2.9642,2.9569,2.8686,2.8099,0.0,0.0,2.6835,0.0,2.5062,2.4296,2.3531,2.2589,2.2079,2.176,2.1268,2.0945,2.0771,0.0,0.0,0.0,0.0,0.0,0.0,0.0,1.2925,1.3,1.3398,1.2953,1.2786,1.334,1.3493,1.3527,1.3514,1.3708,0.0,0.0,0.0,0.0,0.0,0.0,0.0,1.3425,1.3425,1.3658,1.423,1.4436,1.4935,1.5721,1.6115,1.6552,1.696,1.6803,1.6675,0.0,0.0,0.0,0.0,0.0,0.0,0.0,0.0,0.0,0.0,0.0,0.0,0.0,0.0,0.0,0.0,0.0,0.0,0.0,0.0,0.0,0.0,0.0,1.5083,1.6402,1.7092,1.6269,1.5226,1.5134,1.4113,0.0,1.292,1.3293,1.3629,1.3506,1.418,1.4756,1.4824,1.5262,0.0,0.0,1.7472,0.0,0.0,2.2645,0.0,2.6546,0.0,0.0,0.0,0.0,0.0,3.1452,3.1637,3.1344,3.0569,3.0903,3.0663,2.9699,3.0283,3.0596,3.0721,2.9523,2.9296,2.9918,2.8503,2.7441,0.0,0.0,2.5852,2.4659,2.4829,2.4744,2.4402,2.3501,2.2879,2.2457,2.136,2.0787,2.0633,0.0,0.0,0.0,0.0,0.0,0.0,0.0,0.0,0.0,0.0,1.3331,1.3485,1.348,1.3641,1.3708,0.0,0.0,0.0,0.0,0.0,0.0,0.0,0.0,0.0,1.356,1.348,1.3775,1.4423,1.4677,1.518,1.5951,1.6275,1.6607,1.6918,1.6642,1.6532,0.0,0.0,0.0,0.0,0.0,0.0,0.0,0.0,0.0,0.0,1.5357,1.5435,0.0,0.0,0.0,0.0,0.0,0.0,0.0,0.0,1.0283,1.043,1.1226,0.0,1.2049,1.3034,1.2983,1.2866,0.0,0.0,0.0,0.0,0.0,1.3125,1.3295,1.383,1.4402,1.4888,0.0,1.623,1.6712,0.0,0.0,2.2793,2.4945,2.6138,0.0,0.0,0.0,0.0,0.0,2.9288,3.0003,3.0891,3.1068,3.0284,3.0549,3.005,2.8712,2.9926,3.0072,2.8948,2.8855,2.8881,2.8976,2.8256,2.78,0.0,2.736,2.6682,2.5768,2.5663,2.5158,2.4457,2.3832,2.3412,2.3134,2.2451,2.1865,2.1258,0.0,0.0,0.0,0.0,0.0,0.0,0.0,0.0,0.0,0.0,1.3301,1.3572,1.3802,1.3908,1.3941,0.0,0.0,0.0,0.0,0.0,0.0,0.0,0.0,1.3788,1.3695,1.3674,1.4076,1.4969,1.4879,1.541,1.6468,1.6384,1.6534,1.6876,1.657,1.633,0.0,0.0,0.0,0.0,1.5548,0.0,0.0,0.0,0.0,0.0,1.5435,1.5525,0.0,1.5715,1.5037,1.4116,0.0,0.0,0.0,0.0,1.0244,1.0205,1.0312,1.0459,1.0813,1.1845,1.2169,1.2358,1.2992,0.0,0.0,0.0,0.0,1.3008,1.3326,1.3795,1.4369,0.0,1.5785,0.0,0.0,0.0,2.1141,2.2362,2.3823,2.4882,0.0,0.0,0.0,0.0,0.0,2.8,2.8496,2.965,3.0178,2.9723,3.0255,2.9746,2.8071,2.9118,2.893,2.7601,2.7383,2.747,2.7835,2.6673,2.6436,0.0,2.6679,2.6151,2.5432,2.5663,2.5198,2.4336,2.3888,2.3462,2.3098,2.271,2.2257,2.1711,0.0,0.0,0.0,0.0,0.0,0.0,0.0,0.0,0.0,0.0,0.0,0.0,0.0,0.0,0.0,0.0,0.0,0.0,0.0,0.0,0.0,0.0,1.3927,1.3808,1.3788,1.3866,1.4389,1.5356,1.5108,1.56,1.6831,1.6411,1.6448,1.6791,1.6466,1.6102,0.0,0.0,0.0,0.0,1.5211,0.0,0.0,0.0,0.0,0.0,0.0,0.0,0.0,1.5671,1.4819,1.3652,1.3158,0.0,0.0,0.0,0.0,0.0,1.0157,1.0595,1.1229,1.2034,1.244,1.2807,1.327,0.0,0.0,0.0,0.0,1.3135,1.3498,1.3955,0.0,0.0,0.0,0.0,1.8972,1.9126,1.9736,2.1332,2.1713,0.0,0.0,0.0,0.0,0.0,0.0,2.6271,2.668,2.8121,2.8878,2.8878,2.9508,2.9033,2.7304,2.7911,2.7591,2.6277,2.5646,2.5678,2.6349,2.482,2.4605,2.5311,0.0,0.0,2.4535,2.5362,2.5135,2.4288,2.4019,2.3503,2.2984,2.2776,2.2492,2.2209,0.0,0.0,0.0,0.0,0.0,0.0,0.0,0.0,0.0,0.0,0.0,0.0,0.0,0.0,0.0,0.0,0.0,0.0,0.0,0.0,0.0,1.4406,1.413,1.3927,1.3788,1.4232,1.4559,1.4729,1.5441,1.5938,1.6143,1.6308,1.6349,1.6281,1.6219,1.6026,1.5699,1.5533,0.0,0.0,0.0,0.0,0.0,0.0,0.0,0.0,0.0,0.0,0.0,1.5715,1.4864,1.3751,1.3126,0.0,0.0,0.0,0.0,0.0,1.0495,1.1135,1.1701,1.1857,1.243,1.3026,1.3318,0.0,0.0,0.0,0.0,0.0,0.0,1.4498,1.5138,0.0,0.0,1.8638,0.0,0.0,2.1068,2.1142,0.0,0.0,0.0,0.0,0.0,0.0,0.0,2.3662,2.3771,2.6077,2.7403,2.7403,2.7125,2.6429,2.5221,2.6378,2.6168,2.4514,2.4061,2.408,2.4375,2.4083,2.387,2.371,0.0,2.4313,2.4538,2.4799,2.4856,2.4746,2.4691,2.4346,2.3787,2.3936,2.3586,2.2936,0.0,0.0,0.0,0.0,0.0,0.0,0.0,0.0,0.0,0.0,0.0,0.0,0.0,0.0,0.0,0.0,0.0,0.0,0.0,0.0,1.4479,1.4401,1.4208,1.4059,1.3927,1.4091,1.431,1.4611,1.5012,1.5466,1.6015,1.6368,1.6273,1.5721,1.5872,1.5649,1.5153,1.5137,1.5094,0.0,0.0,0.0,0.0,0.0,0.0,0.0,0.0,0.0,0.0,0.0,1.4506,1.3054,1.2962,0.0,0.0,0.0,0.0,0.0,1.0273,1.0904,1.1492,1.1644,1.2468,1.3268,0.0,0.0,0.0,0.0,0.0,0.0,0.0,0.0,1.6284,1.7435,0.0,1.9726,2.1016,2.0566,2.0348,0.0,0.0,0.0,0.0,0.0,0.0,0.0,0.0,0.0,2.3564,2.504,2.5946,2.5946,2.5955,2.5541,2.4843,2.4792,2.4089,2.2837,2.2818,2.294,2.3189,2.2543,2.2521,2.2887,0.0,2.2654,2.2381,2.3132,2.3078,2.259,2.3391,2.346,2.321,2.3977,2.3824,2.3187,0.0,0.0,0.0,0.0,0.0,0.0,0.0,0.0,0.0,0.0,0.0,0.0,0.0,0.0,0.0,0.0,0.0,0.0,0.0,1.4714,1.462,1.4429,1.4332,1.417,1.3947,1.3959,1.4193,1.4602,1.4839,1.5389,1.6288,1.6472,1.6204,1.5517,1.5555,1.5243,1.465,1.465,1.4728,0.0,0.0,0.0,0.0,0.0,0.0,0.0,0.0,0.0,0.0,0.0,0.0,0.0,0.0,0.0,0.0,1.039,1.0166,1.0059,1.0137,1.0685,1.1264,1.1509,1.2388,0.0,0.0,0.0,0.0,0.0,0.0,0.0,0.0,1.588,0.0,1.9574,2.0308,2.0742,2.1273,2.0556,0.0,0.0,0.0,0.0,0.0,0.0,0.0,0.0,0.0,0.0,2.3359,2.3867,2.4206,2.4206,2.4459,2.4466,2.42,2.3232,2.2505,2.2129,2.214,2.228,2.2486,2.1501,2.1441,2.2087,2.1668,2.116,2.0559,2.1533,2.1579,2.1045,2.2226,2.2635,2.2767,2.3688,2.3868,2.347,0.0,0.0,0.0,0.0,0.0,0.0,0.0,0.0,0.0,0.0,0.0,0.0,0.0,0.0,0.0,0.0,0.0,0.0,0.0,1.4683,1.4651,1.4777,1.4584,1.4262,1.3808,1.4271,1.4559,1.4598,1.5722,1.6571,1.7092,1.6365,1.6109,1.6204,1.5466,1.4928,1.4595,1.4221,1.4274,1.4641,1.4602,0.0,0.0,0.0,0.0,0.0,0.0,0.0,0.0,0.0,0.0,0.0,0.0,0.0,1.0802,1.0495,1.0235,1.0157,1.0467,1.0914,1.1307,1.1399,1.2048,0.0,1.4561,1.4756,0.0,1.6639,0.0,0.0,0.0,1.6497,1.7625,1.9899,2.0994,2.1979,2.3172,0.0,0.0,0.0,0.0,0.0,0.0,0.0,0.0,0.0,0.0,0.0,2.1594,2.1928,2.2105,2.2105,2.1899,2.1974,2.2295,2.1839,2.2224,2.3425,2.2516,2.222,2.2371,2.1737,2.1148,2.0664,2.0449,2.0469,2.0557,2.1023,2.1543,2.2035,2.2294,2.2735,2.3243,2.3601,2.3941,2.412,0.0,0.0,0.0,0.0,0.0,0.0,0.0,0.0,0.0,0.0,0.0,0.0,0.0,0.0,0.0,0.0,0.0,0.0,0.0,1.4714,1.4651,1.4556,1.4831,1.476,1.4184,1.4339,1.4413,1.448,1.5472,1.627,1.689,1.6441,1.6349,1.6493,1.5504,1.5066,1.5147,1.4601,1.4689,1.5138,1.5045,1.526,0.0,0.0,0.0,0.0,0.0,0.0,0.0,0.0,1.429,1.2992,1.2957,1.2015,1.084,1.0611,1.0418,1.0341,1.0611,1.1496,1.2213,1.1542,1.2394,0.0,0.0,1.5985,1.6569,1.738,1.8574,0.0,0.0,0.0,1.8764,2.0437,2.156,2.2516,0.0,0.0,0.0,0.0,0.0,0.0,0.0,0.0,0.0,0.0,0.0,0.0,2.1964,2.1928,2.1885,2.1885,2.1539,2.1282,2.1308,2.1146,2.137,2.2067,2.2094,2.2315,2.2734,2.225,2.1858,2.1565,2.149,2.1156,2.0838,2.149,2.1907,2.2103,2.2347,2.2833,2.3338,2.3511,2.3835,2.412,0.0,0.0,0.0,0.0,0.0,0.0,0.0,0.0,0.0,0.0,0.0,0.0,0.0,0.0,0.0,0.0,0.0,0.0,1.4727,1.4677,1.4654,1.4669,1.5036,1.5082,1.4763,1.4574,1.4461,1.4397,1.5318,1.6153,1.6831,1.665,1.6464,1.6214,1.5631,1.5341,1.5236,1.4794,1.4954,1.5529,1.5221,1.538,0.0,0.0,0.0,0.0,0.0,0.0,0.0,0.0,1.4267,1.3037,1.3029,1.2095,1.0954,1.085,1.0789,1.0852,1.1123,1.202,1.274,1.2159,0.0,0.0,1.6763,1.7486,1.7928,1.8913,1.9916,0.0,1.9646,0.0,0.0,0.0,2.1944,2.2961,0.0,0.0,0.0,0.0,0.0,0.0,0.0,0.0,0.0,0.0,0.0,0.0,0.0,2.1484,2.126,2.134,2.085,2.0476,2.03,2.029,2.043,2.0836,2.1261,2.1861,2.2615,2.2323,2.2139,2.1969,2.1712,2.1386,2.103,2.1417,2.1628,2.1766,2.254,2.2913,2.3137,2.3372,2.3764,2.412,0.0,0.0,0.0,0.0,0.0,0.0,0.0,0.0,0.0,0.0,0.0,0.0,0.0,0.0,0.0,0.0,0.0,0.0,1.4517,1.4542,1.4805,1.5284,1.5188,1.5235,1.5492,1.5102,1.4746,1.4429,1.541,1.6362,1.7212,1.7049,1.6386,1.536,1.5877,1.5631,1.4827,1.4695,1.5041,1.5655,1.4997,1.5147,1.5792,0.0,0.0,0.0,0.0,0.0,0.0,0.0,1.4529,1.3697,1.317,1.2175,1.1228,1.1217,1.1432,1.1792,1.2189,1.2474,1.2754,0.0,0.0,0.0,1.9218,1.9188,1.9055,2.1588,2.0744,1.9624,1.9848,0.0,0.0,2.0092,2.2006,0.0,0.0,0.0,0.0,0.0,0.0,0.0,0.0,0.0,0.0,0.0,0.0,0.0,0.0,2.0232,1.9977,2.0202,1.9649,1.9287,1.9287,1.9068,1.9423,2.0186,1.9981,2.0613,2.1896,2.1838,2.1699,2.1479,2.0857,2.0751,2.0968,2.075,2.0715,2.1041,2.2733,2.3044,2.2595,2.342,2.3895,2.4108,0.0,0.0,0.0,0.0,0.0,0.0,0.0,0.0,0.0,0.0,0.0,0.0,0.0,0.0,0.0,0.0,0.0,0.0,1.4126,1.4448,1.4694,1.4814,1.5563,1.5886,1.558,1.5359,1.5379,1.5616,1.5605,1.6312,1.7622,1.6959,1.6904,1.738,1.6362,1.604,1.6319,1.5991,1.6066,1.6349,1.6436,1.661,1.6723,0.0,0.0,0.0,0.0,0.0,0.0,0.0,0.0,0.0,1.2892,1.2243,1.186,1.1427,1.1454,1.1724,1.2073,1.3299,0.0,1.3337,0.0,0.0,0.0,1.9392,0.0,0.0,2.1441,2.052,2.1317,0.0,0.0,0.0,0.0,0.0,0.0,0.0,0.0,0.0,0.0,0.0,0.0,0.0,0.0,0.0,0.0,0.0,0.0,1.9477,1.9492,1.9625,1.9448,1.9232,1.9029,1.8848,1.8682,1.8656,1.9,2.0075,2.1896,2.1896,2.1855,2.1756,2.1968,2.1933,2.1687,2.1967,2.1912,2.1621,2.2183,2.2229,2.2083,2.2375,2.2764,2.3155,0.0,0.0,0.0,0.0,0.0,0.0,0.0,0.0,0.0,0.0,0.0,0.0,0.0,0.0,0.0,0.0,0.0,0.0,0.0,1.4863,1.5072,1.5276,1.5904,1.6025,1.5624,1.5817,1.6082,1.6305,1.5886,1.6295,1.7448,1.7084,1.7009,1.7204,1.6634,1.6631,1.6957,1.6324,1.6441,1.7063,1.6745,1.6862,1.7157,0.0,0.0,0.0,0.0,0.0,0.0,0.0,0.0,0.0,1.2754,1.2207,1.1982,1.1861,1.1979,1.2295,1.3088,1.4325,0.0,1.4783,1.6587,1.8751,1.9825,0.0,0.0,0.0,0.0,2.1618,2.2743,2.2302,0.0,0.0,0.0,0.0,0.0,0.0,0.0,0.0,0.0,0.0,0.0,0.0,0.0,0.0,0.0,0.0,0.0,1.8874,1.8948,1.9236,1.8801,1.8566,1.8567,1.8398,1.8262,1.8008,1.8607,1.9681,2.1037,2.124,2.143,2.1652,2.2223,2.222,2.1717,2.2301,2.2143,2.164,2.1847,2.1927,2.1973,2.2386,2.2719,2.3029,0.0,0.0,0.0,0.0,0.0,0.0,0.0,0.0,0.0,0.0,0.0,0.0,0.0,0.0,0.0,0.0,0.0,0.0,0.0,1.5557,1.5702,1.6231,1.6133,1.597,1.5742,1.6473,1.6833,1.6782,1.63,1.6374,1.6978,1.7311,1.6894,1.5915,1.6884,1.7246,1.703,1.6111,1.654,1.7691,1.6402,1.6425,1.719,1.6793,0.0,0.0,0.0,0.0,0.0,0.0,0.0,0.0,1.2743,1.2096,1.1834,1.24,1.275,1.3225,1.4663,1.5327,0.0,1.6846,1.8111,0.0,2.1005,2.3287,2.5337,2.6151,0.0,2.2939,2.4062,2.3244,2.273,2.3532,0.0,0.0,0.0,0.0,0.0,0.0,0.0,0.0,0.0,0.0,0.0,0.0,0.0,0.0,1.8788,1.83,1.8252,1.8854,1.7976,1.7627,1.8008,1.7969,1.7969,1.8008,1.868,1.9246,1.9781,2.0204,2.0764,2.1256,2.1922,2.1853,2.1423,2.1922,2.1777,2.1204,2.1675,2.1858,2.1973,2.288,2.3212,2.3177,0.0,0.0,0.0,0.0,0.0,0.0,0.0,0.0,0.0,0.0,0.0,0.0,0.0,0.0,0.0,0.0,0.0,0.0,0.0,1.5658,1.5903,1.5982,1.6348,1.6655,1.6932,1.7042,1.7455,1.8168,1.6981,1.6841,1.7677,1.7325,1.7413,1.7847,1.7641,1.7584,1.7622,1.751,1.76,1.7842,1.7486,1.7395,1.7439,1.662,1.5913,0.0,0.0,0.0,0.0,0.0,0.0,0.0,1.32,1.2678,1.2541,1.2466,1.2787,1.3264,1.3873,1.5113,0.0,0.0,1.8746,2.1194,2.2293,2.4016,2.4892,2.3293,2.3395,2.3849,2.394,2.3755,2.3765,2.4114,0.0,0.0,0.0,0.0,0.0,0.0,0.0,0.0,0.0,0.0,0.0,0.0,0.0,0.0,1.7858,1.7949,1.7959,1.7812,1.7881,1.792,1.8008,1.7866,1.7866,1.8008,1.844,1.8966,1.9591,2.0445,2.1094,2.1572,2.1753,2.1654,2.14,2.1516,2.1441,2.1244,2.1284,2.133,2.1399,2.203,2.1996,2.1766,0.0,0.0,0.0,0.0,0.0,0.0,0.0,0.0,0.0,0.0,0.0,0.0,0.0,0.0,0.0,0.0,0.0,0.0,0.0,0.0,1.6604,1.6427,1.6623,1.7013,1.7624,1.7741,1.8114,1.8786,1.808,1.7848,1.8036,1.769,1.7748,1.8139,1.7885,1.7978,1.827,1.7881,1.7837,1.8,1.7527,1.7292,1.7156,1.6476,1.5793,1.5217,1.5319,0.0,0.0,0.0,0.0,0.0,0.0,0.0,1.2777,1.2815,1.2937,1.3276,1.4242,0.0,0.0,1.7314,0.0,2.0924,2.1935,2.2984,2.3536,2.2653,2.398,2.5049,2.4262,2.3566,2.3273,2.3694,2.439,2.4487,0.0,0.0,0.0,0.0,0.0,0.0,0.0,0.0,0.0,0.0,0.0,1.7852,1.7774,1.7735,1.7726,1.7755,1.7735,1.7803,1.8008,1.7843,1.7865,1.7886,1.8331,1.8913,1.9708,2.0661,2.1237,2.1457,2.1705,2.1596,2.1225,2.1225,2.1241,2.125,2.1008,2.1003,2.129,2.1743,2.1766,2.1606,0.0,0.0,0.0,0.0,0.0,0.0,0.0,0.0,0.0,0.0,0.0,0.0,0.0,0.0,0.0,0.0,0.0,0.0,0.0,0.0,0.0,1.7221,1.6965,1.7268,1.814,1.8371,1.8656,1.8954,1.9168,1.8944,1.8285,1.8143,1.8057,1.8012,1.8137,1.844,1.8826,1.8071,1.7954,1.8252,1.7311,1.6844,1.6711,1.6138,1.5523,1.4964,1.5217,1.4809,1.4284,1.4737,0.0,0.0,0.0,0.0,1.2782,1.3179,1.3132,1.3337,1.4737,0.0,1.6273,1.8323,1.9308,0.0,2.0951,2.1493,2.2008,2.2611,2.442,2.5409,2.3971,2.2965,2.2425,2.2799,2.3489,2.3673,2.2916,2.2318,0.0,0.0,0.0,0.0,0.0,0.0,0.0,0.0,0.0,1.8006,1.8024,1.7688,1.7684,1.7972,1.7573,1.7583,1.7984,1.781,1.7708,1.7698,1.8062,1.8832,1.9855,2.0637,2.0983,2.1045,2.1568,2.1544,2.1092,2.1092,2.1193,2.1342,2.083,2.0823,2.1279,2.164,2.1801,2.1778,0.0,0.0,0.0,0.0,0.0,0.0,0.0,0.0,0.0,0.0,0.0,0.0,0.0,0.0,0.0,0.0,0.0,0.0,1.7526,0.0,0.0,1.802,1.7419,1.7627,1.8831,1.8853,1.8845,1.8837,1.9597,1.952,1.8706,1.85,1.8613,1.8919,1.8935,1.9045,1.9236,1.909,1.9013,1.8869,1.7504,1.6878,1.6557,1.5216,1.4561,1.4359,1.4686,1.4582,1.4419,1.5281,1.4798,0.0,0.0,0.0,1.292,1.3076,1.33,1.3582,1.4001,0.0,1.6584,0.0,1.9244,1.971,0.0,0.0,2.1082,0.0,2.2372,2.289,2.1692,2.2219,2.2528,2.1463,2.2066,2.2372,2.1406,2.1022,2.0694,2.0416,0.0,0.0,0.0,0.0,0.0,0.0,1.7969,1.8029,1.7986,1.8009,1.8019,1.7991,1.7417,1.7413,1.8051,1.7561,1.7262,1.7202,1.7523,1.8298,1.9462,1.9525,1.9973,2.0696,2.1212,2.1344,2.1092,2.1092,2.1193,2.1342,2.083,2.0823,2.1233,2.1377,2.14,2.1267,0.0,0.0,0.0,0.0,0.0,0.0,0.0,0.0,0.0,0.0,0.0,0.0,0.0,0.0,0.0,1.7749,1.8068,1.8255,1.8239,1.7813,1.7675,1.7848,1.7963,1.8424,1.9328,1.9327,1.951,1.9909,1.99,1.979,1.9676,1.9623,1.9461,1.9236,1.8847,1.8735,1.8903,1.8791,1.8288,1.7559,1.7185,1.7064,1.6852,1.5322,1.5055,1.5428,1.4647,1.4162,1.4015,1.4651,1.4249,1.359,1.4138,0.0,0.0,0.0,1.3268,1.3507,1.4162,1.5051,1.6108,0.0,1.8041,1.8437,1.9318,1.9935,2.0275,2.0304,2.064,2.0971,2.1003,2.146,2.1691,2.1098,2.1207,2.1289,2.0933,2.0326,1.9997,2.0241,2.0179,1.9842,1.9107,1.8692,1.8416,1.8385,1.7687,1.7345,1.749,1.7181,1.7023,1.6974,1.6804,1.6896,1.7375,1.7464,1.7567,1.7577,1.8001,1.8241,1.8307,1.8597,1.9295,2.029,2.0552,2.049,2.0272,2.0318,2.0499,2.0614,2.0147,2.038,2.1008,2.0789,2.0799,2.0973,0.0,0.0,0.0,0.0,0.0,0.0,0.0,0.0,0.0,0.0,0.0,0.0,0.0,0.0,0.0,0.0,1.8295,1.8605,1.8798,1.817,1.7906,1.812,1.8493,1.9071,1.9857,1.9847,2.0111,2.0751,2.013,1.9969,2.0213,2.0146,1.9947,1.9545,1.9004,1.8743,1.8663,1.8737,1.8008,1.6957,1.7587,1.768,1.7345,1.6261,1.6294,1.6754,1.529,1.4413,1.4062,1.4591,1.409,1.338,1.4072,1.3785,0.0,0.0,0.0,0.0,0.0,0.0,1.5266,1.6438,1.679,1.7106,0.0,0.0,1.9547,0.0,1.9697,1.9815,2.0568,2.0754,2.0753,2.0716,2.0568,2.0519,2.0526,1.9909,1.9618,2.0052,1.9713,1.953,1.9602,1.884,1.8497,1.884,1.7926,1.7251,1.6973,1.6715,1.657,1.6556,1.6858,1.721,1.7533,1.7818,1.8119,1.8353,1.8524,1.8265,1.7812,1.8125,1.8794,1.9785,1.9949,1.9921,1.9737,1.9836,2.0064,2.0311,1.974,2.0074,2.0805,2.0147,2.0323,2.077,0.0,0.0,0.0,0.0,0.0,0.0,0.0,0.0,0.0,0.0,0.0,0.0,1.8585,1.8506,1.8385,1.8187,1.8087,1.8234,1.8764,1.8152,1.8327,1.9525,1.9017,0.0,2.0615,2.0533,2.0492,2.0611,2.0332,2.0015,1.9736,1.9465,1.9605,2.0041,2.0015,1.9585,1.8921,1.9637,1.9241,1.8282,1.9391,1.909,1.8014,1.8288,1.8214,1.7799,1.6881,0.0,0.0,0.0,0.0,0.0,0.0,0.0,1.3198,0.0,0.0,0.0,0.0,1.3951,0.0,1.5679,1.5961,1.6149,0.0,0.0,1.8858,1.9622,1.9775,1.9811,1.9874,2.0073,2.0165,1.9885,2.0049,2.0126,1.991,1.9706,1.9641,1.9797,1.9912,1.9848,1.9646,1.9621,1.9492,1.9267,1.9251,1.8441,1.6629,1.7209,1.7572,1.7459,1.8329,1.9018,1.9629,1.8851,1.887,1.9674,1.8702,1.8468,1.8808,1.8351,1.8505,1.9269,1.966,1.9977,2.0177,2.0177,2.052,2.0938,1.9894,2.0074,2.0758,1.9849,2.0121,2.0735,0.0,0.0,0.0,0.0,0.0,0.0,0.0,0.0,0.0,0.0,0.0,0.0,0.0,1.9387,1.9401,1.97,1.959,1.9525,1.9695,1.9469,1.9252,1.906,1.9736,2.0057,1.9998,2.0957,2.1437,2.1371,2.1256,2.0847,2.0152,2.0463,1.9909,1.87,1.9223,1.9667,1.9971,1.955,1.8909,1.8346,1.9607,2.0015,1.9685,1.8809,0.0,0.0,0.0,0.0,0.0,0.0,0.0,0.0,0.0,0.0,0.0,0.0,0.0,0.0,0.0,0.0,0.0,1.4776,1.5109,1.5437,1.6154,1.6904,1.764,1.8288,1.8334,1.8355,1.8706,1.9395,1.993,1.9815,1.9853,1.988,1.9681,1.9693,1.9608,1.9371,1.9938,2.0229,1.9788,1.9594,1.9568,1.9726,1.901,1.8321,1.7811,1.7668,1.7553,1.7472,1.7896,1.8547,1.9472,1.8875,1.8955,1.9788,1.9785,1.9488,1.887,1.8702,1.8741,1.9003,1.9162,1.9169,1.9111,1.9251,1.9624,1.9989,1.9509,1.9813,2.0428,1.9495,1.9567,1.9942,0.0,0.0,0.0,0.0,0.0,0.0,0.0,0.0,0.0,1.9375,0.0,0.0,0.0,0.0,1.9619,1.9924,2.003,2.0004,1.9898,2.0113,1.993,1.9201,2.0336,2.0693,2.0046,2.1337,2.1923,2.1797,2.189,2.151,2.0659,2.0835,2.0197,1.889,1.9155,1.9528,1.9907,1.9214,1.8729,1.8588,0.0,0.0,2.0382,0.0,0.0,0.0,0.0,0.0,0.0,0.0,0.0,0.0,0.0,0.0,0.0,0.0,0.0,0.0,1.3577,0.0,0.0,0.0,1.4149,1.4352,1.5132,0.0,1.659,1.7229,1.7464,1.7709,1.8141,1.8695,1.9158,1.9497,1.9484,1.9495,1.9592,1.9544,1.9522,1.9384,1.985,2.0064,1.9742,1.9713,1.9782,1.9862,1.9315,0.0,1.892,1.8758,1.8645,1.8645,1.8482,1.8543,1.8805,1.8716,1.898,1.9651,2.012,2.0027,1.9473,1.9081,1.8911,1.8885,1.8506,1.8388,1.8523,1.8796,1.915,1.9504,1.9455,1.9817,2.0282,1.9467,1.9424,1.9681,0.0,0.0,0.0,0.0,0.0,0.0,0.0,0.0,1.9583,1.9518,0.0,0.0,0.0,0.0,0.0,1.8841,1.9326,1.9563,1.9381,2.001,2.0288,2.0085,2.0729,2.1022,2.086,2.1573,2.1899,2.1761,2.2118,2.1919,2.1183,2.0564,2.0432,2.0732,1.9987,1.9289,1.8708,1.8724,1.8812,1.9116,0.0,2.1345,2.0005,0.0,0.0,0.0,2.0692,2.0019,0.0,2.0578,0.0,0.0,0.0,0.0,0.0,0.0,0.0,0.0,0.0,0.0,0.0,0.0,0.0,0.0,1.422,0.0,1.5843,1.6426,1.7276,1.7991,1.8119,1.784,1.7869,1.8808,1.8834,1.8983,1.9517,1.9246,1.9221,1.9889,1.9608,1.9446,1.9577,2.0034,2.0137,1.9629,2.0221,2.0411,1.9839,2.0522,2.0888,2.0888,2.0197,1.9217,1.7981,1.8512,1.8939,1.9294,1.9542,1.9989,2.0673,1.9473,1.8937,1.8845,1.7735,1.7691,1.8508,1.8974,1.9309,1.9587,1.974,2.0081,2.0409,1.9713,1.9731,1.99,0.0,0.0,0.0,0.0,0.0,1.9903,1.9788,1.9731,1.9652,0.0,0.0,0.0,2.0979,2.1898,2.2276,2.1657,2.1123,2.0749,2.0604,2.0143,1.9839,1.9681,2.0308,2.0436,1.9969,2.0807,2.0998,2.0421,2.1541,2.1928,2.1648,2.1427,2.0678,1.9461,2.0147,1.9845,1.8815,1.9185,0.0,1.9751,2.1369,2.2011,0.0,0.0,0.0,0.0,0.0,2.1858,2.1054,0.0,1.967,1.6168,0.0,0.0,0.0,0.0,0.0,0.0,1.3198,0.0,0.0,0.0,0.0,0.0,0.0,0.0,1.4938,1.5301,1.5899,1.6318,1.6242,1.6536,1.6933,1.7331,1.8287,1.9021,1.9133,1.9045,1.9052,1.9374,1.9136,1.8976,1.9012,1.9304,1.9409,0.0,1.935,1.9606,2.0059,2.0629,2.0961,2.0961,2.0051,1.9747,2.0057,1.912,1.8891,1.9317,2.0053,2.0505,2.0699,2.0371,1.9708,1.8885,1.8571,1.8096,1.7592,1.8074,1.857,1.9133,1.927,1.954,1.9731,1.9531,1.9218,1.8907,0.0,0.0,0.0,0.0,0.0,2.0015,1.99,1.983,1.977,0.0,0.0,0.0,2.1708,2.2484,2.2774,2.2318,2.177,2.1384,2.1287,2.068,2.0233,2.0082,2.0406,2.0437,2.0113,2.0284,2.0289,2.0147,2.0901,2.1412,2.1678,2.1886,2.1187,1.9733,2.0463,2.0004,1.8658,0.0,0.0,0.0,2.1086,0.0,0.0,2.3263,2.3919,0.0,0.0,0.0,2.2496,2.3389,2.094,0.0,0.0,0.0,0.0,0.0,0.0,0.0,0.0,0.0,0.0,0.0,0.0,0.0,1.38,1.4063,1.4177,0.0,1.4517,1.4976,1.4475,1.5229,1.5993,1.6221,1.7227,1.8152,1.8534,1.8453,1.8418,1.875,1.8682,1.8516,1.8407,1.8861,1.9001,1.8642,1.878,1.9252,2.014,2.0377,2.055,2.0673,1.9555,1.9165,1.9708,1.8558,1.8293,1.9033,1.9773,2.0329,2.0699,2.0499,1.9882,1.8885,1.8708,1.8092,1.7225,1.7522,1.7933,1.8523,1.8942,1.9171,1.9242,1.9256,1.8995,1.8709,0.0,0.0,2.0098,2.0098,2.0088,2.0078,2.0001,2.0026,2.0025,0.0,2.0669,2.1421,2.2101,2.2125,2.2058,2.1988,2.1844,2.1717,2.1642,2.138,2.1149,2.0965,2.0749,2.0604,2.0593,1.9795,1.9767,2.0492,2.0416,2.0747,2.1393,2.1773,2.1507,2.0638,2.0686,0.0,1.8388,0.0,0.0,1.8603,2.0457,2.115,0.0,0.0,2.3807,2.3294,2.3727,2.3678,2.3623,2.4225,2.2368,0.0,0.0,0.0,0.0,0.0,1.3998,0.0,0.0,0.0,0.0,0.0,0.0,0.0,1.3758,1.378,1.3543,0.0,1.342,1.4024,1.3131,1.4137,1.5186,1.5357,1.6032,1.6803,1.7756,1.7697,1.7695,1.8109,1.8189,1.8083,1.7751,1.8574,1.8755,1.7922,1.8493,1.9179,1.9954,1.9853,1.9832,2.0074,1.8856,1.8192,1.8304,1.7587,1.7772,1.8882,1.9162,1.9762,2.0594,2.0114,1.9462,1.8793,1.8495,1.7929,1.7199,1.7306,1.7509,1.7898,1.8684,1.8894,1.8893,1.9152,1.9088,1.8963,0.0,2.0178,2.0153,2.0108,2.005,2.002,1.999,2.0543,2.0921,2.0859,2.2018,2.3119,2.3838,2.3859,2.3787,2.3712,2.307,2.2593,2.2461,2.1766,2.1383,2.1365,2.0578,1.9832,1.9182,1.8929,1.9317,2.0428,2.1235,2.1295,2.06,2.0169,1.9848,1.9621,1.9922,1.9402,0.0,0.0,0.0,1.7527,1.8927,0.0,2.2903,2.3495,2.4395,2.5326,2.5419,2.4612,2.3304,2.2088,2.1579,2.1122,0.0,0.0,0.0,1.5799,0.0,0.0,0.0,0.0,0.0,0.0,0.0,0.0,1.3207,1.3096,1.3111,0.0,1.3544,1.3863,1.397,1.4748,1.5244,1.4928,1.5303,1.5991,1.7066,1.7458,1.7747,1.7939,1.7735,1.7521,1.7326,1.7571,1.7723,1.7578,1.8249,1.8648,1.868,1.9118,1.9415,1.9474,1.8831,1.8822,1.9471,1.8818,1.9179,2.0422,1.9803,1.9721,2.0088,1.9449,1.8826,1.827,1.8655,1.8197,1.7225,1.7938,1.7882,1.7473,1.8874,1.9065,1.8715,1.9767,1.956,1.8879,2.0265,2.025,2.0381,2.079,2.0784,2.0881,2.133,2.1678,2.1867,2.1801,2.2768,2.3727,2.4474,2.453,2.4459,2.441,2.4004,2.3693,2.3548,2.2685,2.2134,2.2134,2.1165,2.0292,1.9516,1.9726,2.0424,2.1589,2.1627,2.1508,2.1156,1.9546,1.9094,1.9595,1.946,1.9208,0.0,0.0,1.88,1.8355,2.0173,0.0,2.2234,2.4156,2.5384,2.6099,2.6063,2.553,2.465,2.3303,2.2379,0.0,0.0,1.9708,1.8368,0.0,1.6027,1.4768,0.0,0.0,0.0,1.4667,0.0,0.0,0.0,1.3589,1.3446,1.2692,1.3301,1.3799,1.3144,1.4025,1.4762,1.4528,1.4915,1.545,1.6003,1.6399,1.6658,1.6747,1.6858,1.6905,1.6863,1.7183,1.7391,1.7352,1.7676,1.8034,1.8292,1.8293,1.8451,1.8928,1.8271,1.8074,1.8516,1.8195,1.9092,2.1145,1.9964,1.9124,1.8608,1.8897,1.8655,1.8114,1.8464,1.8053,1.7293,1.8269,1.8078,1.7306,1.8407,1.8877,1.8961,1.9348,1.9114,1.8768,2.0373,2.0314,2.0597,2.1444,2.1559,2.1814,2.2679,2.2834,2.2904,2.2966,2.3651,2.4346,2.4926,2.5152,2.5209,2.5136,2.5107,2.497,2.4667,2.386,2.3107,2.2429,2.1878,2.109,2.0039,2.0751,2.1627,2.2683,2.1798,2.1592,2.1872,1.9781,1.9235,1.9959,1.9085,1.8985,0.0,0.0,0.0,1.9687,0.0,2.2118,2.1367,2.4408,2.5776,2.6025,2.612,2.6151,2.599,2.5054,2.3559,2.2185,2.2555,2.1114,0.0,0.0,0.0,0.0,0.0,0.0,0.0,0.0,0.0,1.4284,0.0,0.0,0.0,1.2364,1.3209,0.0,0.0,0.0,0.0,0.0,0.0,0.0,0.0,1.5114,0.0,1.5672,1.5827,1.6131,1.649,1.6972,1.7272,1.724,1.7164,1.744,1.8077,1.754,1.7596,1.8326,1.7609,1.7273,1.7434,1.7543,1.8858,2.1329,2.0226,1.8922,1.7478,1.8507,1.8574,1.7931,1.8166,1.7833,1.728,1.8311,1.838,1.7904,1.8577,1.8946,1.9097,1.9084,1.8906,1.8754,2.0556,2.0383,2.0649,2.1469,2.1596,2.1868,2.2675,2.3389,2.4052,2.4638,2.5469,2.6003,2.6032,2.6772,0.0,2.7009,0.0,0.0,2.5613,0.0,2.3933,2.1059,2.2025,2.1589,1.9362,2.0552,2.1515,2.2187,2.1879,2.1729,2.1627,2.1182,2.0746,2.0281,1.8653,0.0,0.0,0.0,1.8684,0.0,2.2348,2.2778,0.0,2.306,2.4083,2.512,2.5776,2.597,2.5803,0.0,2.4092,2.3523,0.0,2.2654,2.2501,2.1274,0.0,0.0,0.0,0.0,0.0,0.0,1.4498,0.0,0.0,0.0,1.351,1.3487,0.0,0.0,0.0,0.0,0.0,0.0,0.0,0.0,1.3779,1.4262,1.499,1.5845,1.4826,1.4706,1.6441,1.677,1.701,1.7365,1.7077,1.7076,1.747,1.7429,1.7429,1.751,1.7319,1.7557,1.8242,1.8786,1.9714,2.1073,2.1091,2.0226,1.8429,1.8398,1.7982,1.7329,1.7865,1.7761,1.728,1.8185,1.9109,2.0105,2.0954,2.0077,1.853,2.0151,2.002,1.9113,2.1336,2.1561,2.2167,2.3017,2.314,2.3376,2.4196,2.4561,2.4821,2.5022,2.5421,2.5643,0.0,0.0,0.0,0.0,0.0,2.6572,0.0,0.0,2.4881,2.2928,2.3235,2.2954,2.188,2.2375,2.2704,2.2799,2.2753,2.2658,2.252,2.1962,2.1791,2.1861,2.056,0.0,2.1087,0.0,2.0736,0.0,0.0,0.0,0.0,2.4859,2.5709,2.6118,2.6605,2.6385,2.5888,0.0,2.4188,0.0,0.0,0.0,0.0,0.0,0.0,0.0,0.0,0.0,0.0,0.0,0.0,0.0,1.4384,0.0,1.4201,0.0,0.0,0.0,0.0,0.0,0.0,0.0,1.4659,0.0,0.0,0.0,1.3939,0.0,0.0,0.0,1.6599,1.697,1.707,1.6905,1.7086,1.7223,1.7157,1.7337,1.7447,1.7393,1.7358,1.7437,1.7699,1.9588,2.0771,2.1227,2.0515,1.9775,1.898,1.8067,1.7476,1.7212,1.7473,1.7434,1.728,1.8227,1.8697,1.8962,2.0472,2.064,2.003,1.9933,1.9566,1.9107,2.2574,0.0,2.329,2.4175,2.4263,2.4503,2.5328,2.5385,2.5293,2.5194,0.0,0.0,2.5529,2.6034,0.0,0.0,2.747,2.7415,0.0,0.0,2.5672,2.4269,2.4081,0.0,2.3283,2.3554,2.3571,2.3289,2.3313,2.3223,2.3067,2.2492,2.2496,2.29,0.0,2.1616,2.2616,0.0,2.2048,2.3062,2.3671,2.4287,2.4947,2.6364,2.6974,2.7129,2.7175,2.679,2.6229,2.5874,2.4456,0.0,2.3628,0.0,0.0,0.0,0.0,0.0,2.004,0.0,0.0,0.0,0.0,0.0,0.0,0.0,0.0,0.0,0.0,0.0,0.0,0.0,0.0,0.0,0.0,1.4925,0.0,1.3544,0.0,0.0,0.0,0.0,0.0,1.6837,1.6939,1.6619,1.7073,1.7356,1.724,1.7447,1.7516,1.7516,1.7481,1.7431,1.7329,1.9307,2.036,2.0426,1.9402,1.8849,1.8715,1.7909,1.7466,1.7199,1.7199,1.724,1.7391,1.8136,1.8357,1.8384,1.9584,2.0474,2.0921,1.9788,1.9261,1.9064,2.4323,2.3651,0.0,2.4245,2.435,2.4584,2.5465,2.5488,0.0,0.0,0.0,0.0,0.0,0.0,0.0,0.0,0.0,2.9931,2.889,0.0,2.6276,2.382,2.4085,2.3564,0.0,2.31,2.3558,2.3289,2.3168,2.302,2.2816,2.2782,2.2807,2.2789,2.0489,2.0732,2.2737,2.054,2.1677,2.4999,2.5056,2.6181,2.7731,0.0,2.677,2.7624,2.7178,0.0,0.0,2.5918,2.5177,0.0,0.0,0.0,0.0,0.0,0.0,0.0,0.0,0.0,0.0,1.8543,0.0,0.0,0.0,0.0,1.5561,0.0,0.0,0.0,0.0,0.0,0.0,0.0,0.0,0.0,0.0,0.0,0.0,0.0,0.0,0.0,0.0,1.6072,1.644,0.0,1.7052,1.731,1.7841,1.7693,1.7679,1.7896,1.7678,1.7606,1.7574,1.76,1.7765,1.799,1.7965,1.7701,1.7298,1.8153,1.8041,1.7199,1.7199,1.7393,1.7679,1.7733,1.8506,1.9666,1.8938,1.9251,2.0127,2.0074,1.9653,1.9064,0.0,0.0,0.0,0.0,0.0,0.0,0.0,2.5538,0.0,0.0,0.0,0.0,0.0,2.8179,2.8802,0.0,0.0,2.959,2.912,2.7659,0.0,0.0,0.0,2.3817,0.0,2.4096,2.3813,2.3513,2.3417,2.3247,2.2995,2.2919,2.2893,2.2902,2.2633,2.3198,0.0,0.0,0.0,0.0,0.0,2.6871,2.752,0.0,2.7408,2.7589,2.7725,2.7286,0.0,2.6384,2.559,2.4706,2.4612,2.3819,2.325,2.4861,2.4311,0.0,0.0,0.0,2.3012,2.0481,0.0,0.0,0.0,0.0,0.0,0.0,0.0,0.0,0.0,0.0,0.0,0.0,0.0,0.0,0.0,0.0,0.0,0.0,0.0,0.0,0.0,0.0,0.0,0.0,1.6091,0.0,1.7477,1.7733,1.7842,1.7923,1.7815,1.7801,1.7813,1.7759,1.7811,1.7914,1.7584,1.7353,1.7219,1.7877,1.7989,1.7598,1.7908,1.8068,1.8068,1.8001,1.8363,1.8953,1.8662,1.8912,1.942,1.9435,1.9266,1.9017,2.5668,0.0,0.0,0.0,0.0,0.0,0.0,0.0,0.0,0.0,2.7016,0.0,2.8427,0.0,2.8833,0.0,2.9727,2.957,2.8794,2.7941,0.0,2.7428,2.5649,0.0,0.0,2.5281,2.4458,2.4133,2.3768,2.344,2.3168,2.307,2.2977,2.2987,2.3458,2.4232,2.5166,2.5925,2.6507,0.0,0.0,2.7512,0.0,0.0,2.7606,2.7395,0.0,2.7624,2.6908,2.7115,2.6544,2.5853,2.6436,2.5385,2.4258,2.5916,2.533,2.4247,2.4546,2.4946,0.0,2.2178,2.2064,0.0,1.9541,0.0,0.0,0.0,0.0,0.0,0.0,0.0,0.0,0.0,0.0,0.0,0.0,1.4979,0.0,0.0,0.0,0.0,0.0,0.0,1.4137,1.608,1.5744,1.6091,0.0,1.7814,1.7882,1.7788,1.7868,1.7882,1.7842,1.7882,1.7923,1.7896,1.7437,1.7316,1.7611,1.8003,1.8109,1.8068,1.8383,1.85,1.8461,1.8369,1.8525,1.8784,1.8745,1.8874,1.9078,1.9101,1.904,1.8941,2.5595,0.0,0.0,0.0,2.5691,0.0,0.0,0.0,2.6318,0.0,2.7544,2.7707,2.941,2.9641,2.9672,2.9601,3.0412,3.0144,2.8288,2.8864,0.0,0.0,2.7471,2.7648,2.8368,0.0,0.0,2.5108,2.4157,2.3558,2.3313,2.3241,2.3168,2.3095,2.297,0.0,2.5188,2.5481,2.6425,2.776,2.794,2.8119,2.8201,2.7858,2.7409,2.7103,2.796,2.8014,2.7729,2.8,2.7912,2.7698,2.7682,2.7365,2.6985,2.7224,2.7149,2.6738,2.5514,2.533,2.513,2.3657,2.3345,0.0,0.0,0.0,2.0496,0.0,0.0,0.0,0.0,0.0,0.0,0.0,0.0,0.0,0.0,0.0,0.0,0.0,0.0,0.0,0.0,1.3569,1.4588,1.4284,1.5924,1.7263,0.0,1.7948,1.7801,1.7598,1.7788,1.7842,1.7679,1.7936,1.8004,1.7882,1.7437,1.7624,1.8353,1.8492,1.8553,1.8539,1.8553,1.8669,1.8822,1.8822,1.8936,1.9101,1.9101,1.9078,1.9031,1.9078,1.8988,1.8898,2.5591,2.5656,2.569,0.0,2.5698,2.5481,0.0,0.0,0.0,0.0,2.9685,3.1161,3.2253,3.2391,3.2381,3.2376,3.2597,0.0,0.0,0.0,0.0,3.1546,2.9071,2.8275,2.9542,2.7135,0.0,2.5331,2.4283,2.3664,2.3448,2.3289,2.3144,2.3003,0.0,2.3745,2.5063,2.5337,2.6489,2.8146,2.8246,2.7994,2.7605,0.0,2.7638,2.6916,2.7571,2.7604,2.7456,2.7659,2.7754,2.7759,2.7647,2.7624,2.7589,2.7321,2.7181,2.7068,2.6704,2.6619,2.655,2.6033,2.538,2.453,0.0,0.0,0.0,0.0,0.0,0.0,0.0,0.0,0.0,0.0,0.0,0.0,0.0,0.0,0.0,1.4372,0.0,0.0,0.0,1.3259,1.4456,1.6327,1.5328,1.5674,1.7984,0.0,1.7421,1.7814,1.7733,1.768,1.7679,1.9291,1.9345,1.7908,1.7787,1.8311,1.9323,1.9382,1.9246,1.8974,1.9273,1.9398,1.9376,1.9302,1.9265,1.9228,1.9139,1.9213,1.9362,1.9339,1.9302,1.9288,2.5554,0.0,0.0,2.5693,0.0,0.0,2.6171,2.6672,0.0,2.9137,3.0294,0.0,3.2697,3.3161,3.3393,3.3396,3.3404,0.0,3.2213,0.0,0.0,3.1853,3.0501,2.9998,3.0594,2.8695,0.0,2.6135,2.5112,2.4285,2.3707,2.3531,2.3324,2.3102,0.0,2.3658,2.4663,2.5592,2.6658,2.7763,2.8148,2.8058,0.0,2.8218,2.8005,2.7449,2.7723,2.7635,2.7487,2.7824,2.7986,2.8021,2.7996,2.7971,2.7897,2.7624,2.7461,2.7355,2.7261,2.7261,2.7276,2.7195,2.6759,2.6024,2.4762,2.4381,2.4166,0.0,0.0,0.0,0.0,0.0,0.0,0.0,0.0,0.0,0.0,0.0,0.0,0.0,1.5386,0.0,0.0,1.4328,1.4862,1.5413,1.5149,1.5777,1.7573,0.0,1.7673,1.7733,1.844,1.8741,1.8534,2.0002,2.0163,1.8992,1.8517,1.8655,1.9338,1.9781,1.9779,1.9485,1.9732,1.9797,1.9669,1.9596,1.956,1.9472,1.942,1.9551,1.9782,1.9833,1.9726,1.9639,2.5511,0.0,0.0,0.0,0.0,0.0,0.0,2.7539,0.0,3.0574,0.0,3.0927,3.2455,3.328,3.3746,3.375,0.0,3.306,3.1487,3.2803,3.2888,3.1168,3.2,3.2265,3.1785,3.0589,2.9122,0.0,0.0,0.0,2.4018,2.3878,2.3624,2.3259,0.0,0.0,0.0,2.6073,2.6952,2.7281,2.796,2.8264,2.8264,2.8371,2.83,2.8191,2.8109,2.7917,2.7729,2.8209,2.8317,2.8307,2.845,2.8291,2.8055,2.8027,2.7847,2.763,2.75,2.7535,2.7587,2.7544,2.7557,2.7304,2.6116,2.5868,2.5836,2.5742,2.4443,2.3979,0.0,0.0,0.0,0.0,0.0,0.0,0.0,0.0,0.0,0.0,0.0,0.0,0.0,1.5864,1.5469,1.3586,1.5254,1.6603,1.7109,0.0,1.8076,1.7746,1.9349,2.0133,1.9884,2.0565,2.0808,2.0472,1.961,1.9141,1.9099,1.9924,2.017,1.9954,2.005,2.001,1.9904,1.9869,1.9818,1.9818,1.9909,2.0015,2.017,2.0376,2.0224,1.9965,2.5478,0.0,0.0,0.0,0.0,2.8688,3.0141,3.1269,3.1925,3.1811,3.3579,3.4991,3.5284,3.5444,3.5542,3.5543,3.5487,0.0,0.0,0.0,0.0,3.4858,3.4365,3.4003,3.38,3.1443,2.9931,0.0,0.0,0.0,2.4072,2.3996,2.3795,2.354,0.0,0.0,2.5572,2.6659,0.0,2.8341,2.8542,2.859,2.8594,2.8406,2.8291,2.8182,2.8126,2.7979,2.7876,2.8081,2.8182,2.8237,2.8398,2.838,2.83,2.8136,2.7989,2.7922,2.7829,2.7747,2.7659,2.7661,2.7626,2.7504,2.7243,2.7023,2.6847,2.6815,2.6384,2.5714,2.4776,0.0,0.0,0.0,0.0,0.0,0.0,0.0,0.0,0.0,0.0,1.7361,0.0,0.0,1.5773,1.529,1.5505,1.6138,1.7198,0.0,1.726,0.0,1.9307,0.0,0.0,0.0,2.1774,2.0959,2.1177,2.0985,2.043,2.0365,2.0277,2.0212,2.0076,2.0135,2.0379,2.0261,2.0261,2.0379,2.0579,2.0545,2.046,2.0662,2.0695,2.0646,0.0,0.0,0.0,0.0,0.0,0.0,0.0,3.3446,3.4095,3.2839,3.3828,3.4647,3.4654,3.5454,3.5994,3.5992,3.5976,3.5933,3.5903,3.5903,3.5864,3.5791,3.5422,3.493,3.4303,3.2825,3.1155,2.9285,0.0,0.0,2.4303,0.0,0.0,2.371,0.0,2.4761,0.0,0.0,0.0,2.8881,2.9782,3.0131,3.007,2.9911,2.9598,2.9158,2.8963,2.8622,2.8299,2.8273,2.83,2.8362,2.8432,2.8484,2.8476,2.8354,2.8264,2.8174,2.8142,2.806,2.8007,2.7982,2.7935,2.7882,2.7789,2.7654,2.7547,2.7547,2.7382,2.6708,2.5107,2.3159,0.0,0.0,0.0,0.0,0.0,0.0,0.0,0.0,0.0,0.0,0.0,0.0,0.0,0.0,0.0,0.0,0.0,0.0,1.8584,0.0,0.0,0.0,2.2426,0.0,2.3366,2.324,2.3452,2.2577,2.0793,2.1132,2.1083,2.0709,2.0543,2.063,2.091,2.0862,2.0878,2.0926,2.099,2.0893,2.0712,2.0794,2.0761,2.0744,0.0,2.6565,0.0,0.0,3.0521,0.0,3.2929,3.4594,3.5269,3.3998,3.3897,3.3932,3.3947,3.5174,3.5999,3.5992,3.5992,3.5957,3.5925,3.591,3.5875,3.582,3.5852,3.548,3.4638,3.4291,3.2852,0.0,0.0,0.0,0.0,0.0,0.0,0.0,0.0,0.0,0.0,0.0,2.9388,2.9958,3.1306,3.1681,3.1452,3.1372,3.0906,3.0239,2.9844,2.9321,2.8855,2.8564,2.851,2.8543,2.8536,2.8562,2.858,2.8504,2.8416,2.838,2.83,2.83,2.83,2.8264,2.8237,2.8219,2.8156,2.8065,2.8037,2.8037,2.7858,2.7238,2.5771,2.4254,0.0,0.0,0.0,0.0,0.0,0.0,0.0,0.0,0.0,0.0,1.8108,0.0,0.0,0.0,0.0,0.0,1.9856,0.0,0.0,0.0,0.0,2.3266,2.3254,0.0,2.4766,2.5502,2.5201,2.3811,2.1534,2.2237,2.2067,2.1263,2.1263,2.1311,2.1415,2.1493,2.1479,2.1433,2.1325,2.1183,2.0991,2.0893,2.0843,2.0826,0.0,0.0,0.0,0.0,0.0,0.0,3.317,3.4671,3.5746,3.5581,3.5619,3.5697,3.5749,3.5901,3.5994,3.5996,3.5938,3.5938,3.5982,3.5923,3.5898,3.588,3.5833,3.5763,3.565,3.5553,3.5347,0.0,0.0,2.8188,0.0,0.0,0.0,0.0,0.0,0.0,0.0,2.9301,3.0691,3.2627,3.2857,3.2449,3.1654,3.1537,3.1236,3.083,3.0206,2.9761,2.9449,2.8873,2.8712,2.8737,2.8637,2.8587,2.8562,2.838,2.8371,2.8371,2.8237,2.8246,2.83,2.8371,2.8398,2.8406,2.851,2.8352,2.8183,2.8183,2.7926,2.7227,2.5672,2.6284,2.6506,0.0,0.0,0.0,0.0,0.0,2.4394,2.4042,0.0,0.0,0.0,2.0272,0.0,0.0,1.8216,0.0,0.0,0.0,0.0,2.0862,2.1377,2.223,2.3432,2.4214,2.5208,2.6463,2.5185,2.4335,2.3885,2.3786,2.306,2.1842,2.2276,2.219,2.1853,2.2106,2.2061,2.184,2.1708,2.1526,2.1324,2.1151,2.1103,2.1151,0.0,0.0,0.0,0.0,0.0,0.0,0.0,3.5282,3.5756,3.5785,3.5855,3.5925,3.5999,3.5994,3.5996,3.6003,3.5986,3.5966,3.6005,3.5976,3.5938,3.5897,3.5846,3.5794,3.5794,3.5679,3.5113,0.0,0.0,0.0,0.0,0.0,0.0,0.0,0.0,2.8895,2.9444,3.0657,3.188,3.3062,3.3823,3.3834,3.3437,3.3374,3.2897,3.2145,3.128,3.0521,2.9842,2.9137,2.8791,2.8662,2.8612,2.8587,2.8587,2.8458,2.851,2.8562,2.8458,2.8484,2.8536,2.851,2.851,2.8562,2.8687,2.8644,2.8576,2.8676,2.8525,2.8076,2.712,2.6684,2.6486,2.6533,0.0,0.0,0.0,0.0,0.0,2.5275,0.0,2.3131,0.0,0.0,0.0,0.0,0.0,0.0,0.0,0.0,0.0,2.2455,0.0,2.3707,2.4287,2.467,2.5227,2.5921,2.5459,2.5062,2.473,2.4613,2.3802,2.2507,2.2445,2.23,2.2135,2.2254,2.2106,2.184,2.1797,2.1556,2.1214,2.1309,2.134,2.134,3.1597,0.0,3.1896,0.0,3.4265,3.4294,3.5514,3.5708,3.5747,3.5785,3.5833,3.5907,3.5951,3.5985,3.5996,3.6005,3.5992,3.5994,3.5994,3.6009,3.5976,3.5923,3.5866,0.0,3.5795,3.5707,3.5005,3.3689,3.184,0.0,0.0,0.0,0.0,0.0,2.9393,3.0208,3.1003,3.2388,3.3161,3.3588,3.4932,3.5346,3.509,3.5015,3.4323,3.3264,3.2108,3.1038,3.0092,2.9306,2.8887,2.8644,2.8612,2.8587,2.8587,2.851,2.8536,2.8612,2.8562,2.8587,2.8612,2.8612,2.8587,2.8637,2.8761,2.8785,2.8834,2.8923,2.8834,2.8619,2.8264,2.7281,2.6827,2.7595,0.0,0.0,0.0,2.7829,0.0,0.0,2.4986,2.4147,2.344,2.2135,0.0,0.0,0.0,0.0,0.0,0.0,0.0,0.0,0.0,0.0,2.4556,2.5012,2.5438,2.5779,2.5868,2.5721,2.533,2.5013,2.4463,2.3644,2.2815,2.2529,2.2615,2.2264,2.2077,2.1974,2.1928,2.1764,2.1554,2.1658,2.1688,2.1718,3.2241,3.2581,3.3172,3.5053,3.5444,3.5523,3.5669,3.5766,3.5794,3.5805,3.5805,3.5833,3.5891,3.5958,3.5991,3.5994,3.5993,3.5996,3.5996,3.5996,3.5996,0.0,0.0,3.5872,3.5805,3.5795,3.5727,3.5568,0.0,0.0,3.2675,0.0,2.8685,2.9758,2.9589,3.1368,3.4545,3.4545,3.4564,3.4733,3.6385,3.6742,3.6254,3.5991,3.5175,3.3998,3.2467,3.1177,3.0097,2.9403,2.9012,2.8749,2.8637,2.8587,2.8562,2.8432,2.8406,2.8406,2.8406,2.8406,2.845,2.8562,2.8587,2.8637,2.8761,2.8785,2.8785,2.881,2.8687,2.8587,2.8587,2.8466,2.8291,2.8055,0.0,0.0,0.0,0.0,0.0,2.6259,2.5949,2.5622,2.5025,2.4715,0.0,0.0,0.0,0.0,0.0,0.0,0.0,2.3584,2.3978,0.0,2.3893,2.5216,2.6063,2.6383,2.6383,2.6236,2.5866,2.5006,2.4978,2.5458,2.3662,2.3076,2.3296,2.2245,2.2032,2.2377,2.2254,2.2347,2.2544,2.2292,2.2258,2.2395,3.4068,3.4251,3.4467,3.5251,3.5419,3.55,3.5669,3.5718,3.5747,3.5794,3.5842,3.5851,3.5829,3.5931,3.5994,0.0,3.5996,3.5996,0.0,3.5996,3.5996,3.5996,3.5936,3.5888,3.5868,3.5826,3.5753,3.5665,0.0,0.0,0.0,3.1412,3.1819,3.3676,3.3616,3.3976,3.4645,3.5037,3.4926,3.4626,3.6585,3.6788,3.5908,3.5367,3.487,3.4267,3.2617,3.1352,3.0349,2.9593,2.9188,2.8993,2.8948,2.8755,2.8518,2.8484,2.8518,2.8594,2.8594,2.8637,2.8687,2.8712,2.8737,2.8737,2.8785,2.8785,2.8785,2.8785,2.8761,2.8687,2.8562,2.8536,2.8458,2.8255,2.8388,0.0,2.8344,0.0,2.8183,2.743,2.7297,2.7061,2.6533,2.6084,0.0,0.0,0.0,0.0,0.0,0.0,0.0,0.0,2.473,0.0,2.4916,2.5303,2.5717,2.621,2.621,2.6335,2.6551,2.5673,2.5006,2.4462,2.3572,2.2822,2.2308,2.2236,2.2192,2.213,2.2124,2.2113,2.2073,2.2181,2.222,2.2303,3.4674,3.4812,3.4944,3.5166,3.5259,3.5361,3.5551,3.565,3.5708,3.5793,3.5849,3.5868,3.5851,3.5908,0.0,3.5996,3.5996,3.5996,3.5996,3.5996,3.5996,3.5996,3.5957,3.5937,3.5898,3.5858,0.0,3.5745,3.4585,3.3949,3.3799,3.3473,3.4101,3.5493,3.5493,3.5289,3.4945,3.5339,3.5223,3.4907,3.6065,3.6386,3.6111,3.5509,3.5015,3.448,3.3079,3.1798,3.0652,3.0127,2.9634,2.9212,2.9212,2.8989,2.8725,2.8669,2.8662,2.8644,2.8644,2.8687,2.8712,2.8687,2.8687,2.8687,2.8687,2.8687,2.8687,2.8712,2.8712,2.8662,2.8518,2.851,2.8484,2.8353,2.8406,2.8458,2.8458,0.0,2.8254,0.0,0.0,0.0,0.0,2.6317,2.5967,0.0,0.0,0.0,0.0,0.0,0.0,2.494,2.5378,2.5642,2.5642,2.5621,2.5828,2.612,2.612,2.6279,2.6555,2.6101,2.5481,2.4695,2.3896,2.3393,2.3036,2.24,2.2315,2.2546,2.2288,2.2186,2.2186,2.2337,2.2419,2.25,3.4293,3.445,3.4651,0.0,3.5009,0.0,3.5357,3.557,3.5718,3.5782,3.5791,3.581,3.5896,3.5896,3.5943,3.6091,0.0,0.0,0.0,3.5996,3.5996,3.5996,3.5996,3.5976,3.5918,3.5903,3.588,3.5802,3.5745,3.5639,3.5501,3.552,3.5507,3.5493,3.5493,3.5493,3.5493,3.5493,3.5493,3.5479,3.5089,3.5683,3.6706,3.6255,3.5588,3.4792,3.3783,3.2367,3.0978,3.0922,3.028,2.9506,2.9487,2.9328,2.9082,2.8938,2.8767,2.8619,2.8619,2.8619,2.8637,2.8543,2.8543,2.8518,2.8518,2.8518,2.8543,2.8612,2.8587,2.8518,2.8492,2.8458,2.8424,2.8398,2.8398,2.8398,2.838,2.838,2.7933,0.0,0.0,0.0,2.5911,2.5834,2.609,0.0,0.0,0.0,0.0,0.0,2.4908,2.5864,2.5954,2.5937,2.5974,2.6099,2.617,2.617,2.6206,2.617,2.601,2.6279,2.6227,2.5862,2.463,2.4448,2.4846,2.2694,2.2425,2.3328,2.2649,2.2525,2.2738,2.2685,2.2738,2.2825,0.0,0.0,3.4476,3.4755,3.4851,3.4996,3.5353,3.5438,3.555,3.5766,3.5803,3.5812,3.581,3.5818,3.6192,3.7079,3.6435,3.5993,3.5993,3.5993,3.5995,3.5996,3.5996,3.5996,3.5976,3.5989,3.5942,3.5884,3.5801,3.5726,3.5659,3.5596,3.5509,3.5432,3.5479,3.5493,3.5493,3.5493,3.5493,3.5493,3.5403,3.5825,3.6424,3.5789,3.5796,3.5888,3.4207,3.2883,3.1807,3.1167,3.0753,3.0465,3.0406,2.9897,2.9291,2.9123,2.9016,2.8971,2.8971,2.8971,2.8989,2.8957,2.8929,2.8881,2.8881,2.8881,2.89,2.8905,2.8881,2.881,2.8612,2.8562,2.8502,2.8291,2.8237,2.8264,2.8327,2.8273,2.8147,0.0,2.7741,2.7657,2.7467,2.723,2.6843,0.0,0.0,0.0,2.5615,2.5329,2.539,2.5864,2.5659,2.5584,2.5675,2.5621,2.568,2.5811,2.6173,2.6314,2.6225,2.6452,2.603,2.5067,2.4961,2.4282,2.3194,2.2948,2.2647,2.2336,2.2168,2.2141,2.2169,2.2113,2.2141,2.2281,3.4005,3.4176,3.4345,3.4651,3.4772,3.4851,3.5015,3.5292,3.5509,3.5519,3.5657,3.5737,3.5745,3.5782,3.6043,3.6664,3.6765,3.655,3.6023,3.6374,3.6417,3.601,3.5994,3.5995,3.5995,3.5993,3.5989,3.5945,3.5919,3.5853,3.5784,3.5724,3.564,3.5589,3.5449,3.6291,3.77,3.6161,3.5493,3.5493,3.5493,3.5687,3.5909,3.5553,3.5592,3.5723,3.4642,3.3658,3.2827,3.2372,3.192,3.1525,3.1487,3.111,3.0599,3.0107,2.9572,2.9104,2.9101,2.9101,2.9082,2.9048,2.8975,2.8929,2.8952,2.8952,2.8952,2.8994,2.8994,2.8905,2.8712,2.8662,2.8612,2.8458,2.7769,2.7528,2.8298,2.7647,2.7362,2.8037,2.7996,2.7893,2.7824,2.7647,2.7304,2.6762,2.6636,0.0,2.6149,2.6066,2.605,2.6082,2.5937,2.5828,2.5787,2.5733,2.5754,2.5937,2.6189,2.626,2.6154,2.64,2.6079,2.5332,2.4963,2.458,2.4149,2.3017,2.2709,2.2922,2.2382,2.2215,2.2243,2.2326,2.2392,2.25,3.377,3.4006,3.4252,3.4564,3.4691,3.4732,3.4626,3.5086,3.5416,3.5278,3.5514,3.5706,3.5689,3.5756,3.5791,3.5791,3.6799,3.7143,3.6548,3.7128,3.7109,3.6216,3.6064,3.6009,3.6009,3.6009,3.6005,3.5991,3.6004,3.5977,3.5917,3.6027,3.6054,3.5974,3.5577,3.7156,3.9937,3.6801,3.5446,3.5446,3.5446,3.5432,3.5383,3.5369,3.5273,3.5105,3.5001,3.4509,3.3884,3.3751,3.322,3.2577,3.2577,3.2411,3.209,3.1393,3.0335,2.9357,2.9197,2.9163,2.9126,2.9075,2.898,2.891,2.8957,2.8975,2.8998,2.9062,2.9021,2.8952,2.8858,2.881,2.867,2.8367,2.729,2.6874,2.7994,0.0,2.6623,2.7893,2.7836,2.7642,2.7617,2.7587,2.7557,2.7496,2.76,2.7478,2.7087,2.6939,2.6741,2.6418,2.6383,2.6279,2.6046,2.601,2.6046,2.617,2.6206,2.6134,2.601,2.633,2.6264,2.5832,2.4863,2.4946,2.5542,2.299,2.2718,2.3742,2.275,2.2398,2.2525,2.2747,2.2876,2.2952,3.3734,3.391,3.416,3.4539,3.4623,3.4647,3.4668,3.4711,3.4944,3.5553,3.5673,3.5715,3.5695,3.5708,3.5736,3.5791,3.5981,3.6865,3.867,3.8547,3.7977,3.7051,3.636,3.5996,3.5996,3.5996,3.5994,3.5991,3.5991,3.5985,3.6009,3.6957,3.722,3.6864,3.6124,3.6802,3.833,3.6166,3.5242,3.5242,3.5242,3.527,3.53,3.5258,3.5209,3.5193,3.5229,3.5049,3.4698,3.401,3.3616,3.3393,3.3356,3.2883,3.2333,3.2166,3.145,3.0508,2.9659,2.9412,2.9353,2.9351,2.9328,2.9304,2.9304,2.9326,2.9344,2.9344,2.9326,2.9262,2.9108,2.9044,2.8517,2.6923,2.7604,2.7907,2.6799,0.0,2.7879,2.821,2.7864,2.7617,2.7587,2.7557,2.7483,2.7407,2.7438,2.7407,2.725,2.7233,2.7169,2.6989,2.6488,2.628,2.6349,2.6013,2.5885,2.601,2.6189,2.6189,2.601,2.6555,2.6253,2.5311,2.513,2.4544,2.362,2.2938,2.2705,2.2705,2.2225,2.2281,2.2571,2.2493,2.2563,2.2703,3.3549,3.356,3.3616,3.3902,3.4316,3.4623,3.4626,3.4604,3.4711,3.5049,3.5457,3.5704,3.5704,3.5706,3.5737,3.5833,3.584,3.6306,3.7406,3.8998,3.886,3.6557,3.6116,3.5955,3.5957,3.5955,3.5951,3.5951,3.5979,3.6245,3.671,3.7237,3.7398,3.7191,3.6967,3.7403,3.821,3.6396,3.5601,3.556,3.5432,3.5383,3.5397,3.5326,3.5251,3.5209,3.5245,3.5193,3.5049,3.4666,3.4499,3.439,3.3916,3.3463,3.301,3.2539,3.1463,3.0281,2.9663,2.9493,2.9493,2.9433,2.939,2.9407,2.9407,2.9407,2.9407,2.9407,2.9365,2.9323,2.9197,2.9112,2.8828,2.7944,2.7638,0.0,2.7684,2.7339,2.7399,2.8298,2.7989,2.7719,2.7719,2.7557,2.7438,2.7362,2.7376,2.7393,2.7282,2.7299,2.7282,2.7166,2.6708,2.6539,2.6725,2.64,2.6279,2.6383,2.6453,2.6453,2.6367,2.6219,2.5848,2.5313,2.4396,2.402,2.3939,2.2967,2.2892,2.3328,2.292,2.2822,2.2933,2.3056,2.3074,2.3126,3.3393,3.3273,3.3219,3.3375,3.3895,3.4386,3.4561,3.4602,3.4623,3.4668,3.5168,3.5553,3.5693,3.5704,3.5737,3.5833,3.5846,3.5879,3.5908,3.8365,3.88,3.6506,3.6073,3.5899,3.589,3.5914,3.5918,3.5918,3.5971,3.6335,3.7001,3.7274,3.7368,3.7301,3.7588,3.7933,3.8209,3.6668,3.5977,3.5919,3.5696,3.559,3.5535,3.5481,3.5399,3.5292,3.5281,3.5266,3.5266,3.5254,3.5254,3.512,3.4297,3.3933,3.3623,3.2591,3.121,2.9997,2.9889,2.9758,2.9664,2.9737,2.9622,2.947,2.9429,2.9409,2.9409,2.9347,2.9304,2.9262,2.9178,2.9134,2.8979,2.8574,0.0,2.7416,2.8256,2.7455,2.7242,2.8424,2.8183,2.7904,2.7904,2.7647,2.7452,2.739,2.7376,2.7345,2.7282,2.7299,2.7264,2.7181,2.6923,2.6875,2.704,2.6775,2.6657,2.6691,2.6691,2.6691,2.6657,2.6182,2.5741,2.527,2.4073,2.3845,2.4281,2.301,2.3068,2.3922,2.3508,2.3346,2.3359,2.3831,2.3773,2.3552,3.3393,3.3393,3.3393,3.3393,3.3452,3.3753,3.4495,3.4602,3.4668,3.4851,3.4945,3.5155,3.5651,3.5704,3.5695,3.5706,3.5716,3.5775,3.5883,3.6148,3.6859,3.8158,3.6732,3.5891,3.5896,3.5964,3.5992,3.5992,3.5996,3.6035,3.611,3.7179,3.7536,3.7301,3.7571,3.7719,3.7689,3.6493,3.6009,3.5988,3.5962,3.586,3.5687,3.5687,3.5638,3.5572,3.5496,3.5481,3.5469,3.5418,3.5378,3.5243,3.4441,3.4191,3.3832,3.2161,3.1046,3.0433,3.0798,3.0355,2.996,3.0694,3.0318,2.9737,2.955,2.9492,2.9433,2.9243,2.92,2.9197,2.9112,2.9089,2.8592,2.7043,0.0,0.0,2.7048,2.7871,2.8646,2.8755,2.8466,2.8255,2.8255,2.7904,2.7672,2.7672,2.7434,2.7299,2.7299,2.7299,2.7233,2.7117,2.7085,2.7103,2.7103,2.6842,2.6691,2.6691,2.6691,2.6674,2.664,2.7115,2.6459,2.4947,2.5084,2.4462,2.3371,2.2943,2.3105,2.3594,2.3318,2.3405,2.3768,2.4527,2.4257,2.3624,3.3393,3.3393,3.3393,3.3393,3.3393,3.3491,3.3807,3.4269,3.4668,3.487,3.4908,3.4982,3.5187,3.5203,3.5203,3.5203,3.5203,3.5228,3.5287,3.5473,3.5979,3.68,3.6236,3.5905,3.5894,3.5916,3.5949,3.5949,3.5989,3.6266,3.6752,3.72,3.7339,3.7245,3.7344,3.7108,3.6614,3.6181,3.5996,3.6004,3.5958,3.5866,3.5755,3.5767,3.5693,3.5602,3.5572,3.5562,3.5551,3.5481,3.5456,3.5232,3.3833,3.3736,3.3794,3.2109,3.138,3.1181,3.1336,3.0723,3.0102,3.033,3.013,2.9817,2.9716,2.9716,2.9698,2.9608,2.9551,2.9513,2.9474,2.9312,2.896,2.831,0.0,2.8755,2.8154,2.8479,2.881,2.881,2.8543,2.8388,2.8414,2.8101,2.7897,2.7936,2.784,2.78,2.78,2.773,2.7654,2.7607,2.7504,2.7307,2.6975,2.6808,2.6691,2.6691,2.6923,2.7021,2.7019,2.6974,2.6608,2.5978,2.5085,2.4509,2.417,2.3542,2.3853,2.4704,2.4584,2.4867,2.5302,2.5099,2.5059,2.5111,3.3334,3.3393,3.3393,3.3393,3.3393,3.3393,3.3393,3.3868,3.4274,3.4416,3.4713,3.4908,3.4908,3.5836,3.6481,3.6481,3.5514,3.4908,3.4908,3.5168,3.5512,3.5883,3.5897,3.5911,3.5911,3.5899,3.5895,3.5895,3.5946,3.625,3.6797,3.6797,3.678,3.6786,3.6786,3.65,3.5996,3.5996,3.5992,3.5996,3.5955,3.5892,3.5864,3.5852,3.5801,3.5725,3.5693,3.5685,3.5676,3.5621,3.559,3.5347,3.387,3.3573,3.3518,3.2071,3.1655,3.1648,3.1661,3.0996,3.0343,3.0457,3.0261,2.9992,2.9899,2.9899,2.9902,2.9787,2.9716,2.968,2.968,2.9456,2.9295,2.9295,2.9144,2.903,2.8962,2.8915,2.8863,2.881,2.8637,2.8543,2.8619,2.8344,2.8174,2.8255,2.8156,2.8102,2.8102,2.7964,2.7897,2.7897,2.7771,2.7522,2.712,2.7053,2.7004,2.7004,2.7258,2.7261,2.7061,2.7091,2.6871,2.6366,2.5603,2.5309,2.5316,2.4759,2.5056,2.5849,2.589,2.6123,2.6399,2.6167,2.6194,2.6304,3.3165,3.3411,3.3393,3.3393,3.3393,3.3393,3.3393,3.3393,3.3393,3.3393,3.426,3.4889,3.4908,3.7883,3.9851,3.9851,3.6841,3.4908,3.4908,3.5089,3.5412,3.5878,3.5908,3.5908,3.5908,3.5908,3.5908,3.5908,3.5908,3.5908,3.5908,3.5908,3.589,3.59,3.59,3.5935,3.5992,3.5996,3.5996,3.5995,3.5996,3.5992,3.5991,3.6004,3.6001,3.5994,3.5928,3.5905,3.5898,3.5823,3.5799,3.5643,3.4773,3.3868,3.2927,3.2066,3.1753,3.1703,3.1772,3.1165,3.0689,3.1411,3.0944,3.0253,3.0056,3.0007,2.9946,2.9748,2.9713,2.9696,2.9642,2.9551,2.9514,2.9514,2.9455,2.9332,2.9126,2.9086,2.9034,2.8834,2.881,2.8834,2.8905,2.8644,2.8543,2.8601,2.8308,2.8102,2.8102,2.7982,2.7897,2.7897,2.7771,2.7654,2.7612,2.7672,2.7701,2.7683,2.776,2.7355,2.656,2.7762,2.7414,2.5897,2.6934,2.7086,2.6597,2.6604,2.6682,2.6816,2.6954,2.6898,2.6856,2.7847,2.7624,2.6934,3.2197,3.2266,3.2488,3.3274,3.3393,3.3393,3.3393,3.3393,3.3393,3.3393,3.3652,3.4111,3.4831,3.5799,3.6386,3.6386,3.6557,3.6178,3.504,3.5122,3.5277,3.547,3.5568,3.5641,3.5688,3.5735,3.5752,3.5752,3.5818,3.582,3.582,3.5878,3.5894,3.5909,3.5909,3.5908,3.5932,3.5938,3.5968,3.5995,3.5994,3.5996,3.6007,3.6005,3.5994,3.6009,3.5977,3.5968,3.5963,3.5898,3.5866,3.5813,3.5449,3.3921,3.2324,3.2609,3.1873,3.0933,3.0954,3.0733,3.0559,3.0775,3.0606,3.0328,3.0235,3.0241,3.0433,3.093,3.0509,3.0217,3.0818,3.0215,2.9662,2.9699,2.9532,2.9392,2.9332,2.923,2.9144,2.9097,2.9034,2.9034,2.9101,2.9003,2.8952,2.9003,2.8797,2.8651,2.8601,2.8525,2.8448,2.8396,2.8344,2.8282,2.8174,2.7818,2.7302,2.6737,2.7553,2.7536,2.6817,2.7976,2.8316,2.7949,2.7711,2.76,2.7539,2.7025,2.7175,2.7791,2.7886,2.8184,2.8552,2.8295,2.835,2.8533,3.1763,3.18,3.2179,3.3357,3.3549,3.352,3.3422,3.3393,3.3422,3.3549,3.3549,3.3788,3.4394,3.4461,3.4461,3.4461,3.6262,3.6709,3.5059,3.5035,3.5105,3.5141,3.5277,3.5425,3.5607,3.5639,3.5669,3.5708,3.5735,3.576,3.576,3.5791,3.584,3.5866,3.5866,3.5889,3.5903,3.5903,3.5942,3.6005,3.5964,3.5973,3.5995,3.5976,3.5953,3.596,3.5965,3.5958,3.5951,3.5914,3.5903,3.5819,3.5376,3.4167,3.2955,3.3109,3.2402,3.1518,3.12,3.1078,3.1051,3.1043,3.0721,3.0383,3.0348,3.0648,3.1052,3.1533,3.1437,3.1429,3.1955,3.1172,3.0462,3.0516,3.0031,2.9608,2.9532,2.9414,2.9272,2.9169,2.9148,2.9169,2.923,2.9225,2.9243,2.9286,2.916,2.9071,2.8984,2.8938,2.8892,2.8845,2.8821,2.8749,2.8651,2.8316,2.787,2.7289,2.8083,2.803,2.7319,2.8337,2.8704,2.8503,2.8342,2.8381,2.8513,2.8089,2.8259,2.8764,2.8876,2.9176,2.9476,2.9026,2.9139,2.9495,3.1688,3.1763,3.2179,3.3419,3.3734,3.3726,3.3481,3.3422,3.352,3.378,3.3807,3.3807,3.3807,3.3807,3.3807,3.3807,3.5871,3.6519,3.5003,3.4908,3.4908,3.4927,3.5018,3.5247,3.5554,3.5566,3.5607,3.5689,3.5689,3.5699,3.5699,3.5699,3.5726,3.5784,3.5784,3.584,3.5883,3.5883,3.5934,3.5988,3.5923,3.596,3.5995,3.5936,3.5917,3.5918,3.5908,3.5916,3.5913,3.5895,3.5899,3.5744,3.4893,3.4575,3.4354,3.3557,3.3234,3.2954,3.2128,3.1914,3.1895,3.1817,3.11,3.0452,3.0529,3.1145,3.1742,3.1807,3.2403,3.291,3.2987,3.2288,3.1673,3.1596,3.0767,3.0032,2.977,2.9626,2.9455,2.9214,2.9233,2.9275,2.9355,2.9394,2.9412,2.9392,2.9392,2.9353,2.9293,2.923,2.9188,2.9188,2.9126,2.9064,2.8993,2.9016,2.8929,2.8712,2.8956,2.8676,2.7932,2.8732,2.8716,2.8086,2.8812,2.9251,2.9433,2.9492,2.9569,2.9645,2.9844,2.9842,2.9716,2.9872,2.9905,2.9921,3.1308,3.1576,3.1893,3.2162,3.3105,3.378,3.3726,3.3726,3.3726,3.3788,3.3807,3.3807,3.3807,3.3807,3.3807,3.3807,3.482,3.5287,3.4927,3.4908,3.4945,3.5057,3.4982,3.5053,3.5266,3.534,3.5416,3.5534,3.5589,3.5615,3.5615,3.5679,3.5718,3.5717,3.5717,3.5752,3.5813,3.5827,3.5864,3.5923,3.5966,3.5991,3.5992,3.5972,3.5976,3.5973,3.597,3.5987,3.5966,3.5923,3.5895,3.5855,3.5669,3.5137,3.4534,3.4347,3.3835,3.3153,3.2283,3.202,3.1812,3.1125,3.0762,3.0741,3.1428,3.1718,3.2029,3.2604,3.281,3.3102,3.373,3.3077,3.2254,3.1632,3.1269,3.0848,3.0189,3.0034,2.9953,2.9902,2.9851,2.9817,2.9769,2.9644,2.9494,2.9334,2.9314,2.9272,2.9148,2.9126,2.9104,2.9038,2.9082,2.9042,2.8911,2.9188,2.8892,2.8026,2.8699,2.8633,2.7932,2.8732,2.9077,2.9091,2.9258,2.9453,2.9645,2.9719,2.9755,2.9773,2.9857,2.9872,2.9872,3.0019,3.0064,2.9965,3.119,3.1385,3.1445,3.1196,3.2109,3.2858,3.2858,3.339,3.3807,3.3807,3.3698,3.3605,3.3605,3.3726,3.3807,3.3807,3.4136,3.4371,3.4371,3.4545,3.4691,3.4771,3.4691,3.4792,3.5054,3.507,3.5171,3.5412,3.543,3.5502,3.5547,3.5577,3.5623,3.5648,3.5648,3.5699,3.5752,3.576,3.5787,3.5858,3.5883,3.5919,3.5955,3.5991,3.6001,3.5992,3.5957,3.5976,3.5991,3.5962,3.5952,3.5942,3.5942,3.5346,3.4729,3.5119,3.4638,3.396,3.3926,3.3579,3.3134,3.2661,3.2253,3.1928,3.1914,3.2208,3.2695,3.35,3.3963,3.4367,3.4786,3.4133,3.3364,3.2945,3.2485,3.1866,3.0989,3.0776,3.0706,3.0685,3.0308,3.0045,3.0049,3.0295,3.0219,2.9626,2.9662,2.9608,2.9394,2.9435,2.9435,2.9332,2.9373,2.9334,2.9293,2.9453,2.9267,2.8719,2.956,2.9522,2.8776,2.9619,2.9827,2.955,2.955,2.9589,2.9701,2.9755,2.9771,2.9806,2.9937,3.0003,3.0,3.0147,2.992,2.9499,3.1151,3.1151,3.0935,3.0568,3.0734,3.1087,3.1511,3.284,3.378,3.3726,3.352,3.3422,3.3452,3.3671,3.3807,3.3807,3.3807,3.3807,3.3807,3.4124,3.4316,3.4404,3.4381,3.4498,3.4812,3.4772,3.4908,3.5285,3.5285,3.535,3.546,3.546,3.5495,3.5577,3.5577,3.5623,3.5689,3.5669,3.5715,3.5787,3.5772,3.5814,3.587,3.5943,3.5973,3.5986,3.5923,3.5956,3.5993,3.5993,3.5992,3.5991,3.5991,3.5496,3.5031,3.5695,3.5385,3.4978,3.57,3.5266,3.4574,3.4438,3.3887,3.3223,3.2524,3.2881,3.3572,3.4272,3.5106,3.5708,3.5708,3.5107,3.4565,3.4409,3.3752,3.2879,3.1838,3.1711,3.1565,3.1193,3.0553,3.0242,3.0508,3.0939,3.0833,2.9994,3.0049,3.0003,2.9755,2.9859,2.9859,2.9755,2.9738,2.9738,2.9774,2.9719,2.9719,2.9792,3.079,3.0715,2.972,3.0603,3.0528,2.9701,2.9719,2.9662,2.9531,2.9713,2.9691,2.9612,2.9988,3.0152,3.0142,3.0119,2.956,2.881,3.0895,3.0855,3.0551,3.051,2.8803,2.8127,3.0332,3.2446,3.3726,3.3481,3.3422,3.3481,3.3726,3.378,3.3807,3.3807,3.3807,3.3807,3.3807,3.3842,3.4049,3.4386,3.4293,3.4293,3.4454,3.4454,3.4693,3.5207,3.5207,3.5239,3.533,3.533,3.5393,3.5501,3.5501,3.5547,3.5604,3.5607,3.565,3.5715,3.5713,3.571,3.5733,3.5872,3.5914,3.5924,3.5965,3.5987,3.5996,3.5996,3.5996,3.5991,3.5991,3.5873,3.5755,3.5872,3.5812,3.5751,3.587,3.5313,3.4514,3.3754,3.3481,3.3551,3.4105,3.4314,3.4419,3.4462,3.5174,3.5768,3.5718,3.5592,3.5282,3.4526,3.4293,3.3722,3.2318,3.2608,3.2357,3.0714,3.0436,3.0763,3.1754,3.095,3.0276,3.0079,3.0094,3.006,2.9946,2.9981,2.9981,2.9965,2.9891,2.9926,3.0049,2.9808,2.9806,3.0071,3.1578,3.1388,2.972,3.0603,3.0528,2.972,2.9806,2.9458,2.8834,2.9751,2.9532,2.8698,2.983,3.0311,3.0279,2.9589,2.8869,2.8225,2.8397,2.9871,3.0814,3.0568,2.9805,2.9003,2.8464,3.0398,3.1393,2.9849,3.1329,3.283,3.3707,3.3807,3.3807,3.3807,3.3807,3.3807,3.3807,3.3807,3.3868,3.4049,3.3998,3.4074,3.4269,3.4245,3.439,3.4753,3.4793,3.487,3.4962,3.4962,3.5069,3.5273,3.5273,3.5379,3.5534,3.5528,3.5581,3.5639,3.5591,3.5611,3.5646,3.5706,3.5721,3.5742,3.5885,3.5912,3.5907,3.5962,3.6009,3.5993,3.5993,3.5976,3.5957,3.5957,3.5936,3.5912,3.5953,3.5695,3.5337,3.4947,3.4845,3.4953,3.5305,3.5383,3.535,3.5307,3.5587,3.5853,3.5826,3.5799,3.5682,3.53,3.5242,3.4827,3.365,3.3351,3.2559,3.0679,3.2135,3.3005,3.2232,3.2218,3.19,3.1052,3.106,3.1241,3.1552,3.1168,3.1149,3.1539,3.1536,3.1306,3.0887,3.0772,3.0515,3.0182,3.1856,3.1962,3.0693,3.2053,3.2205,3.1374,3.1439,3.0975,3.0198,3.0729,3.0314,2.937,2.9601,2.9725,2.9689,2.8839,2.8634,2.8578]},{"header":{"parameterUnit":"m.s-1","parameterCategory":1,"la1":30.6,"la2":28.766,"lo1":-90.7593,"lo2":-88.6598,"dy":0.0162,"dx":0.0183,"nx":116,"ny":114,"refTime":"2023-05-13T06:00:00:Z","depth":0,"parameterNumber":3,"parameterNumberName":"V-component_of_WINDS"},"data":[0.0,0.0,0.0,0.0,0.0,0.0,0.0,0.0,0.0,0.0,0.0,0.0,0.0,0.0,0.0,0.0,0.0,0.0,0.0,0.0,0.0,0.0,0.0,0.0,0.0,0.0,0.0,0.0,0.0,0.0,0.0,0.0,0.0,0.0,0.0,0.0,0.0,0.0,0.0,0.0,0.0,0.0,0.0,0.0,0.0,0.0,0.0,0.0,0.0,0.0,0.0,0.0,0.0,0.0,0.0,0.0,0.0,0.0,0.0,0.0,0.0,0.0,0.0,0.0,0.0,0.0,0.0,0.0,0.0,0.0,0.0,0.0,0.0,0.0,0.0,0.0,0.0,0.0,0.0,0.0,0.0,0.0,0.0,0.0,0.0,0.0,0.0,0.0,0.0,0.0,0.0,0.0,0.0,0.0,0.0,0.0,0.0,0.0,0.0,0.0,0.0,0.0,0.0,0.0,0.0,0.0,0.0,0.0,0.0,0.0,0.0,0.0,0.0,0.0,0.0,0.0,0.0,0.0,0.0,0.0,0.0,0.0,0.0,0.0,0.0,0.0,0.0,0.0,0.0,0.0,0.0,0.0,0.0,0.0,0.0,0.0,0.0,0.0,0.0,0.0,0.0,0.0,0.0,0.0,0.0,0.0,0.0,0.0,0.0,0.0,0.0,0.0,0.0,0.0,0.0,0.0,0.0,0.0,0.0,0.0,0.0,0.0,0.0,0.0,0.0,0.0,0.0,0.0,0.0,0.0,0.0,0.0,0.0,0.0,0.0,0.0,0.0,0.0,0.0,0.0,0.0,0.0,0.0,0.0,0.0,0.0,0.0,0.0,0.0,0.0,0.0,0.0,0.0,0.0,0.0,0.0,0.0,0.0,0.0,0.0,0.0,0.0,0.0,0.0,0.0,0.0,0.0,0.0,0.0,0.0,0.0,0.0,0.0,0.0,0.0,0.0,0.0,0.0,0.0,0.0,0.0,0.0,0.0,0.0,0.0,0.0,0.0,0.0,0.0,0.0,0.0,0.0,0.0,0.0,0.0,0.0,0.0,0.0,0.0,0.0,0.0,0.0,0.0,0.0,0.0,0.0,0.0,0.0,0.0,0.0,0.0,0.0,0.0,0.0,0.0,0.0,0.0,0.0,0.0,0.0,0.0,0.0,0.0,0.0,0.0,0.0,0.0,0.0,0.0,0.0,0.0,0.0,0.0,0.0,0.0,0.0,0.0,0.0,0.0,0.0,0.0,0.0,0.0,0.0,0.0,0.0,0.0,0.0,0.0,0.0,0.0,0.0,0.0,0.0,0.0,0.0,0.0,0.0,0.0,0.0,0.0,0.0,0.0,0.0,0.0,0.0,0.0,0.0,0.0,0.0,0.0,0.0,0.0,0.0,0.0,0.0,0.0,0.0,0.0,0.0,0.0,0.0,0.0,0.0,0.0,0.0,0.0,0.0,0.0,0.0,0.0,0.0,0.0,0.0,0.0,0.0,0.0,0.0,0.0,0.0,0.0,0.0,0.0,0.0,0.0,0.0,0.0,0.0,0.0,0.0,0.0,0.0,0.0,0.0,0.0,0.0,0.0,0.0,0.0,0.0,0.0,0.0,0.0,0.0,0.0,0.0,0.0,0.0,0.0,0.0,0.0,0.0,0.0,0.0,0.0,0.0,0.0,0.0,0.0,0.0,0.0,0.0,0.0,0.0,0.0,0.0,0.0,0.0,0.0,0.0,0.0,0.0,0.0,0.0,0.0,0.0,0.0,0.0,0.0,0.0,0.0,0.0,0.0,0.0,0.0,0.0,0.0,0.0,0.0,0.0,0.0,0.0,0.0,0.0,0.0,0.0,0.0,0.0,0.0,0.0,0.0,0.0,0.0,0.0,0.0,0.0,0.0,0.0,0.0,0.0,0.0,0.0,0.0,0.0,0.0,0.0,0.0,0.0,0.0,0.0,0.0,0.0,0.0,0.0,0.0,0.0,0.0,0.0,0.0,0.0,0.0,0.0,0.0,0.0,0.0,0.0,0.0,0.0,0.0,0.0,0.0,0.0,0.0,0.0,0.0,0.0,0.0,0.0,0.0,0.0,0.0,0.0,0.0,0.0,0.0,0.0,0.0,0.0,0.0,0.0,0.0,0.0,0.0,0.0,0.0,0.0,0.0,0.0,0.0,0.0,0.0,0.0,0.0,0.0,0.0,0.0,0.0,0.0,0.0,0.0,0.0,0.0,0.0,0.0,0.0,0.0,0.0,0.0,0.0,0.0,0.0,0.0,0.0,0.0,0.0,0.0,0.0,0.0,0.0,0.0,0.0,0.0,0.0,0.0,0.0,0.0,0.0,0.0,0.0,0.0,0.0,0.0,0.0,0.0,0.0,0.0,0.0,0.0,0.0,0.0,0.0,0.0,0.0,0.0,0.0,0.0,0.0,0.0,0.0,0.0,0.0,0.0,0.0,0.0,0.0,0.0,0.0,0.0,0.0,0.0,0.0,0.0,0.0,0.0,0.0,0.0,0.0,0.0,0.0,0.0,0.0,0.0,0.0,0.0,0.0,0.0,0.0,0.0,0.0,0.0,0.0,0.0,0.0,0.0,0.0,0.0,0.0,0.0,0.0,0.0,0.0,0.0,0.0,0.0,0.0,0.0,0.0,0.0,0.0,0.0,0.0,0.0,0.0,0.0,0.0,0.0,0.0,0.0,0.0,0.0,0.0,0.0,0.0,0.0,0.0,0.0,0.0,0.0,0.0,0.0,0.0,0.0,0.0,0.0,0.0,0.0,0.0,0.0,0.0,0.0,0.0,0.0,0.0,0.0,0.0,0.0,0.0,0.0,0.0,0.0,0.0,0.0,0.0,0.0,0.0,0.0,0.0,0.0,0.0,0.0,0.0,0.0,0.0,0.0,0.0,0.0,0.0,0.0,0.0,0.0,0.0,0.0,0.0,0.0,0.0,0.0,0.0,0.0,0.0,0.0,0.0,0.0,0.0,0.0,0.0,0.0,0.0,0.0,0.0,0.0,0.0,0.0,0.0,0.0,0.0,0.0,0.0,0.0,0.0,0.0,0.0,0.0,0.0,0.0,0.0,0.0,0.0,0.0,0.0,0.0,0.0,0.0,0.0,0.0,0.0,0.0,0.0,0.0,0.0,0.0,0.0,0.0,0.0,0.0,0.0,0.0,0.0,0.0,0.0,0.0,0.0,0.0,0.0,0.0,0.0,0.0,0.0,0.0,0.0,0.0,0.0,0.0,0.0,0.0,0.0,0.0,0.0,0.0,0.0,0.0,0.0,0.0,0.0,0.0,0.0,0.0,0.0,0.0,0.0,0.0,0.0,0.0,0.0,0.0,0.0,0.0,0.0,0.0,0.0,0.0,0.0,0.0,0.0,0.0,0.0,0.0,0.0,0.0,0.0,0.0,0.0,0.0,0.0,0.0,0.0,0.0,0.0,0.0,0.0,0.0,0.0,0.0,0.0,0.0,0.0,0.0,0.0,0.0,0.0,0.0,0.0,0.0,0.0,0.0,0.0,0.0,0.0,0.0,0.0,0.0,0.0,0.0,0.0,0.0,0.0,0.0,0.0,0.0,0.0,0.0,0.0,0.0,0.0,0.0,0.0,0.0,0.0,0.0,0.0,0.0,0.0,0.0,0.0,0.0,0.0,0.0,0.0,0.0,0.0,0.0,0.0,0.0,0.0,0.0,0.0,0.0,0.0,0.0,0.0,0.0,0.0,0.0,0.0,0.0,0.0,0.0,0.0,0.0,0.0,0.0,0.0,0.0,0.0,0.0,0.0,0.0,0.0,0.0,0.0,0.0,0.0,0.0,0.0,0.0,0.0,0.0,0.0,0.0,0.0,0.0,0.0,0.0,0.0,0.0,0.0,0.0,0.0,0.0,0.0,0.0,0.0,0.0,0.0,0.0,0.0,0.0,0.0,0.0,0.0,0.0,0.0,0.0,0.0,0.0,0.0,0.0,0.0,0.0,0.0,0.0,0.0,0.0,0.0,0.0,0.0,0.0,0.0,0.0,0.0,0.0,0.0,0.0,0.0,0.0,0.0,0.0,0.0,0.0,0.0,0.0,0.0,0.0,0.0,0.0,0.0,0.0,0.0,0.0,0.0,0.0,0.0,0.0,0.0,0.0,0.0,0.0,0.0,0.0,0.0,0.0,0.0,0.0,0.0,0.0,0.0,0.0,0.0,0.0,0.0,0.0,0.0,0.0,0.0,0.0,0.0,0.0,0.0,0.0,0.0,0.0,0.0,0.0,0.0,0.0,0.0,0.0,0.0,0.0,0.0,0.0,0.0,0.0,0.0,0.0,0.0,0.0,0.0,0.0,0.0,0.0,0.0,0.0,0.0,0.0,0.0,0.0,0.0,0.0,0.0,0.0,0.0,0.0,0.0,0.0,0.0,0.0,0.0,0.0,0.0,0.0,0.0,0.0,0.0,0.0,0.0,0.0,0.0,0.0,0.0,0.0,0.0,0.0,0.0,0.0,0.0,0.0,0.0,0.0,0.0,0.0,0.0,0.0,0.0,0.0,0.0,0.0,0.0,0.0,0.0,0.0,0.0,0.0,0.0,0.0,0.0,0.0,0.0,0.0,0.0,0.0,0.0,0.0,0.0,0.0,0.0,0.0,0.0,0.0,0.0,0.0,0.0,0.0,0.0,0.0,0.0,0.0,0.0,0.0,0.0,0.0,0.0,0.0,0.0,0.0,0.0,0.0,0.0,0.0,0.0,0.0,0.0,0.0,0.0,0.0,0.0,0.0,0.0,0.0,0.0,0.0,0.0,0.0,0.0,0.0,0.0,0.0,0.0,0.0,0.0,0.0,0.0,0.0,0.0,0.0,0.0,0.0,0.0,0.0,0.0,0.0,0.0,0.0,0.0,0.0,0.0,0.0,0.0,0.0,0.0,0.0,0.0,0.0,0.0,0.0,0.0,0.0,0.0,0.0,0.0,0.0,0.0,0.0,0.0,0.0,0.0,0.0,0.0,0.0,0.0,0.0,0.0,0.0,0.0,0.0,0.0,0.0,0.0,0.0,0.0,0.0,0.0,0.0,0.0,0.0,0.0,0.0,0.0,0.0,0.0,0.0,0.0,0.0,0.0,0.0,0.0,0.0,0.0,0.0,0.0,0.0,0.0,0.0,0.0,0.0,0.0,0.0,0.0,0.0,0.0,0.0,0.0,0.0,0.0,0.0,0.0,0.0,0.0,0.0,0.0,0.0,0.0,0.0,0.0,0.0,0.0,0.0,0.0,0.0,0.0,0.0,0.0,0.0,0.0,0.0,0.0,0.0,0.0,0.0,0.0,0.0,0.0,0.0,0.0,0.0,0.0,0.0,0.0,0.0,0.0,0.0,0.0,0.0,0.0,0.0,0.0,0.0,0.0,0.0,0.0,0.0,0.0,0.0,0.0,0.0,0.0,0.0,0.0,0.0,0.0,0.0,0.0,0.0,0.0,0.0,0.0,0.0,0.0,0.0,0.0,0.0,0.0,0.0,0.0,0.0,0.0,0.0,0.0,0.0,0.0,0.0,0.0,0.0,0.0,0.0,0.0,0.0,0.0,0.0,0.0,0.0,0.0,0.0,0.0,0.0,0.0,0.0,0.0,0.0,0.0,0.0,0.0,0.0,0.0,0.0,0.0,0.0,0.0,0.0,0.0,0.0,0.0,0.0,0.0,0.0,0.0,0.0,0.0,0.0,0.0,0.0,0.0,0.0,0.0,0.0,0.0,0.0,0.0,0.0,0.0,0.0,0.0,0.0,0.0,0.0,0.0,0.0,0.0,0.0,0.0,0.0,0.0,0.0,0.0,0.0,0.0,0.0,0.0,0.0,0.0,0.0,0.0,0.0,0.0,0.0,0.0,0.0,0.0,0.0,0.0,0.0,0.0,0.0,0.0,0.0,0.0,0.0,0.0,0.0,0.0,0.0,0.0,0.0,0.0,0.0,0.0,0.0,0.0,0.0,0.0,0.0,0.0,0.0,0.0,0.0,0.0,0.0,0.0,0.0,0.0,0.0,0.0,0.0,0.0,0.0,0.0,0.0,0.0,0.0,0.0,0.0,0.0,0.0,0.0,0.0,0.0,0.0,0.0,0.0,0.0,0.0,-1.8646,0.0,0.0,0.0,0.0,0.0,0.0,0.0,0.0,0.0,0.0,0.0,0.0,0.0,0.0,0.0,0.0,0.0,0.0,0.0,0.0,0.0,0.0,0.0,0.0,0.0,0.0,0.0,0.0,0.0,0.0,0.0,0.0,0.0,0.0,0.0,0.0,0.0,0.0,0.0,-1.7297,-1.7722,-1.7936,-1.7744,-1.7559,-1.7483,0.0,0.0,0.0,0.0,0.0,0.0,0.0,0.0,0.0,0.0,0.0,0.0,0.0,0.0,0.0,0.0,0.0,0.0,0.0,0.0,0.0,0.0,0.0,0.0,0.0,0.0,0.0,0.0,0.0,0.0,0.0,0.0,0.0,0.0,0.0,0.0,0.0,0.0,0.0,0.0,0.0,0.0,0.0,0.0,0.0,0.0,0.0,0.0,0.0,0.0,0.0,0.0,0.0,0.0,0.0,0.0,0.0,0.0,0.0,0.0,0.0,0.0,0.0,0.0,0.0,0.0,0.0,0.0,0.0,0.0,0.0,-1.875,0.0,0.0,0.0,0.0,0.0,0.0,0.0,0.0,0.0,0.0,0.0,0.0,0.0,0.0,0.0,0.0,0.0,0.0,0.0,0.0,0.0,0.0,0.0,0.0,-1.7401,-1.7197,-1.7361,-1.7451,0.0,0.0,0.0,0.0,0.0,0.0,0.0,-1.7314,-1.7198,-1.7175,-1.7733,-1.8422,-1.9226,-1.8773,-1.8338,-1.7915,-1.8715,0.0,0.0,0.0,0.0,0.0,0.0,0.0,0.0,0.0,0.0,0.0,0.0,0.0,0.0,0.0,0.0,0.0,0.0,0.0,0.0,0.0,0.0,0.0,0.0,0.0,0.0,0.0,0.0,0.0,0.0,0.0,0.0,0.0,0.0,0.0,0.0,0.0,0.0,0.0,0.0,0.0,0.0,0.0,0.0,0.0,0.0,0.0,0.0,0.0,0.0,0.0,0.0,0.0,0.0,0.0,0.0,0.0,0.0,0.0,0.0,0.0,0.0,0.0,-1.9154,-1.9319,-2.0321,-1.948,-1.9256,-1.9554,-1.9195,-1.8726,-1.8299,-1.9118,0.0,0.0,0.0,0.0,0.0,0.0,0.0,0.0,0.0,0.0,0.0,0.0,0.0,0.0,0.0,0.0,0.0,0.0,0.0,0.0,0.0,-1.6964,-1.72,-1.6664,-1.7306,-1.7743,-1.7726,0.0,0.0,0.0,0.0,0.0,0.0,-1.7432,-1.7502,-1.7973,-1.8547,-1.918,-1.9803,-2.0775,-2.085,-2.0182,-1.9086,-1.8531,-1.8561,0.0,0.0,0.0,0.0,0.0,0.0,0.0,0.0,0.0,0.0,0.0,0.0,0.0,0.0,0.0,0.0,0.0,0.0,0.0,0.0,0.0,0.0,0.0,0.0,0.0,0.0,0.0,0.0,0.0,0.0,0.0,0.0,0.0,0.0,0.0,0.0,0.0,0.0,0.0,0.0,0.0,-1.9125,-1.8248,0.0,0.0,0.0,0.0,0.0,0.0,0.0,0.0,0.0,0.0,0.0,0.0,0.0,-1.9978,-2.0187,-2.0594,-2.1057,-2.1588,-2.1255,-2.1491,-2.221,-2.1393,-2.1139,-2.1295,-2.0583,0.0,-1.9302,-1.9424,0.0,0.0,0.0,0.0,0.0,0.0,0.0,0.0,0.0,0.0,0.0,0.0,0.0,0.0,0.0,0.0,0.0,0.0,0.0,0.0,0.0,-1.7532,-1.7711,-1.7678,-1.828,-1.8416,-1.7743,-1.8147,0.0,0.0,0.0,-1.7361,-1.7408,-1.7483,-1.8059,-1.9092,-1.9265,-1.9995,-2.1311,-2.1802,-2.2046,-2.2102,-2.1527,-2.0455,-1.9155,-2.0466,0.0,0.0,0.0,0.0,0.0,0.0,0.0,0.0,0.0,0.0,0.0,0.0,0.0,0.0,0.0,0.0,0.0,0.0,0.0,0.0,0.0,0.0,0.0,0.0,0.0,0.0,0.0,0.0,0.0,0.0,0.0,0.0,0.0,0.0,0.0,0.0,0.0,0.0,0.0,-1.9251,-1.8754,-1.8439,-1.8274,-1.8042,0.0,0.0,0.0,0.0,0.0,0.0,0.0,0.0,0.0,-2.0147,-2.1119,-2.144,-2.1101,-2.1505,-2.2014,-2.256,-2.2466,-2.2738,-2.3309,-2.3044,-2.2776,-2.2537,-2.2519,-2.1917,-2.0848,-2.0161,-1.9642,-1.9358,0.0,0.0,0.0,0.0,-2.0384,-2.065,0.0,0.0,0.0,0.0,0.0,0.0,0.0,0.0,0.0,0.0,0.0,0.0,-1.7855,-1.8219,-1.8454,-1.8556,-1.917,-1.9106,-1.8119,-1.872,0.0,0.0,0.0,-1.7609,-1.7494,-1.8071,-1.8935,-2.0089,-2.0199,-2.1208,-2.2947,-2.301,-2.329,-2.3716,-2.3953,-2.2625,-2.0309,-2.1437,-2.1371,-2.0551,0.0,0.0,0.0,0.0,0.0,0.0,0.0,0.0,0.0,0.0,0.0,0.0,0.0,0.0,0.0,0.0,0.0,0.0,0.0,0.0,0.0,0.0,0.0,0.0,0.0,0.0,0.0,0.0,0.0,0.0,0.0,0.0,0.0,0.0,0.0,0.0,0.0,-1.9294,-1.8965,-1.8574,-1.8663,-1.847,0.0,0.0,0.0,0.0,0.0,0.0,-2.042,-2.124,-2.1643,-2.1532,-2.2587,-2.2884,-2.2315,-2.2829,-2.3403,-2.3975,-2.4026,-2.4299,-2.4815,-2.4768,-2.4523,-2.4121,-2.4285,-2.3775,-2.2678,-2.1415,-2.0343,-1.953,-2.0093,-2.0196,-2.0115,-2.0696,-2.1299,-2.1805,0.0,0.0,0.0,0.0,0.0,0.0,0.0,0.0,0.0,0.0,0.0,-1.7674,-1.7887,-1.8935,-1.9293,-1.8558,-1.9337,-1.9715,-1.9345,-1.935,-1.9204,-1.8853,-1.865,-1.8527,-1.851,-1.9669,-2.0373,-2.0565,-2.1632,-2.2934,-2.4402,-2.4902,-2.515,-2.5132,-2.5619,-2.4476,-2.2127,-2.1959,-2.1454,-2.0797,-2.0895,0.0,0.0,0.0,0.0,0.0,0.0,0.0,0.0,0.0,0.0,0.0,0.0,0.0,0.0,0.0,0.0,0.0,0.0,0.0,0.0,0.0,0.0,0.0,0.0,0.0,0.0,0.0,0.0,0.0,0.0,0.0,0.0,0.0,0.0,0.0,0.0,0.0,0.0,-1.8004,-1.835,0.0,0.0,0.0,0.0,-2.0219,-2.1269,-2.2055,-2.2509,-2.236,-2.2377,-2.267,-2.3441,-2.4075,-2.454,-2.526,-2.5868,-2.6409,-2.6503,-2.6823,-2.7414,-2.6769,-2.6496,-2.6477,-2.5472,-2.4981,-2.4747,-2.332,-2.2307,-2.1684,-2.1903,-2.2345,-2.2943,-2.3226,-2.3659,-2.4148,0.0,0.0,0.0,0.0,0.0,0.0,0.0,0.0,-1.6865,-1.6466,-1.7265,-1.827,-1.9311,-1.9597,-2.01,-2.1105,-2.0992,-2.0508,-1.9646,-1.9578,-1.9367,-1.887,-1.8437,-1.8563,-1.9374,-2.0025,-2.0998,-2.2354,-2.2996,-2.4268,-2.6115,-2.6199,-2.6688,-2.7462,-2.7657,-2.703,-2.5675,-2.3935,-2.2473,-2.1345,-2.1896,-2.1487,0.0,0.0,0.0,0.0,0.0,0.0,0.0,0.0,0.0,0.0,0.0,0.0,0.0,0.0,0.0,0.0,0.0,0.0,0.0,0.0,0.0,0.0,0.0,0.0,0.0,0.0,0.0,0.0,0.0,0.0,0.0,0.0,0.0,0.0,0.0,0.0,0.0,-2.0319,-2.1141,0.0,-2.0759,-2.1049,-2.1779,-2.2957,-2.3239,-2.3998,-2.543,-2.5296,-2.5474,-2.5991,-2.6183,-2.6587,-2.7287,-2.706,-2.7249,-2.7748,-2.741,-2.7328,-2.7475,-2.7712,-2.7626,-2.7371,-2.7765,-2.7501,-2.6726,-2.6644,-2.4761,-2.2019,-2.2366,-2.2411,-2.2443,-2.345,-2.4249,-2.4844,0.0,0.0,0.0,0.0,0.0,0.0,0.0,0.0,-1.7109,-1.6816,-1.7646,-1.8722,-2.002,-2.0339,-2.0918,-2.204,-2.1813,-2.1216,-2.024,-2.02,-1.9888,-1.9049,-1.8833,-1.9184,-2.014,-2.1019,-2.2283,-2.3984,-2.4634,-2.5783,-2.7378,-2.7491,-2.7992,-2.8793,-2.8737,-2.8448,-2.7926,-2.5944,-2.4206,-2.2712,-2.2739,-2.2349,-2.1787,0.0,0.0,0.0,0.0,0.0,0.0,0.0,0.0,0.0,0.0,0.0,0.0,0.0,0.0,0.0,0.0,0.0,0.0,0.0,0.0,0.0,0.0,0.0,0.0,0.0,0.0,0.0,0.0,0.0,0.0,0.0,0.0,0.0,0.0,0.0,-2.1786,-2.2287,-2.3319,-2.367,-2.2959,-2.3218,-2.3784,-2.4697,-2.5054,-2.5802,-2.7123,-2.7267,-2.7482,-2.7883,-2.8103,-2.8422,-2.8943,-2.8488,-2.8403,-2.8815,-2.8396,-2.8146,-2.8083,-2.857,-2.8598,-2.8297,-2.9275,-2.921,-2.8341,-2.8598,-2.684,-2.396,-2.4185,-2.4068,-2.3925,-2.4638,-2.5571,-2.6315,0.0,0.0,0.0,0.0,0.0,0.0,0.0,-1.7368,-1.7412,-1.8,-1.8451,-1.9045,-1.9889,-2.1189,-2.1759,-2.1143,-2.1674,-2.1766,-2.1142,-2.118,-2.0703,-1.9536,-1.9919,-2.0412,-2.0971,-2.2836,-2.4283,-2.5387,-2.6484,-2.7436,-2.816,-2.8712,-2.8978,-2.9007,-2.8853,-2.8797,-2.8753,-2.7948,-2.6674,-2.497,-2.3348,-2.3475,-2.4387,0.0,0.0,0.0,0.0,0.0,0.0,0.0,0.0,0.0,0.0,0.0,0.0,0.0,0.0,0.0,0.0,0.0,0.0,0.0,0.0,0.0,0.0,0.0,0.0,0.0,0.0,0.0,0.0,0.0,0.0,0.0,0.0,0.0,-2.1684,-2.292,-2.3792,-2.3832,-2.4797,-2.4961,-2.3919,-2.47,-2.5398,-2.5511,-2.6717,-2.748,-2.7431,-2.8064,-2.8284,-2.8203,-2.8966,-2.9451,-2.9489,-2.9506,-2.9562,-2.9654,-2.9519,-2.9418,-2.9307,-2.9307,-2.9307,-2.9337,-2.9963,-3.0028,-2.9609,-2.9175,-2.8472,-2.769,-2.7389,-2.7396,-2.7534,-2.6925,-2.7593,-2.8607,0.0,0.0,0.0,0.0,0.0,0.0,0.0,-1.7238,-1.7545,-1.7519,-1.8676,-2.0082,-2.161,-2.1789,-2.2164,-2.3068,-2.1967,-2.1063,-2.0605,-1.9941,-1.9489,-1.9373,-2.0586,-2.1744,-2.2832,-2.452,-2.5912,-2.7045,-2.7821,-2.8659,-2.9584,-2.9944,-3.0484,-3.1176,-3.1372,-3.1529,-3.1623,-3.0756,-3.0116,-2.945,-2.6747,-2.5033,-2.4189,0.0,0.0,0.0,0.0,0.0,0.0,0.0,0.0,0.0,0.0,0.0,0.0,0.0,0.0,0.0,0.0,0.0,0.0,0.0,0.0,0.0,0.0,0.0,0.0,0.0,0.0,0.0,0.0,0.0,0.0,0.0,0.0,-2.3367,-2.354,-2.4269,-2.527,-2.6658,-2.7484,-2.8061,-2.8211,-2.8177,-2.8702,-3.0091,-2.9714,-2.9909,-3.0935,-3.027,-3.0074,-3.0558,-2.9827,-2.9927,-3.0932,-3.0015,-3.0,-3.083,-2.9802,-2.9525,-2.9805,-2.9835,-2.9906,-2.9935,-3.0584,-3.0819,-3.08,-3.078,-3.0539,-2.9963,-2.7709,-2.702,-2.7303,-2.7119,-2.7829,-2.8905,0.0,0.0,0.0,0.0,0.0,0.0,0.0,-1.6963,-1.7292,-1.74,-1.8727,-2.0194,-2.1587,-2.178,-2.2133,-2.2949,-2.1727,-2.0709,-2.0289,-1.9451,-1.9421,-2.0428,-2.1711,-2.3068,-2.4534,-2.5952,-2.7166,-2.8184,-2.8768,-2.9522,-3.0411,-3.0804,-3.1431,-3.2196,-3.2402,-3.2591,-3.2625,-3.2106,-3.1946,-3.1772,-2.9929,-2.8443,-2.7231,-2.6599,-2.6019,-2.5439,-2.486,-2.436,-2.3861,-2.3189,0.0,0.0,0.0,0.0,0.0,0.0,0.0,0.0,0.0,0.0,0.0,0.0,0.0,0.0,0.0,0.0,0.0,0.0,0.0,0.0,0.0,0.0,0.0,0.0,-2.5878,-2.6849,-2.7269,-2.7253,-2.7682,-2.9012,-2.9957,-3.0583,-3.0637,-3.0392,-3.061,-3.1557,-3.0934,-3.0876,-3.1505,-3.1375,-3.1464,-3.1914,-3.1471,-3.1516,-3.2347,-3.1273,-3.1096,-3.1767,-3.0654,-3.0285,-3.0541,-3.0556,-3.0628,-3.0643,-3.1071,-3.1409,-3.1582,-3.1739,-3.1571,0.0,0.0,0.0,0.0,0.0,-2.7968,-2.7998,0.0,0.0,0.0,0.0,0.0,0.0,0.0,-1.6749,-1.6984,-1.772,-1.8865,-1.9954,-2.078,-2.1428,-2.1757,-2.1598,-2.1023,-2.0508,-2.0078,-1.9584,-2.0177,-2.2156,-2.3088,-2.4405,-2.6221,-2.7335,-2.8361,-2.9287,-2.974,-3.0337,-3.1158,-3.1544,-3.2092,-3.2794,-3.2867,-3.2846,-3.2832,-3.2846,-3.2846,-3.2832,-3.2774,-3.2329,-3.1465,-2.8763,-2.853,-2.9365,-2.7359,-2.5963,-2.5045,-2.5139,0.0,0.0,0.0,0.0,0.0,0.0,0.0,0.0,0.0,0.0,0.0,0.0,0.0,0.0,0.0,0.0,0.0,0.0,0.0,0.0,0.0,0.0,0.0,0.0,-2.8813,-3.068,-3.1944,-3.1332,-3.0839,-3.1043,-3.2109,-3.2482,-3.1809,-3.1755,-3.1652,-3.1159,-3.1158,-3.1084,-3.0746,0.0,0.0,0.0,0.0,-3.3499,-3.3499,-3.281,-3.2496,-3.2661,-3.1812,-3.1441,-3.15,-3.1352,-3.1278,-3.1336,-3.1437,-3.1682,-3.1996,-3.2135,-3.1888,-3.1473,-3.1402,-3.0818,-2.9876,-2.947,-2.8247,-2.6976,0.0,0.0,0.0,0.0,0.0,0.0,0.0,-1.744,-1.7812,-1.8974,-1.9915,-2.0806,-2.1732,-2.1417,-2.1098,-2.0836,-1.9894,-1.9447,-1.9815,-2.0254,-2.1235,-2.2971,-2.4429,-2.6217,-2.8412,-2.9317,-3.0401,-3.1647,-3.1826,-3.2407,-3.3416,-3.3229,-3.3688,-3.4676,-3.4926,-3.5078,-3.4996,-3.5083,-3.5015,-3.4777,-3.4423,-3.3173,-3.1515,-3.0889,-3.0294,-2.9664,-2.9437,-2.8951,-2.8384,-2.7958,-2.692,-2.562,-2.458,-2.3061,0.0,0.0,0.0,0.0,0.0,0.0,0.0,0.0,0.0,0.0,0.0,0.0,0.0,0.0,0.0,0.0,0.0,0.0,0.0,-3.0291,-3.1955,-3.3529,-3.5179,-3.5237,-3.4696,-3.3645,-3.3349,-3.3186,-3.3213,-3.2792,-3.251,-3.2581,-3.2139,-3.2131,-3.2749,-3.3093,-3.3249,-3.33,-3.3423,-3.3499,-3.3499,-3.338,-3.3436,-3.388,0.0,0.0,-3.2653,-3.1604,-3.1234,-3.1437,-3.1495,-3.1682,-3.2053,-3.2247,-3.2145,-3.1748,-3.0588,-2.9897,-2.958,-3.0211,-2.9918,-2.9261,0.0,0.0,0.0,0.0,0.0,0.0,0.0,-1.6913,-1.7236,-1.7716,-1.8967,-1.9965,-2.0445,-2.0344,-2.0134,-1.9829,-1.9057,-1.9028,-2.0034,-2.0637,-2.2061,-2.4526,-2.5792,-2.748,-2.9674,-3.0409,-3.1353,-3.2384,-3.2449,-3.2961,-3.3833,-3.3587,-3.3937,-3.4831,-3.4952,-3.5205,-3.5467,-3.5205,-3.5179,-3.5412,-3.515,-3.4234,-3.2933,-3.2664,-3.228,-3.1833,-3.1594,-3.0807,-2.9864,-3.0015,-2.8742,-2.6947,-2.6009,-2.458,-2.305,0.0,0.0,0.0,0.0,0.0,0.0,0.0,0.0,0.0,0.0,0.0,0.0,0.0,0.0,-2.7189,0.0,0.0,-3.1958,-3.3153,-3.4821,-3.6178,-3.6879,-3.6881,-3.6153,-3.4265,-3.42,-3.4016,-3.3241,-3.3167,-3.3195,-3.3129,-3.3085,-3.3454,-3.4312,-3.4639,-3.4853,-3.5011,-3.4996,-3.4831,-3.4502,-3.408,-3.4017,-3.433,-3.3315,-3.2839,-3.2855,-3.2332,-3.1955,-3.1739,-3.1894,-3.2064,-3.216,-3.2153,-3.208,-3.1903,-3.0407,-2.9713,-2.9599,-2.9744,-2.9541,-2.9244,0.0,0.0,0.0,0.0,0.0,0.0,0.0,-1.6345,-1.6636,-1.638,-1.7833,-1.8943,-1.8986,-1.9219,-1.917,-1.8711,-1.8387,-1.8887,-2.0423,-2.1218,-2.3022,-2.609,-2.7173,-2.8641,-3.0582,-3.1157,-3.1931,-3.289,-3.2825,-3.326,-3.4069,-3.3835,-3.4118,-3.4913,-3.4913,-3.5277,-3.5776,-3.5256,-3.5328,-3.5735,-3.5703,-3.5198,-3.4545,-3.4207,-3.4126,-3.4065,-3.3309,-3.1944,-3.0623,-3.1404,-2.9856,-2.7591,-2.7393,-2.6262,-2.4661,-2.3092,-2.2635,0.0,0.0,0.0,0.0,0.0,0.0,0.0,0.0,0.0,-2.5576,-2.7096,-2.8748,-3.0243,-3.1065,-3.3216,-3.5006,-3.5466,-3.7129,-3.8246,-3.7828,-3.7589,-3.6753,-3.4548,-3.491,-3.4762,-3.3325,-3.3578,-3.3723,-3.3536,-3.397,-3.4669,-3.5638,-3.602,-3.632,-3.6656,-3.6417,-3.6103,-3.5699,-3.4882,-3.4539,-3.4666,-3.3961,-3.3471,-3.3155,-3.3089,-3.281,-3.2348,-3.2419,-3.2453,-3.2461,-3.1942,-3.1836,-3.1883,-3.0323,-2.9806,-2.9853,-2.9183,-2.8886,-2.8774,0.0,0.0,0.0,0.0,0.0,0.0,0.0,0.0,-1.7426,-1.7278,-1.8272,-1.9068,-1.9307,-1.9057,-1.8485,-1.7568,-1.7764,-1.8809,-2.0896,-2.2651,-2.465,-2.694,-2.8426,-3.0007,-3.179,-3.1904,-3.2665,-3.4196,-3.3994,-3.4448,-3.5497,-3.4641,-3.5142,-3.6645,-3.6645,-3.6872,-3.7375,-3.7492,-3.7317,-3.7056,-3.6648,-3.6008,-3.531,-3.5458,-3.5198,-3.4669,-3.3461,-3.23,-3.1455,-3.2154,-3.063,-2.8689,-2.9952,-2.8598,-2.6191,-2.4417,-2.3056,-2.2057,-2.1518,-2.1778,-2.2751,-2.4954,-2.449,-2.4822,0.0,0.0,-2.9674,-3.1429,-3.2657,-3.3335,-3.3216,-3.4958,-3.6646,-3.7308,-3.8307,-3.8855,-3.8487,-3.7901,-3.7143,-3.5913,-3.569,-3.5405,-3.4854,-3.4437,-3.4272,-3.4474,-3.4668,-3.5418,-3.7118,-3.6558,-3.6514,-3.7285,-3.6207,-3.5863,-3.6372,-3.5714,-3.5385,-3.5385,-3.5012,-3.4773,-3.4713,-3.3632,-3.3284,-3.346,-3.2857,-3.2648,-3.278,-3.1836,-3.161,-3.168,-3.0088,-2.9867,-3.0417,-2.9785,-2.9438,-2.9354,0.0,0.0,0.0,0.0,0.0,0.0,0.0,0.0,0.0,-1.6976,-1.776,-1.8356,-1.8475,-1.8241,-1.79,-1.7401,-1.7843,-1.9037,-2.1157,-2.2547,-2.4597,-2.7455,-2.8523,-3.0028,-3.2263,-3.232,-3.3006,-3.4414,-3.4346,-3.4477,-3.4957,-3.4077,-3.4366,-3.5424,-3.4965,-3.5568,-3.6981,-3.6721,-3.6967,-3.7492,-3.7417,-3.6599,-3.5507,-3.5292,-3.4242,-3.2697,-3.2075,-3.0982,0.0,-2.9684,-2.9207,-2.8478,-2.7931,-2.7334,-2.6347,-2.3907,-2.3603,0.0,-2.3998,-2.4447,-2.5122,0.0,-2.6999,-2.8372,-3.0779,-3.1172,-3.1449,-3.3004,-3.4197,-3.5009,-3.5322,-3.664,-3.7811,0.0,-3.8781,-3.9177,-3.8885,-3.8411,-3.7689,-3.6572,-3.6023,-3.5344,-3.4405,-3.4654,-3.4913,-3.5039,-3.5525,-3.6453,-3.7943,-3.7471,-3.7386,-3.7778,-3.7396,-3.712,-3.703,-3.6828,-3.6827,-3.6944,-3.6394,-3.5991,-3.569,-3.4451,-3.3583,-3.3051,-3.2647,-3.2578,-3.2656,-3.1851,-3.161,-3.1659,-3.0608,-3.0406,-3.0565,-2.936,-2.9123,-2.935,0.0,0.0,0.0,0.0,0.0,0.0,0.0,0.0,0.0,0.0,-1.7337,-1.7789,-1.7811,-1.7658,-1.7526,-1.7455,-1.782,-1.8904,-2.093,-2.1962,-2.3807,-2.687,-2.7923,-2.945,-3.1608,-3.1936,-3.2659,-3.3891,-3.3758,-3.3763,-3.3869,-3.3279,-3.341,-3.4226,-3.3677,-3.4482,-3.6413,-3.6185,-3.6529,-3.7316,-3.7794,-3.6796,-3.5005,-3.4368,-3.2537,-3.0182,-3.011,-2.9015,-2.7575,-2.7079,-2.7158,-2.7267,-2.6211,-2.6168,-2.6168,-2.4146,-2.4469,-2.5524,-2.5923,-2.6625,-2.7282,-2.7805,-2.9574,-3.1396,-3.2068,-3.2566,-3.3291,-3.4574,-3.5446,-3.62,-3.6878,-3.7549,-3.8127,-3.8402,-3.8882,-3.914,-3.8924,-3.8281,-3.7491,-3.6532,-3.5678,-3.481,-3.4018,-3.4654,-3.5267,-3.5581,-3.6268,-3.7164,-3.8475,-3.8014,-3.7942,-3.832,-3.8106,-3.7834,-3.7535,-3.7578,-3.7602,-3.754,-3.7268,-3.6819,-3.6228,-3.5045,-3.3748,-3.2523,-3.2453,-3.2453,-3.2492,-3.2052,-3.1942,-3.1986,-3.1337,-3.1197,-3.1212,-2.9642,-2.9357,-2.9682,0.0,0.0,0.0,0.0,0.0,0.0,0.0,0.0,0.0,0.0,0.0,0.0,0.0,-1.7618,-1.7526,-1.7589,-1.7492,-1.8222,-2.01,-2.0938,-2.2338,-2.4609,-2.663,-2.825,-2.9492,-3.0502,-3.1524,-3.2571,-3.204,-3.2075,-3.2656,-3.252,-3.2947,-3.391,-3.3896,-3.4637,-3.584,-3.6619,-3.6751,-3.6459,-3.7588,-3.632,-3.3659,-3.2653,-3.027,-2.7454,-2.7643,-2.6648,-2.5295,-2.5267,-2.4952,-2.4766,-2.615,-2.6146,-2.5728,-2.6158,-2.5814,-2.5504,-2.6444,-2.7381,-2.8736,-3.1122,-3.2088,-3.3021,-3.5082,-3.5484,-3.5744,-3.703,-3.697,-3.6893,-3.7556,-3.7343,-3.7425,-3.8491,-3.8717,-3.8662,-3.8467,-3.7261,-3.6186,-3.5514,-3.4256,-3.3704,0.0,-3.4506,-3.5095,-3.6365,-3.6548,-3.7227,-3.8694,-3.796,-3.7901,-3.8738,-3.7544,-3.7175,-3.778,-3.7526,-3.709,-3.6462,-3.717,-3.7153,-3.6445,-3.5254,-3.3877,-3.2398,-3.2398,-3.2398,-3.2382,-3.2508,-3.2547,-3.254,-3.2002,-3.2226,-3.2663,-3.1259,-3.0744,-3.0616,0.0,0.0,0.0,0.0,0.0,0.0,0.0,0.0,0.0,0.0,0.0,0.0,0.0,0.0,0.0,0.0,-1.7813,-1.8275,-1.9277,-2.0299,-2.1569,-2.3084,-2.4465,-2.6133,-2.8206,-2.8626,-2.9432,-3.0634,-3.0446,-3.0305,-3.0179,-3.005,-3.0459,-3.1332,-3.1205,-3.2189,-3.3945,-3.3847,-3.4378,-3.5185,-3.4581,-3.3372,-3.1703,-2.9852,-2.7505,-2.5077,0.0,-2.3764,-2.3047,-2.1885,-2.2216,-2.3103,-2.2823,-2.3205,-2.3864,-2.4614,-2.5116,-2.5869,-2.7751,-2.9939,-3.1983,-3.3261,-3.4385,-3.5325,-3.6064,-3.5919,-3.5653,-3.5604,-3.5253,-3.4911,-3.4683,-3.4896,-3.5489,-3.6663,-3.76,-3.8409,-3.9159,-3.8596,-3.7533,-3.5963,-3.5782,0.0,0.0,0.0,0.0,-3.7198,-3.7382,-3.7763,-3.8478,-3.8296,-3.8091,-3.8032,-3.7693,-3.7839,-3.8458,-3.7903,-3.7729,-3.8062,-3.7663,-3.6907,-3.5799,-3.495,-3.401,-3.3044,-3.2582,-3.2398,-3.2398,-3.2523,-3.2648,-3.2812,-3.267,-3.2892,-3.3102,-3.2615,-3.2442,-3.2269,0.0,0.0,0.0,0.0,0.0,0.0,0.0,0.0,0.0,0.0,0.0,0.0,0.0,0.0,0.0,0.0,0.0,-1.8062,-1.8587,-1.9216,-2.0046,-2.1126,-2.2182,-2.3785,-2.6054,-2.6061,-2.6804,-2.8268,-2.7655,-2.7409,-2.7442,-2.7319,-2.7601,-2.8292,-2.8372,-2.9295,-3.0729,-3.0498,-3.0758,-3.1264,-3.1068,-2.9869,-2.8095,-2.6777,-2.5062,0.0,-2.1873,-2.1548,-2.1584,-2.0492,-2.1,-2.1929,-2.1211,-2.2054,-2.3565,-2.473,-2.5961,-2.7566,-3.0474,-3.2634,-3.4289,-3.5026,-3.5947,-3.6634,-3.6237,-3.5904,-3.5431,-3.451,-3.4091,-3.3643,-3.2955,-3.2859,-3.3426,-3.5156,-3.5917,-3.6873,-3.8561,-3.8196,-3.7395,-3.6429,-3.6371,-3.5804,0.0,0.0,0.0,-3.7015,-3.7104,-3.7305,-3.7612,-3.7666,-3.7565,-3.7156,-3.7228,-3.7491,-3.7872,-3.7938,-3.8333,-3.907,-3.7763,-3.6553,-3.546,-3.4783,-3.3952,-3.3013,-3.2582,-3.2398,-3.2398,-3.2523,-3.2718,-3.2928,-3.3309,-3.3408,-3.3356,-3.3862,-3.3878,-3.3414,0.0,0.0,0.0,0.0,0.0,0.0,0.0,0.0,0.0,0.0,0.0,0.0,0.0,0.0,0.0,0.0,0.0,0.0,-1.8039,-1.7796,-1.8014,-1.891,-1.9995,-2.1356,-2.2981,-2.304,-2.3846,-2.5453,-2.3897,-2.3553,-2.4332,-2.4405,-2.4553,-2.4786,-2.5328,-2.5911,-2.6532,-2.685,-2.6288,-2.5369,-2.7246,-2.6115,-2.3304,-2.3563,-2.2959,-2.1706,-2.02,-2.0178,-2.0942,-2.1054,-2.1279,-2.1472,-2.1472,-2.2824,-2.4841,-2.6602,-2.8363,-3.0514,-3.4147,-3.5324,-3.5693,-3.6462,-3.6909,-3.6832,-3.5768,-3.5544,-3.516,-3.3864,-3.3358,-3.2982,0.0,0.0,-3.144,-3.4079,-3.3921,-3.4404,-3.6819,-3.6289,-3.5905,0.0,0.0,0.0,0.0,0.0,0.0,-3.5961,0.0,-3.6094,-3.6299,-3.633,-3.633,-3.6272,-3.6257,-3.6286,-3.6359,-3.7727,-3.878,-3.9385,-3.7461,-3.6168,-3.546,-3.4783,-3.3737,-3.2444,-3.2398,-3.2398,-3.2398,-3.2523,-3.2734,-3.3022,-3.3795,-3.3833,-3.3577,-3.4905,-3.4936,-3.42,0.0,0.0,0.0,0.0,0.0,0.0,0.0,0.0,0.0,0.0,0.0,0.0,0.0,0.0,0.0,0.0,0.0,0.0,-1.7695,-1.7831,-1.796,-1.8111,-1.8515,-1.936,-2.0624,-2.1147,-2.155,-2.1902,-2.2335,-2.1932,-2.0772,-2.1645,-2.1741,-2.1261,-2.2366,-2.3229,-2.3821,-2.4,-2.4563,-2.5224,-2.4508,-2.3762,-2.3009,-2.2169,-2.1443,-2.0841,-2.04,-2.0636,-2.1087,-2.1039,-2.2293,-2.38,-2.3669,-2.508,-2.7095,-2.8693,-3.0736,-3.2946,-3.52,-3.6892,-3.8152,-3.834,-3.7893,-3.7142,-3.6535,-3.4934,-3.3288,-3.2293,-3.1,-2.9855,0.0,0.0,0.0,-3.2607,-3.4373,0.0,-3.7709,-3.8333,0.0,-3.7212,0.0,-3.7461,-3.5903,-3.629,0.0,0.0,-3.6847,-3.6913,-3.605,-3.6662,-3.6606,-3.5633,-3.5604,-3.621,-3.746,-3.8317,-3.853,-3.8,-3.7492,-3.663,-3.546,-3.4783,-3.3983,-3.3121,-3.2613,-3.2398,-3.2398,-3.2453,-3.2927,-3.3646,-3.3873,-3.4321,-3.4905,-3.5268,-3.5498,-3.554,0.0,0.0,0.0,0.0,0.0,0.0,0.0,0.0,0.0,0.0,0.0,0.0,0.0,0.0,0.0,0.0,0.0,0.0,0.0,-1.7716,-1.7694,-1.7539,-1.7487,-1.7774,-1.8454,-1.8692,-1.8951,-1.9325,-1.9928,-1.9731,-1.8891,-1.9663,-1.9898,-1.9678,-2.034,-2.0975,-2.1578,-2.1486,-2.169,0.0,0.0,-2.1227,-2.0868,-2.0829,-2.0698,-2.0527,-2.0577,-2.1242,-2.2197,-2.276,-2.4038,-2.5512,-2.5828,-2.7348,-2.9396,-3.1321,-3.3243,-3.5199,-3.7278,-3.8749,-3.9665,-3.9269,-3.8341,-3.7223,-3.5913,-3.4373,-3.2524,-3.0464,-2.9453,-2.8475,-2.7042,-2.7589,-2.8856,0.0,0.0,0.0,-3.6975,-3.7867,-3.8235,0.0,-3.8705,0.0,-3.7237,-3.7617,-3.7548,0.0,-3.6537,-3.6241,-3.5717,-3.5933,-3.5706,-3.4965,-3.4951,-3.5839,-3.7708,-3.7963,-3.8141,-3.8369,-3.7184,-3.6215,-3.5445,-3.446,-3.3629,-3.2936,0.0,-3.2398,-3.2398,-3.2398,-3.2965,-3.3911,-3.4207,-3.4944,-3.5854,-3.6422,-3.6809,-3.697,0.0,0.0,0.0,0.0,0.0,0.0,0.0,0.0,0.0,0.0,-1.4241,-1.4257,0.0,0.0,0.0,0.0,0.0,0.0,0.0,0.0,-1.7337,-1.7216,-1.6841,-1.6649,-1.6759,-1.6491,-1.6774,-1.7635,-1.7644,-1.7806,-1.8104,-1.8355,-1.8627,-1.8943,-1.885,-1.9142,-1.9683,-1.95,-1.8955,-1.8288,-1.9385,-1.9277,-1.8573,0.0,-2.0441,-2.0509,-2.0644,-2.1693,-2.328,-2.4956,-2.6163,-2.7118,-2.8137,-2.9894,-3.2031,-3.425,-3.5769,-3.7261,-3.9635,-4.0556,-4.0582,-3.9564,-3.8484,-3.711,-3.484,-3.3474,-3.1849,-2.879,-2.8269,-2.7785,-2.5853,-2.6005,-2.7035,-2.9007,0.0,-3.2091,-3.5538,-3.6304,-3.717,-3.9158,-3.9167,-3.8948,-3.8674,-3.9083,-3.8837,-3.7646,-3.5895,-3.5063,-3.5467,-3.4835,-3.453,-3.4612,-3.4753,-3.5775,-3.7676,-3.7546,-3.8121,-3.9354,-3.7015,-3.5753,-3.5445,-3.4229,-3.3306,-3.2675,-3.2675,-3.2675,-3.273,-3.273,-3.3355,-3.4375,-3.4971,-3.5784,-3.6739,-3.7991,-3.8368,-3.8351,0.0,0.0,0.0,0.0,0.0,0.0,0.0,0.0,0.0,0.0,-1.3924,-1.4074,0.0,0.0,0.0,0.0,0.0,0.0,0.0,0.0,0.0,-1.7216,-1.6917,-1.6675,-1.6479,-1.6887,-1.7173,-1.7299,-1.81,-1.8197,-1.763,-1.8033,-1.7834,-1.709,-1.7683,-1.8026,-1.8214,-1.8822,-1.931,-1.9652,-1.9864,-2.0012,-2.0133,-2.0499,0.0,0.0,-2.0626,-2.1031,-2.1957,-2.5019,-2.7701,-2.9988,-3.1282,-3.3319,-3.5594,-3.7075,-3.8277,-3.9358,-4.037,-4.1115,-4.1286,-4.0084,-3.8512,-3.6829,-3.4881,-3.172,0.0,-2.8184,-2.6733,-2.5694,-2.5928,-2.6875,-2.8107,-2.9704,-3.1217,-3.3042,-3.5306,-3.6285,-3.7025,0.0,-3.8544,-3.8925,-3.836,-3.8774,0.0,0.0,0.0,-3.5722,-3.5825,-3.5463,-3.5336,-3.5595,-3.652,-3.7518,-3.8713,-3.9497,-3.9487,-3.8677,-3.82,-3.7107,-3.5476,-3.523,-3.4752,-3.4121,-3.4121,0.0,-3.4322,-3.4322,-3.5169,-3.6533,-3.6646,-3.7546,-3.8681,-3.8929,-3.9301,-3.9564,0.0,0.0,0.0,0.0,0.0,0.0,0.0,-1.3925,-1.415,-1.3899,-1.4255,-1.4326,-1.3772,-1.4783,-1.5624,0.0,0.0,0.0,0.0,0.0,0.0,0.0,0.0,0.0,-1.6506,-1.6983,-1.7281,-1.731,0.0,-1.8341,-1.8171,-1.8382,-1.83,-1.8043,-1.7942,-1.8173,-1.86,-1.9096,-1.953,-1.9864,-2.0065,-2.0289,-2.0527,0.0,0.0,0.0,0.0,-2.1233,-2.2185,-2.4418,-2.6974,-2.972,-3.2779,-3.5149,-3.7075,-3.825,-3.9185,-3.9971,-4.0671,-4.1541,-4.1917,-4.0736,-3.8969,-3.6685,-3.3797,0.0,0.0,-2.649,-2.5697,-2.5263,-2.5263,-2.6557,-2.7865,-2.8475,-2.9513,-3.1295,-3.4265,-3.4833,-3.5795,-3.7999,-3.8504,-3.8748,-3.8864,-3.8711,-3.847,-3.8236,0.0,-3.6164,-3.5893,-3.5771,-3.5473,-3.5136,-3.7157,-3.8258,-3.8243,-3.939,-3.9677,-3.9031,-3.8323,-3.7477,-3.6507,-3.5799,-3.5306,-3.4983,-3.4629,0.0,-3.4593,-3.4593,-3.5514,-3.6966,-3.6966,-3.8046,-3.961,-3.961,-3.9969,-4.04,0.0,0.0,0.0,0.0,0.0,0.0,-1.3599,-1.4117,-1.4399,-1.4173,-1.4795,-1.5001,-1.4336,-1.4978,-1.5679,0.0,0.0,0.0,0.0,0.0,0.0,0.0,0.0,0.0,0.0,0.0,0.0,0.0,-1.7946,0.0,0.0,0.0,0.0,0.0,-1.8651,-1.8673,-1.9265,-1.9465,-1.9632,0.0,0.0,-2.0339,0.0,0.0,0.0,0.0,0.0,0.0,-2.2257,-2.3563,-2.5448,-2.8003,-3.2185,-3.4819,-3.6543,-3.7488,-3.8576,-3.9663,-4.0556,-4.1561,-4.2219,-4.1225,-3.9242,-3.6509,-3.2751,-2.9897,-2.7453,-2.5205,-2.4946,-2.513,-2.506,-2.6135,-2.7136,0.0,-2.7965,-2.9623,-3.3238,-3.3712,-3.4939,-3.8433,-3.8632,0.0,-3.9215,-3.8974,0.0,-3.8304,0.0,0.0,-3.5686,-3.5619,-3.5321,-3.4767,-3.73,-3.8417,-3.7835,-3.9047,-3.9585,-3.9293,-3.8231,-3.7569,-3.7246,-3.6184,-3.5691,-3.566,-3.5137,0.0,0.0,-3.5025,-3.5875,-3.7102,-3.727,-3.8414,-4.0003,-4.017,-4.0397,-4.0629,0.0,0.0,0.0,0.0,0.0,0.0,-1.2664,-1.3999,-1.4558,-1.3219,-1.5354,-1.6328,-1.4655,-1.4977,-1.5512,0.0,0.0,0.0,0.0,0.0,0.0,0.0,0.0,0.0,0.0,0.0,0.0,0.0,0.0,0.0,0.0,0.0,0.0,0.0,0.0,0.0,-1.9139,-1.9339,0.0,0.0,0.0,0.0,0.0,0.0,0.0,0.0,0.0,-2.0553,-2.0868,-2.274,-2.4039,-2.5306,-2.818,-3.0913,-3.3186,-3.4015,-3.5856,-3.8003,-3.9663,-4.0986,-4.1741,-4.1146,-3.8952,-3.5992,-3.2564,-2.9187,-2.6539,-2.5676,-2.4537,-2.4339,-2.6456,-2.6247,-2.6337,0.0,0.0,-3.0147,-3.2871,-3.4344,-3.5712,-3.7463,0.0,0.0,-3.8626,-3.9819,0.0,-3.7769,0.0,0.0,-3.5023,-3.4689,-3.4937,-3.5722,-3.6969,-3.8039,-3.8857,-3.9887,-3.9816,-3.86,-3.8477,-3.7769,-3.6584,-3.6445,-3.6399,-3.6384,-3.6322,0.0,0.0,-3.6751,-3.7334,-3.8237,-3.8767,-3.9387,-4.007,-4.0614,-4.0345,-3.9714,0.0,0.0,0.0,0.0,0.0,0.0,-1.4081,-1.4585,-1.4911,-1.5103,-1.575,-1.6024,-1.5679,-1.5765,-1.6038,-1.6571,0.0,0.0,0.0,0.0,0.0,0.0,0.0,0.0,0.0,0.0,-1.6996,-1.7608,-1.7883,0.0,0.0,0.0,0.0,0.0,0.0,0.0,0.0,0.0,0.0,0.0,0.0,0.0,0.0,0.0,0.0,0.0,0.0,0.0,-2.0683,-2.1393,-2.2238,-2.3043,-2.3239,-2.5013,-2.7904,-3.2531,-3.4263,-3.5459,-3.9075,-4.0768,-4.148,-4.1187,-3.8656,-3.5382,-3.1905,-2.8331,-2.548,-2.4416,-2.4093,-2.4458,-2.5987,-2.6315,-2.6673,-2.7504,-2.7244,0.0,-3.1258,-3.1512,-3.287,-3.6886,-3.7467,0.0,0.0,0.0,-3.8224,0.0,0.0,0.0,-3.4964,-3.5169,-3.5492,-3.5893,-3.7518,-3.8622,-3.9032,-3.9979,-4.0047,-3.9108,-3.9108,-3.8616,-3.7692,-3.7292,-3.7092,-3.7076,-3.6676,0.0,0.0,-3.7238,-3.7879,-3.8707,-3.9315,-3.9969,-4.0497,-4.0212,-3.9915,-3.9542,0.0,0.0,0.0,0.0,0.0,-1.3186,-1.4448,-1.4593,-1.4861,-1.5753,-1.5611,-1.5524,-1.5904,-1.6053,-1.6246,-1.6538,-1.6528,0.0,0.0,0.0,0.0,0.0,0.0,0.0,0.0,0.0,-1.6993,-1.7208,-1.7777,-1.8231,0.0,0.0,0.0,0.0,0.0,0.0,0.0,0.0,0.0,0.0,0.0,0.0,0.0,0.0,0.0,0.0,0.0,0.0,0.0,0.0,0.0,-2.1633,-2.0536,-2.1144,-2.3404,-2.9005,-3.1372,-3.3019,-3.7086,-3.9409,-4.0695,-4.0582,-3.789,-3.4388,-3.1108,-2.7528,-2.4611,-2.3513,-2.3664,-2.4351,-2.5486,-2.6146,-2.6653,-2.7004,-2.6587,-2.7246,-3.0239,-3.0278,-3.1635,-3.6159,0.0,-3.6695,0.0,-3.7479,-3.7182,0.0,0.0,0.0,-3.6127,-3.6312,-3.6236,-3.5908,-3.7661,-3.8591,-3.8728,-3.9688,-3.9893,-3.9216,-3.9016,-3.8677,-3.8185,-3.7507,-3.7311,-3.7515,-3.6987,0.0,0.0,-3.7764,-3.8318,-3.9049,-3.9629,-4.017,-4.0577,-3.9886,-3.9427,-3.9088,0.0,0.0,0.0,0.0,0.0,0.0,-1.2942,-1.3602,-1.4199,-1.4133,-1.4735,-1.5109,-1.4847,-1.5533,-1.5883,-1.5536,-1.5712,0.0,0.0,0.0,0.0,0.0,0.0,0.0,0.0,0.0,-1.6532,-1.7208,-1.7745,-1.8182,-1.8525,-1.9326,-1.9632,-1.9501,0.0,0.0,0.0,0.0,0.0,0.0,0.0,0.0,0.0,0.0,0.0,0.0,0.0,0.0,0.0,0.0,0.0,0.0,0.0,-2.0458,-2.0356,-2.2399,-2.6481,-3.0847,-3.3134,-3.638,-3.9134,-3.9057,-3.6372,-3.3015,-3.0227,-2.6814,-2.4041,-2.3442,-2.3291,-2.3806,-2.5385,-2.5641,-2.5927,-2.6855,-2.7605,-2.864,-3.0349,-3.1841,-3.3375,0.0,0.0,-3.6426,-3.6342,-3.6442,0.0,0.0,0.0,0.0,-3.8857,-3.8039,-3.6969,-3.5908,-3.6939,-3.7692,-3.8044,-3.8984,-3.9185,-3.8508,-3.7846,-3.7523,-3.7492,-3.6815,-3.6892,-3.7605,0.0,0.0,0.0,-3.8723,-3.8903,-3.9259,-3.98,-4.0003,-3.9968,-3.9709,-3.9054,-3.8196,0.0,0.0,0.0,0.0,0.0,0.0,-1.4458,-1.4495,-1.4576,-1.5067,-1.5306,-1.5439,-1.5463,-1.5619,-1.5668,-1.5448,-1.5551,0.0,0.0,0.0,0.0,0.0,0.0,0.0,0.0,-1.6011,-1.6374,-1.7,-1.7574,-1.802,-1.8388,-1.9144,-1.9487,-1.9413,-1.9465,0.0,0.0,0.0,0.0,0.0,0.0,0.0,0.0,0.0,0.0,0.0,0.0,0.0,0.0,0.0,0.0,0.0,0.0,0.0,0.0,-1.9468,-2.1955,-2.5599,-2.9181,-3.1075,-3.2252,-3.3135,-3.1347,-2.9048,-2.7731,-2.5397,-2.3335,-2.2673,-2.2954,-2.3456,-2.4049,-2.4915,-2.5895,-2.6807,-2.7606,-2.8681,0.0,0.0,0.0,-3.56,-3.7449,-3.8337,0.0,0.0,0.0,0.0,0.0,0.0,-3.7978,-3.7661,-3.7519,-3.7494,-3.8145,-3.8728,-3.9231,-3.9878,-3.9878,-3.92,-3.8508,-3.7938,-3.7477,-3.6799,-3.66,0.0,0.0,0.0,0.0,-3.8652,-3.9209,-3.98,-4.0385,-4.024,-3.9645,-3.8944,-3.8162,-3.7274,0.0,0.0,0.0,0.0,0.0,0.0,-1.4819,-1.4729,-1.4771,-1.5462,-1.5358,-1.5328,-1.5682,-1.5639,-1.5551,-1.5448,-1.5433,0.0,0.0,0.0,0.0,0.0,0.0,0.0,-1.5712,-1.5812,-1.6172,-1.6788,-1.7527,-1.8005,-1.8253,-1.9129,-1.9472,-1.9376,-1.9465,-1.9465,0.0,0.0,0.0,0.0,0.0,0.0,-2.0475,0.0,0.0,0.0,0.0,0.0,0.0,0.0,0.0,0.0,0.0,0.0,0.0,0.0,-1.9118,-2.148,-2.536,-2.7337,-2.854,-2.9589,-2.8189,-2.6462,-2.6065,-2.4293,-2.2647,-2.2298,-2.2815,-2.3321,-2.3393,-2.4611,-2.5761,-2.6317,-2.7368,0.0,0.0,0.0,0.0,-3.5959,0.0,0.0,0.0,0.0,0.0,0.0,0.0,0.0,-3.8622,-3.8637,-3.8667,-3.8826,-3.9008,-3.9198,-3.9451,-3.9951,-4.0007,-3.9508,-3.8635,-3.8111,-3.7846,-3.7048,-3.6785,0.0,0.0,-3.7621,0.0,-3.8778,-3.9262,-3.9749,-4.0336,-4.0038,-3.9255,-3.8567,-3.7786,-3.6899,0.0,0.0,0.0,0.0,0.0,0.0,0.0,-1.4355,-1.4759,-1.5345,-1.5033,-1.497,-1.555,-1.5522,-1.5492,-1.5477,-1.5358,0.0,0.0,0.0,0.0,0.0,0.0,0.0,-1.558,-1.558,-1.5921,-1.6588,-1.7512,-1.8037,-1.8165,-1.9291,-1.9639,-1.9339,-1.9501,-1.9611,0.0,0.0,0.0,0.0,0.0,0.0,0.0,0.0,0.0,0.0,0.0,0.0,0.0,0.0,0.0,0.0,0.0,0.0,0.0,0.0,0.0,0.0,0.0,-2.4613,-2.6897,-2.762,-2.6291,-2.4846,-2.5063,-2.3488,0.0,-2.2265,-2.2794,-2.3253,-2.3393,-2.456,-2.5558,-2.5676,-2.7113,0.0,0.0,-3.1359,0.0,0.0,-3.6953,0.0,-3.7562,0.0,0.0,0.0,0.0,0.0,-4.0439,-4.0493,-4.03,-3.9838,-3.9554,-3.9247,-3.888,-3.9466,-3.9694,-3.9498,-3.8302,-3.8008,-3.8465,-3.7484,-3.7254,0.0,0.0,-3.8327,-3.9082,-3.8974,-3.9028,-3.9242,-3.9698,-3.9429,-3.8702,-3.8338,-3.7695,-3.6842,0.0,0.0,0.0,0.0,0.0,0.0,0.0,0.0,0.0,0.0,-1.4936,-1.5242,-1.5507,-1.5418,-1.5358,0.0,0.0,0.0,0.0,0.0,0.0,0.0,0.0,0.0,-1.5463,-1.5507,-1.5846,-1.6446,-1.7337,-1.8011,-1.8431,-1.931,-1.9617,-1.9376,-1.9485,-1.9528,0.0,0.0,0.0,0.0,0.0,0.0,0.0,0.0,0.0,0.0,-2.066,-2.0577,0.0,0.0,0.0,0.0,0.0,0.0,0.0,0.0,-1.7811,-1.7974,-1.8684,0.0,-2.0353,-2.1585,-2.1501,-2.1412,0.0,0.0,0.0,0.0,0.0,-2.2733,-2.3379,-2.4198,-2.5198,-2.6449,0.0,-2.9279,-2.9994,0.0,0.0,-3.6655,-3.8412,-3.8934,0.0,0.0,0.0,0.0,0.0,-3.958,-4.0363,-4.0624,-4.0489,-4.0006,-4.054,-4.0426,-3.9518,-3.9713,-3.9726,-3.9661,-3.8466,-3.7981,-3.8105,-3.7328,-3.706,0.0,-3.7314,-3.7754,-3.8383,-3.8407,-3.8739,-3.9139,-3.87,-3.8018,-3.7202,-3.6637,-3.6033,-3.5555,0.0,0.0,0.0,0.0,0.0,0.0,0.0,0.0,0.0,0.0,-1.4515,-1.4876,-1.5195,-1.5178,-1.5147,0.0,0.0,0.0,0.0,0.0,0.0,0.0,0.0,-1.5313,-1.5344,-1.5388,-1.5841,-1.6772,-1.7421,-1.8123,-1.8861,-1.9525,-1.9705,-1.9413,-1.9573,-1.9722,0.0,0.0,0.0,0.0,-1.99,0.0,0.0,0.0,0.0,0.0,-2.0577,-2.0509,0.0,-2.0388,-2.0508,-2.0444,0.0,0.0,0.0,0.0,-1.7833,-1.7856,-1.7772,-1.8025,-1.8542,-1.9519,-2.0054,-2.0669,-2.1838,0.0,0.0,0.0,0.0,-2.253,-2.3316,-2.4015,-2.5014,0.0,-2.8186,0.0,0.0,0.0,-3.5534,-3.7216,-3.8498,-3.9056,0.0,0.0,0.0,0.0,0.0,-3.962,-4.0322,-4.0623,-4.0598,-4.0352,-4.0516,-4.0383,-3.9904,-4.0262,-4.0372,-4.016,-3.9289,-3.8511,-3.7789,-3.7568,-3.7233,0.0,-3.706,-3.7696,-3.8606,-3.8407,-3.8433,-3.857,-3.8228,-3.7366,-3.6256,-3.5993,-3.5447,-3.4913,0.0,0.0,0.0,0.0,0.0,0.0,0.0,0.0,0.0,0.0,0.0,0.0,0.0,0.0,0.0,0.0,0.0,0.0,0.0,0.0,0.0,0.0,-1.5133,-1.5268,-1.5313,-1.54,-1.598,-1.7055,-1.7611,-1.8346,-1.9192,-1.9732,-1.9777,-1.9487,-1.9711,-1.9884,0.0,0.0,0.0,0.0,-1.9469,0.0,0.0,0.0,0.0,0.0,0.0,0.0,0.0,-2.0423,-2.0304,-2.0051,-1.9325,0.0,0.0,0.0,0.0,0.0,-1.7861,-1.8443,-1.9159,-1.9541,-2.03,-2.1106,-2.1761,0.0,0.0,0.0,0.0,-2.2637,-2.3262,-2.4171,0.0,0.0,0.0,0.0,-3.3877,-3.4328,-3.5241,-3.7704,-3.8184,0.0,0.0,0.0,0.0,0.0,0.0,-3.9691,-4.031,-4.0537,-4.0673,-4.0673,-4.0243,-3.9961,-3.9914,-4.0421,-4.0522,-4.0271,-3.968,-3.8795,-3.763,-3.7677,-3.7351,-3.6828,0.0,0.0,-3.8698,-3.8137,-3.7796,-3.758,-3.7521,-3.6715,-3.5563,-3.558,-3.5136,-3.4529,0.0,0.0,0.0,0.0,0.0,0.0,0.0,0.0,0.0,0.0,0.0,0.0,0.0,0.0,0.0,0.0,0.0,0.0,0.0,0.0,0.0,-1.4596,-1.489,-1.5133,-1.5313,-1.5806,-1.6169,-1.6358,-1.7684,-1.8416,-1.8652,-1.9435,-1.9833,-1.9839,-1.994,-1.9441,-1.8544,-1.8759,0.0,0.0,0.0,0.0,0.0,0.0,0.0,0.0,0.0,0.0,0.0,-2.0388,-2.0271,-2.0008,-1.937,0.0,0.0,0.0,0.0,0.0,-1.7641,-1.8624,-1.9765,-1.9831,-2.0283,-2.0948,-2.1732,0.0,0.0,0.0,0.0,0.0,0.0,-2.4985,-2.6487,0.0,0.0,-3.3281,0.0,0.0,-3.7427,-3.7945,0.0,0.0,0.0,0.0,0.0,0.0,0.0,-4.017,-4.0355,-4.0541,-4.0626,-4.0626,-4.0788,-4.0312,-3.921,-3.856,-3.8253,-3.8294,-3.7587,-3.7436,-3.7896,-3.7085,-3.6757,-3.6861,0.0,-3.656,-3.6551,-3.6422,-3.6335,-3.6174,-3.5262,-3.4931,-3.4936,-3.4026,-3.3841,-3.4003,0.0,0.0,0.0,0.0,0.0,0.0,0.0,0.0,0.0,0.0,0.0,0.0,0.0,0.0,0.0,0.0,0.0,0.0,0.0,0.0,-1.4606,-1.4655,-1.4842,-1.5011,-1.5133,-1.5513,-1.5893,-1.6227,-1.6968,-1.7714,-1.8505,-1.9334,-1.9566,-1.9413,-1.934,-1.8816,-1.8059,-1.82,-1.8639,0.0,0.0,0.0,0.0,0.0,0.0,0.0,0.0,0.0,0.0,0.0,-1.9783,-1.8993,-1.9127,0.0,0.0,0.0,0.0,0.0,-1.7794,-1.8512,-1.9412,-1.9866,-2.0649,-2.1441,0.0,0.0,0.0,0.0,0.0,0.0,0.0,0.0,-2.7923,-2.9897,0.0,-3.4865,-3.64,-3.6723,-3.709,0.0,0.0,0.0,0.0,0.0,0.0,0.0,0.0,0.0,-4.0815,-4.0662,-4.0532,-4.0532,-3.9968,-3.8956,-3.7357,-3.6756,-3.6918,-3.782,-3.7419,-3.707,-3.6753,-3.6787,-3.6571,-3.6274,0.0,-3.6787,-3.7433,-3.7019,-3.6754,-3.6505,-3.5507,-3.4945,-3.4572,-3.3614,-3.3555,-3.3738,0.0,0.0,0.0,0.0,0.0,0.0,0.0,0.0,0.0,0.0,0.0,0.0,0.0,0.0,0.0,0.0,0.0,0.0,0.0,-1.4397,-1.4493,-1.4683,-1.4777,-1.4932,-1.5088,-1.5368,-1.5763,-1.6288,-1.6626,-1.747,-1.8655,-1.9117,-1.914,-1.8823,-1.8538,-1.8085,-1.7537,-1.7537,-1.8106,0.0,0.0,0.0,0.0,0.0,0.0,0.0,0.0,0.0,0.0,0.0,0.0,0.0,0.0,0.0,0.0,-1.7726,-1.7878,-1.7961,-1.7917,-1.8323,-1.8934,-1.9538,-2.0515,0.0,0.0,0.0,0.0,0.0,0.0,0.0,0.0,-2.696,0.0,-3.2739,-3.4823,-3.6107,-3.6477,-3.6706,0.0,0.0,0.0,0.0,0.0,0.0,0.0,0.0,0.0,0.0,-4.046,-4.0117,-3.989,-3.989,-3.8954,-3.7675,-3.6048,-3.5774,-3.6191,-3.7196,-3.703,-3.6536,-3.5811,-3.632,-3.6219,-3.5691,-3.6061,-3.6835,-3.7865,-3.7297,-3.6818,-3.6451,-3.5743,-3.5021,-3.4234,-3.3364,-3.3308,-3.3518,0.0,0.0,0.0,0.0,0.0,0.0,0.0,0.0,0.0,0.0,0.0,0.0,0.0,0.0,0.0,0.0,0.0,0.0,0.0,-1.4429,-1.4461,-1.4332,-1.4584,-1.4899,-1.5268,-1.585,-1.6169,-1.6213,-1.7461,-1.8404,-1.9066,-1.8744,-1.8449,-1.8235,-1.7792,-1.7173,-1.6425,-1.6724,-1.7316,-1.8,-1.8032,0.0,0.0,0.0,0.0,0.0,0.0,0.0,0.0,0.0,0.0,0.0,0.0,0.0,-1.7455,-1.7641,-1.7816,-1.7861,-1.7681,-1.8165,-1.8726,-1.8785,-1.9187,0.0,-2.319,-2.3275,0.0,-2.6244,0.0,0.0,0.0,-2.7593,-2.9921,-3.3614,-3.5463,-3.7127,-3.9143,0.0,0.0,0.0,0.0,0.0,0.0,0.0,0.0,0.0,0.0,0.0,-3.8363,-3.8173,-3.8094,-3.8094,-3.8122,-3.7492,-3.6205,-3.6346,-3.6089,-3.5391,-3.5005,-3.5217,-3.5975,-3.5471,-3.5371,-3.5611,-3.5779,-3.5813,-3.5785,-3.5513,-3.5155,-3.4756,-3.466,-3.4349,-3.3818,-3.2633,-3.2651,-3.3198,0.0,0.0,0.0,0.0,0.0,0.0,0.0,0.0,0.0,0.0,0.0,0.0,0.0,0.0,0.0,0.0,0.0,0.0,0.0,-1.4397,-1.4461,-1.4556,-1.5027,-1.5151,-1.4947,-1.5176,-1.5321,-1.5258,-1.6737,-1.7755,-1.8272,-1.8259,-1.8158,-1.7921,-1.692,-1.6659,-1.6822,-1.6576,-1.7275,-1.8528,-1.8579,-1.9357,0.0,0.0,0.0,0.0,0.0,0.0,0.0,0.0,-1.9578,-1.8298,-1.8941,-1.8326,-1.7432,-1.7572,-1.7687,-1.7732,-1.7572,-1.8219,-1.8897,-1.8743,-1.9268,0.0,0.0,-2.4037,-2.4915,-2.651,-2.8739,0.0,0.0,0.0,-3.1539,-3.3679,-3.6239,-3.8034,0.0,0.0,0.0,0.0,0.0,0.0,0.0,0.0,0.0,0.0,0.0,0.0,-3.8625,-3.8173,-3.7905,-3.7905,-3.7496,-3.6494,-3.4772,-3.4848,-3.4366,-3.3339,-3.4185,-3.4693,-3.484,-3.4758,-3.4475,-3.4013,-3.4728,-3.4864,-3.4509,-3.4728,-3.4721,-3.4528,-3.3763,-3.3223,-3.287,-3.2361,-3.2656,-3.3198,0.0,0.0,0.0,0.0,0.0,0.0,0.0,0.0,0.0,0.0,0.0,0.0,0.0,0.0,0.0,0.0,0.0,0.0,-1.3733,-1.3928,-1.4151,-1.4415,-1.4905,-1.4886,-1.4319,-1.4511,-1.4651,-1.4714,-1.6213,-1.7171,-1.7658,-1.7855,-1.7655,-1.7086,-1.64,-1.6379,-1.6847,-1.643,-1.7279,-1.8838,-1.8712,-1.9336,0.0,0.0,0.0,0.0,0.0,0.0,0.0,0.0,-1.9546,-1.8194,-1.8869,-1.8274,-1.7361,-1.7448,-1.7693,-1.7883,-1.7715,-1.816,-1.8711,-1.8723,0.0,0.0,-2.3285,-2.4856,-2.6331,-2.8306,-3.0522,0.0,-3.2217,0.0,0.0,0.0,-3.5985,-3.7653,0.0,0.0,0.0,0.0,0.0,0.0,0.0,0.0,0.0,0.0,0.0,0.0,0.0,-3.7212,-3.6823,-3.6776,-3.6113,-3.511,-3.3784,-3.3768,-3.3339,-3.2393,-3.3535,-3.3824,-3.3371,-3.3567,-3.3291,-3.2724,-3.3594,-3.3895,-3.3819,-3.3945,-3.395,-3.3839,-3.295,-3.2572,-3.2437,-3.2317,-3.2708,-3.3198,0.0,0.0,0.0,0.0,0.0,0.0,0.0,0.0,0.0,0.0,0.0,0.0,0.0,0.0,0.0,0.0,0.0,0.0,-1.2564,-1.2979,-1.3389,-1.3762,-1.404,-1.396,-1.3527,-1.396,-1.4365,-1.4683,-1.6098,-1.6944,-1.7287,-1.7502,-1.6894,-1.563,-1.6299,-1.64,-1.611,-1.6178,-1.7151,-1.8657,-1.8113,-1.8873,-2.0304,0.0,0.0,0.0,0.0,0.0,0.0,0.0,-1.9815,-1.868,-1.8984,-1.8221,-1.7208,-1.7191,-1.7773,-1.8332,-1.807,-1.7898,-1.7964,0.0,0.0,0.0,-2.4269,-2.5696,-2.7596,-3.2156,-3.2406,-3.2024,-3.2871,0.0,0.0,-3.3111,-3.4543,0.0,0.0,0.0,0.0,0.0,0.0,0.0,0.0,0.0,0.0,0.0,0.0,0.0,0.0,-3.4868,-3.4428,-3.4297,-3.3693,-3.3406,-3.3406,-3.3532,-3.3305,-3.2779,-3.2927,-3.2512,-3.171,-3.1774,-3.1869,-3.1994,-3.2426,-3.3048,-3.3719,-3.2888,-3.2517,-3.24,-3.2317,-3.2456,-3.2723,-3.2234,-3.2588,-3.3182,0.0,0.0,0.0,0.0,0.0,0.0,0.0,0.0,0.0,0.0,0.0,0.0,0.0,0.0,0.0,0.0,0.0,0.0,-1.1696,-1.2285,-1.2718,-1.2878,-1.383,-1.4055,-1.3425,-1.3648,-1.4092,-1.4755,-1.5469,-1.617,-1.6869,-1.6738,-1.6904,-1.7229,-1.6009,-1.6111,-1.7121,-1.6487,-1.693,-1.8158,-1.8578,-1.9023,-1.9493,0.0,0.0,0.0,0.0,0.0,0.0,0.0,0.0,0.0,-1.8583,-1.8151,-1.775,-1.7264,-1.7223,-1.73,-1.7082,-1.7809,0.0,-1.8024,0.0,0.0,0.0,-2.5617,0.0,0.0,-3.2394,-3.1597,-3.2826,0.0,0.0,0.0,0.0,0.0,0.0,0.0,0.0,0.0,0.0,0.0,0.0,0.0,0.0,0.0,0.0,0.0,0.0,-3.3905,-3.3761,-3.382,-3.3516,-3.3144,-3.263,-3.2645,-3.2357,-3.1672,-3.1466,-3.1512,-3.171,-3.171,-3.1358,-3.0783,-3.1374,-3.147,-3.1261,-3.1518,-3.1294,-3.0878,-3.0814,-3.0878,-3.0959,-3.0796,-3.1189,-3.1871,0.0,0.0,0.0,0.0,0.0,0.0,0.0,0.0,0.0,0.0,0.0,0.0,0.0,0.0,0.0,0.0,0.0,0.0,0.0,-1.1717,-1.2205,-1.2481,-1.3345,-1.3687,-1.3404,-1.3629,-1.398,-1.4553,-1.501,-1.56,-1.6342,-1.6498,-1.6715,-1.6907,-1.6205,-1.6487,-1.7483,-1.6324,-1.6731,-1.8138,-1.8194,-1.8563,-1.9139,0.0,0.0,0.0,0.0,0.0,0.0,0.0,0.0,0.0,-1.8299,-1.7845,-1.7597,-1.742,-1.7267,-1.7236,-1.7527,-1.8253,0.0,-1.8837,-2.0946,-2.3468,-2.5035,0.0,0.0,0.0,0.0,-3.19,-3.3403,-3.245,0.0,0.0,0.0,0.0,0.0,0.0,0.0,0.0,0.0,0.0,0.0,0.0,0.0,0.0,0.0,0.0,0.0,-3.2855,-3.2655,-3.2984,-3.2401,-3.1996,-3.1837,-3.1867,-3.163,-3.119,-3.0814,-3.0744,-3.1043,-3.0905,-3.0463,-2.9801,-3.0448,-3.0305,-2.9754,-3.0415,-3.0337,-2.9785,-3.0069,-3.018,-3.0243,-3.0812,-3.127,-3.1697,0.0,0.0,0.0,0.0,0.0,0.0,0.0,0.0,0.0,0.0,0.0,0.0,0.0,0.0,0.0,0.0,0.0,0.0,0.0,-1.1251,-1.1779,-1.2342,-1.2661,-1.299,-1.3386,-1.37,-1.4,-1.4333,-1.4676,-1.5203,-1.5901,-1.6572,-1.6386,-1.5571,-1.6592,-1.717,-1.733,-1.5901,-1.6468,-1.824,-1.7284,-1.7691,-1.8925,-1.9148,0.0,0.0,0.0,0.0,0.0,0.0,0.0,0.0,-1.8115,-1.7518,-1.7059,-1.7545,-1.763,-1.7791,-1.8683,-1.8928,0.0,-2.0436,-2.1873,0.0,-2.6765,-2.994,-3.2576,-3.3774,0.0,-3.2458,-3.3889,-3.2289,-3.1142,-3.2538,0.0,0.0,0.0,0.0,0.0,0.0,0.0,0.0,0.0,0.0,0.0,0.0,0.0,0.0,-3.3039,-3.1856,-3.1455,-3.2008,-3.0825,-3.0531,-3.119,-3.1123,-3.1123,-3.119,-3.0633,-3.021,-2.9886,-2.9673,-2.938,-2.9122,-2.9626,-2.9532,-2.8951,-2.9626,-2.9564,-2.9185,-2.9832,-3.0085,-3.0243,-3.1636,-3.2095,-3.2048,0.0,0.0,0.0,0.0,0.0,0.0,0.0,0.0,0.0,0.0,0.0,0.0,0.0,0.0,0.0,0.0,0.0,0.0,0.0,-1.0561,-1.1033,-1.1295,-1.1823,-1.2494,-1.3288,-1.3495,-1.4198,-1.5448,-1.4761,-1.5097,-1.6412,-1.6015,-1.638,-1.731,-1.6307,-1.6254,-1.6869,-1.5697,-1.5917,-1.7006,-1.6813,-1.7019,-1.7363,-1.7211,-1.7366,0.0,0.0,0.0,0.0,0.0,0.0,0.0,-1.8003,-1.761,-1.742,-1.6846,-1.7046,-1.7444,-1.7441,-1.8498,0.0,0.0,-2.254,-2.5483,-2.7285,-2.9004,-3.0332,-3.0772,-3.133,-3.1649,-3.1482,-3.1524,-3.1394,-3.1004,0.0,0.0,0.0,0.0,0.0,0.0,0.0,0.0,0.0,0.0,0.0,0.0,0.0,0.0,-3.1725,-3.1404,-3.1263,-3.1482,-3.1128,-3.1038,-3.119,-3.0482,-3.0482,-3.119,-3.0092,-2.9346,-2.8909,-2.9198,-2.9167,-2.8889,-2.8998,-2.8998,-2.892,-2.9077,-2.9108,-2.9107,-2.9295,-2.9358,-2.9453,-3.0322,-3.0275,-2.9959,0.0,0.0,0.0,0.0,0.0,0.0,0.0,0.0,0.0,0.0,0.0,0.0,0.0,0.0,0.0,0.0,0.0,0.0,0.0,0.0,-1.0938,-1.1237,-1.164,-1.2304,-1.322,-1.3551,-1.4344,-1.5624,-1.5037,-1.5311,-1.6455,-1.6139,-1.6478,-1.7289,-1.6388,-1.6402,-1.7037,-1.575,-1.5711,-1.6494,-1.6344,-1.6338,-1.6423,-1.6476,-1.657,-1.668,-1.7088,0.0,0.0,0.0,0.0,0.0,0.0,0.0,-1.6955,-1.6853,-1.6784,-1.6916,-1.7745,0.0,0.0,-2.0911,0.0,-2.5047,-2.6492,-2.727,-2.7801,-2.8225,-2.9613,-3.0658,-3.0365,-3.0711,-3.0885,-3.0464,-3.0662,-3.0785,0.0,0.0,0.0,0.0,0.0,0.0,0.0,0.0,0.0,0.0,0.0,-3.1235,-3.1257,-3.0874,-3.0857,-3.1223,-3.0874,-3.0835,-3.119,-3.0292,-3.0029,-3.0516,-2.9194,-2.8306,-2.7758,-2.8178,-2.8311,-2.8218,-2.8544,-2.8529,-2.8295,-2.8295,-2.8575,-2.8982,-2.8651,-2.8775,-2.917,-2.9927,-2.9959,-2.9738,0.0,0.0,0.0,0.0,0.0,0.0,0.0,0.0,0.0,0.0,0.0,0.0,0.0,0.0,0.0,0.0,0.0,0.0,0.0,0.0,0.0,-1.1561,-1.166,-1.2148,-1.3179,-1.3656,-1.4251,-1.5076,-1.5247,-1.5616,-1.6177,-1.6336,-1.6547,-1.6797,-1.6547,-1.6823,-1.7327,-1.5918,-1.5815,-1.6507,-1.6002,-1.5845,-1.5928,-1.6068,-1.5935,-1.5768,-1.668,-1.6887,-1.6799,-1.7719,0.0,0.0,0.0,0.0,-1.6286,-1.6868,-1.6657,-1.6543,-1.8199,0.0,-1.9566,-2.2129,-2.3215,0.0,-2.5303,-2.5615,-2.5768,-2.6357,-2.7968,-2.9359,-2.947,-2.9794,-3.0031,-2.9847,-2.993,-2.976,-2.8939,-2.8565,0.0,0.0,0.0,0.0,0.0,0.0,0.0,0.0,0.0,-3.0875,-3.0752,-3.0179,-3.0022,-3.051,-3.0133,-3.015,-3.0684,-2.9789,-2.9326,-2.9309,-2.7814,-2.6894,-2.6588,-2.6533,-2.6857,-2.7426,-2.8108,-2.8077,-2.7612,-2.7612,-2.8124,-2.8841,-2.8151,-2.8399,-2.9154,-2.9785,-3.0006,-2.9975,0.0,0.0,0.0,0.0,0.0,0.0,0.0,0.0,0.0,0.0,0.0,0.0,0.0,0.0,0.0,0.0,0.0,0.0,-1.0687,0.0,0.0,-1.1984,-1.1475,-1.1833,-1.3186,-1.3324,-1.3504,-1.3748,-1.5174,-1.5807,-1.5627,-1.5871,-1.6395,-1.7109,-1.6532,-1.6555,-1.7018,-1.6233,-1.6383,-1.699,-1.611,-1.5808,-1.5919,-1.5084,-1.4882,-1.5131,-1.6027,-1.641,-1.6734,-1.813,-1.7872,0.0,0.0,0.0,-1.6026,-1.6076,-1.6498,-1.6998,-1.7136,0.0,-2.0298,0.0,-2.3345,-2.4124,0.0,0.0,-2.5803,0.0,-2.6662,-2.74,-2.7393,-2.8568,-2.9095,-2.7845,-2.8117,-2.8,-2.6671,-2.6428,-2.6488,-2.6727,0.0,0.0,0.0,0.0,0.0,0.0,-3.0353,-2.9565,-2.9065,-2.882,-2.8421,-2.7837,-2.8703,-2.898,-2.8609,-2.7833,-2.7491,-2.7528,-2.5259,-2.4728,-2.571,-2.3897,-2.4338,-2.661,-2.7273,-2.7566,-2.7612,-2.7612,-2.8124,-2.8841,-2.8151,-2.8399,-2.9091,-2.9155,-2.9186,-2.9138,0.0,0.0,0.0,0.0,0.0,0.0,0.0,0.0,0.0,0.0,0.0,0.0,0.0,0.0,0.0,-1.0351,-1.0696,-1.0915,-1.0905,-1.1077,-1.126,-1.1425,-1.1499,-1.208,-1.3222,-1.3533,-1.3916,-1.4399,-1.5132,-1.5531,-1.5581,-1.5679,-1.6186,-1.7018,-1.6455,-1.6286,-1.636,-1.6191,-1.5967,-1.5672,-1.5678,-1.5636,-1.5578,-1.4668,-1.4859,-1.5563,-1.5503,-1.5659,-1.6051,-1.7154,-1.6982,-1.6413,-1.7075,0.0,0.0,0.0,-1.6096,-1.6531,-1.7257,-1.8422,-1.9803,0.0,-2.1982,-2.2466,-2.3435,-2.3863,-2.4163,-2.4521,-2.4927,-2.5439,-2.6169,-2.6979,-2.7269,-2.6642,-2.678,-2.6765,-2.6199,-2.5783,-2.5595,-2.5676,-2.6417,-2.6938,-2.7035,-2.7843,-2.8631,-2.9138,-2.8169,-2.7623,-2.7855,-2.7495,-2.711,-2.6772,-2.7155,-2.7304,-2.7142,-2.6385,-2.568,-2.5102,-2.3779,-2.3348,-2.3643,-2.246,-2.3303,-2.5737,-2.5953,-2.6226,-2.6419,-2.6359,-2.6836,-2.7606,-2.6858,-2.7293,-2.8262,-2.784,-2.798,-2.8215,0.0,0.0,0.0,0.0,0.0,0.0,0.0,0.0,0.0,0.0,0.0,0.0,0.0,0.0,0.0,0.0,-1.0616,-1.1014,-1.1073,-1.1244,-1.1298,-1.1213,-1.1612,-1.2267,-1.3206,-1.364,-1.4082,-1.4598,-1.4693,-1.4911,-1.5301,-1.5389,-1.5867,-1.6693,-1.6303,-1.6008,-1.58,-1.6074,-1.5723,-1.4937,-1.5492,-1.5711,-1.5617,-1.4835,-1.5261,-1.6109,-1.5424,-1.5321,-1.5618,-1.6637,-1.6425,-1.5875,-1.6697,-1.6428,0.0,0.0,0.0,0.0,0.0,0.0,-1.8852,-2.039,-2.0734,-2.1031,0.0,0.0,-2.2886,0.0,-2.3578,-2.4038,-2.5062,-2.5516,-2.5743,-2.5697,-2.5741,-2.568,-2.5575,-2.5142,-2.4774,-2.4652,-2.5346,-2.5683,-2.5431,-2.617,-2.6913,-2.7412,-2.6451,-2.594,-2.6262,-2.5987,-2.5639,-2.5252,-2.5591,-2.5756,-2.575,-2.498,-2.4155,-2.3385,-2.2773,-2.2455,-2.2293,-2.1505,-2.2398,-2.4541,-2.4635,-2.4933,-2.5376,-2.5275,-2.5914,-2.6832,-2.5843,-2.6399,-2.7609,-2.6736,-2.6969,-2.7562,0.0,0.0,0.0,0.0,0.0,0.0,0.0,0.0,0.0,0.0,0.0,0.0,-0.8716,-0.8926,-0.9217,-0.9518,-0.9872,-1.0369,-1.1053,-1.1123,-1.1397,-1.2023,-1.1768,0.0,-1.3007,-1.3207,-1.3307,-1.3194,-1.3585,-1.4015,-1.4471,-1.4801,-1.5386,-1.6156,-1.6064,-1.5789,-1.5459,-1.5973,-1.6145,-1.6033,-1.6056,-1.6233,-1.6363,-1.5758,-1.5903,-1.6453,-1.6089,0.0,0.0,0.0,0.0,0.0,0.0,0.0,-1.5799,0.0,0.0,0.0,0.0,-1.6924,0.0,-1.9623,-2.0246,-2.067,0.0,0.0,-2.2979,-2.2873,-2.3256,-2.361,-2.3684,-2.4458,-2.5013,-2.4887,-2.4981,-2.4743,-2.3833,-2.3799,-2.3827,-2.3698,-2.4589,-2.529,-2.5373,-2.6275,-2.6952,-2.7137,-2.6136,-2.5035,-2.3859,-2.4238,-2.3856,-2.2447,-2.3996,-2.4673,-2.424,-2.3488,-2.3096,-2.3035,-2.2092,-2.2009,-2.2615,-2.0925,-2.1101,-2.2661,-2.343,-2.4234,-2.5028,-2.5028,-2.6029,-2.741,-2.6044,-2.6399,-2.7547,-2.6103,-2.6461,-2.7392,0.0,0.0,0.0,0.0,0.0,0.0,0.0,0.0,0.0,0.0,0.0,0.0,0.0,-0.8937,-0.941,-1.0037,-1.0416,-1.0823,-1.1199,-1.124,-1.134,-1.1509,-1.1976,-1.2351,-1.2557,-1.3159,-1.346,-1.3419,-1.3672,-1.3798,-1.385,-1.4328,-1.4332,-1.3901,-1.5019,-1.5434,-1.5393,-1.5551,-1.5381,-1.499,-1.5666,-1.6281,-1.6739,-1.5163,0.0,0.0,0.0,0.0,0.0,0.0,0.0,0.0,0.0,0.0,0.0,0.0,0.0,0.0,0.0,0.0,0.0,-1.8494,-1.9252,-1.9937,-2.0864,-2.1443,-2.1881,-2.2284,-2.2044,-2.1874,-2.2293,-2.332,-2.407,-2.4038,-2.4083,-2.401,-2.3769,-2.3784,-2.3576,-2.2984,-2.3656,-2.3896,-2.3271,-2.3664,-2.4164,-2.4689,-2.3686,-2.3136,-2.3212,-2.3026,-2.267,-2.2164,-2.2701,-2.3006,-2.3001,-2.2099,-2.1901,-2.2366,-2.1686,-2.1455,-2.1613,-2.0954,-2.0997,-2.1574,-2.185,-2.2644,-2.3705,-2.3667,-2.467,-2.6168,-2.5083,-2.5589,-2.6743,-2.5292,-2.5385,-2.6106,0.0,0.0,0.0,0.0,0.0,0.0,0.0,0.0,0.0,-0.6956,0.0,0.0,0.0,0.0,-0.8993,-0.9718,-1.0206,-1.0636,-1.0916,-1.1092,-1.1219,-1.1311,-1.2039,-1.2433,-1.2405,-1.314,-1.3566,-1.3621,-1.3546,-1.3637,-1.3869,-1.3922,-1.3751,-1.3474,-1.4369,-1.4782,-1.4798,-1.4743,-1.4699,-1.472,0.0,0.0,-1.6727,0.0,0.0,0.0,0.0,0.0,0.0,0.0,0.0,0.0,0.0,0.0,0.0,0.0,0.0,0.0,-1.6398,0.0,0.0,0.0,-1.8192,-1.8874,-1.99,0.0,-2.1044,-2.1659,-2.147,-2.1293,-2.162,-2.2379,-2.3035,-2.3236,-2.3323,-2.3441,-2.3767,-2.3603,-2.3266,-2.2897,-2.3038,-2.2878,-2.2119,-2.238,-2.2657,-2.295,-2.2416,0.0,-2.2649,-2.2454,-2.2319,-2.2319,-2.2124,-2.2099,-2.2312,-2.1436,-2.1359,-2.2017,-2.167,-2.157,-2.1627,-2.1191,-2.1003,-2.0973,-2.0553,-2.1152,-2.247,-2.2701,-2.3648,-2.4964,-2.4679,-2.5364,-2.6313,-2.5141,-2.5199,-2.5765,0.0,0.0,0.0,0.0,0.0,0.0,0.0,0.0,-0.641,-0.6483,0.0,0.0,0.0,0.0,0.0,-0.8438,-0.9115,-0.97,-1.0143,-1.0584,-1.1016,-1.1421,-1.1908,-1.226,-1.2534,-1.3091,-1.342,-1.3532,-1.3094,-1.3498,-1.4558,-1.3482,-1.3717,-1.4994,-1.4257,-1.3822,-1.3593,-1.3604,-1.4305,-1.5342,0.0,-1.5579,-1.6417,0.0,0.0,0.0,-1.7363,-1.725,0.0,-1.8448,0.0,0.0,0.0,0.0,0.0,0.0,0.0,0.0,0.0,0.0,0.0,0.0,0.0,0.0,-1.9217,0.0,-2.0462,-2.1024,-2.1622,-2.1922,-2.1689,-2.1642,-2.187,-2.2514,-2.2746,-2.3028,-2.3676,-2.314,-2.2906,-2.339,-2.2756,-2.2173,-2.2031,-2.2644,-2.2761,-2.2089,-2.2556,-2.2569,-2.2033,-2.2494,-2.2795,-2.2795,-2.2235,-2.201,-2.2106,-2.1484,-2.1501,-2.2098,-2.2088,-2.2396,-2.2859,-2.1627,-2.1032,-2.093,-1.9696,-1.9996,-2.1385,-2.2117,-2.3011,-2.3973,-2.4928,-2.5703,-2.624,-2.5691,-2.5948,-2.6408,0.0,0.0,0.0,0.0,0.0,-0.5333,-0.5674,-0.5938,-0.6196,0.0,0.0,0.0,-0.7688,-0.8516,-0.8943,-0.8805,-0.9021,-0.9292,-0.9608,-0.9716,-0.9891,-1.0245,-1.0855,-1.1153,-1.1069,-1.1772,-1.2184,-1.2392,-1.2879,-1.3372,-1.3858,-1.3585,-1.3557,-1.3817,-1.4504,-1.4287,-1.3545,-1.4067,0.0,-1.4615,-1.5313,-1.5992,0.0,0.0,0.0,0.0,0.0,-1.6396,-1.6672,0.0,-1.7175,-1.5478,0.0,0.0,0.0,0.0,0.0,0.0,-1.5799,0.0,0.0,0.0,0.0,0.0,0.0,0.0,-1.8864,-1.9672,-1.9721,-1.9884,-2.0696,-2.0512,-2.0541,-2.1402,-2.2184,-2.2768,-2.3005,-2.2697,-2.2307,-2.1898,-2.1535,-2.1075,-2.0567,-2.1067,-2.1368,0.0,-2.1396,-2.1585,-2.17,-2.2316,-2.2675,-2.2675,-2.1787,-2.1456,-2.1888,-2.105,-2.1073,-2.2027,-2.2076,-2.2377,-2.2888,-2.2526,-2.1888,-2.0973,-2.0625,-2.0186,-1.9797,-2.0519,-2.1743,-2.3107,-2.3272,-2.3809,-2.4585,-2.4444,-2.4269,-2.4092,0.0,0.0,0.0,0.0,0.0,-0.4898,-0.5193,-0.5453,-0.5669,0.0,0.0,0.0,-0.7741,-0.8406,-0.8742,-0.8567,-0.863,-0.8803,-0.9036,-0.9207,-0.9435,-0.9795,-1.0285,-1.0695,-1.1092,-1.1186,-1.1537,-1.2165,-1.2312,-1.2866,-1.381,-1.3478,-1.3563,-1.4075,-1.4799,-1.4334,-1.3125,0.0,0.0,0.0,-1.4834,0.0,0.0,-1.6289,-1.6748,0.0,0.0,0.0,-1.7107,-1.8029,-1.7032,0.0,0.0,0.0,0.0,0.0,0.0,0.0,0.0,0.0,0.0,0.0,0.0,0.0,-1.7349,-1.7838,-1.8146,0.0,-1.892,-1.9429,-1.878,-1.9405,-2.0196,-2.0762,-2.1561,-2.2118,-2.2284,-2.1894,-2.1565,-2.138,-2.084,-2.0385,-2.0088,-2.0493,-2.0736,-2.0614,-2.0857,-2.1194,-2.1598,-2.2044,-2.223,-2.2169,-2.1155,-2.0824,-2.1227,-2.0611,-2.0768,-2.1703,-2.196,-2.238,-2.2888,-2.2568,-2.1888,-2.0973,-2.0686,-2.0005,-1.913,-1.9546,-2.0539,-2.1783,-2.2375,-2.2948,-2.3447,-2.336,-2.3145,-2.2899,0.0,0.0,-0.4456,-0.4456,-0.4499,-0.4543,-0.4618,-0.4854,-0.5179,0.0,-0.6073,-0.6754,-0.7502,-0.7672,-0.7865,-0.8057,-0.8221,-0.8391,-0.8634,-0.8965,-0.9306,-0.9665,-0.9897,-1.0499,-1.1474,-1.086,-1.107,-1.2313,-1.1787,-1.2343,-1.3893,-1.3212,-1.357,-1.4857,-1.4891,0.0,-1.252,0.0,0.0,-1.3703,-1.3994,-1.4536,0.0,0.0,-1.667,-1.6616,-1.7318,-1.7681,-1.7721,-1.7762,-1.7242,0.0,0.0,0.0,0.0,0.0,-1.5962,0.0,0.0,0.0,0.0,0.0,0.0,0.0,-1.7531,-1.7959,-1.7649,0.0,-1.8471,-1.9481,-1.6807,-1.8424,-2.0153,-2.0195,-2.0613,-2.1124,-2.1635,-2.0998,-2.0718,-2.1391,-2.0469,-1.9908,-2.0152,-2.0359,-2.0378,-2.0079,-2.0538,-2.1023,-2.1398,-2.1571,-2.1643,-2.1526,-2.0577,-2.0204,-2.0418,-2.0321,-2.0626,-2.1342,-2.185,-2.2337,-2.2772,-2.2047,-2.1426,-2.0872,-2.0272,-1.9652,-1.9101,-1.9136,-1.9531,-2.0231,-2.1876,-2.2517,-2.2416,-2.2325,-2.2251,-2.2203,0.0,-0.3877,-0.41,-0.432,-0.4491,-0.4622,-0.4753,-0.5122,-0.5459,-0.554,-0.647,-0.7345,-0.7976,-0.8157,-0.8365,-0.8631,-0.8511,-0.856,-0.8848,-0.8849,-0.8857,-0.885,-0.9001,-0.909,-0.9098,-0.913,-0.9842,-1.1207,-1.2322,-1.2795,-1.281,-1.2725,-1.2828,-1.3172,-1.3564,-1.3148,0.0,0.0,0.0,-1.3088,-1.3253,0.0,-1.5814,-1.5847,-1.6223,-1.6763,-1.6905,-1.6601,-1.6092,-1.5683,-1.6409,-1.7334,0.0,0.0,0.0,-1.5799,0.0,0.0,0.0,0.0,0.0,0.0,0.0,0.0,-1.4993,-1.5065,-1.5283,0.0,-1.6069,-1.6668,-1.7563,-1.7812,-1.8007,-1.8271,-1.8897,-1.9747,-2.0887,-2.0714,-2.0415,-2.0455,-1.9696,-1.9205,-1.9328,-1.9344,-1.9257,-1.9099,-1.9569,-1.9998,-2.0208,-2.0681,-2.0912,-2.0884,-2.0282,-2.0184,-2.0699,-2.0717,-2.1023,-2.1709,-2.1802,-2.1902,-2.2018,-2.1411,-2.0816,-2.0291,-2.0628,-2.0121,-1.913,-1.9405,-1.943,-1.9406,-2.0508,-2.0624,-2.0335,-2.1198,-2.0884,-2.0157,-0.3391,-0.348,-0.364,-0.39,-0.4134,-0.4343,-0.4485,-0.4905,-0.53,-0.5486,-0.6261,-0.7028,-0.7658,-0.7676,-0.7771,-0.8049,-0.8032,-0.81,-0.8397,-0.8538,-0.8663,-0.8663,-0.8821,-0.8876,-0.8843,-0.9042,-0.9851,-1.1358,-1.1865,-1.2355,-1.2838,-1.1687,-1.1529,-1.2244,-1.2457,-1.2415,0.0,0.0,-1.2921,-1.2912,-1.3543,0.0,-1.5714,-1.5913,-1.6171,-1.6467,-1.6524,-1.6343,-1.6084,-1.6469,-1.6711,0.0,0.0,-1.6982,-1.6757,0.0,-1.6453,-1.6401,0.0,0.0,0.0,-1.5592,0.0,0.0,0.0,-1.5359,-1.5199,-1.4665,-1.5712,-1.6518,-1.5945,-1.6863,-1.7749,-1.7941,-1.8583,-1.9079,-1.9156,-1.9893,-2.0388,-2.0315,-1.9738,-1.9362,-1.9398,-1.9168,-1.8979,-1.8936,-1.946,-1.9767,-1.9875,-2.0139,-2.0313,-2.0298,-2.0027,-2.0074,-2.0385,-2.0931,-2.1391,-2.1801,-2.1787,-2.1806,-2.1787,-2.1172,-2.0628,-2.0117,-2.0327,-1.9962,-1.9121,-1.9336,-1.9301,-1.9136,-1.9313,-1.9293,-1.9211,-1.9432,-1.9114,-1.8686,-0.2954,-0.3081,-0.317,-0.3444,-0.3705,-0.3945,-0.4101,-0.4542,-0.4973,-0.5408,-0.5897,-0.641,-0.703,-0.6798,-0.6814,-0.7148,-0.7318,-0.7575,-0.7955,-0.8332,-0.8467,-0.833,-0.8728,-0.8898,-0.887,-0.9239,-1.0142,-1.1495,-1.1167,-1.1602,-1.2819,-1.0965,-1.0662,-1.164,-1.1468,-1.1634,0.0,0.0,0.0,-1.2969,0.0,-1.4779,-1.5382,-1.5775,-1.5951,-1.6105,-1.6322,-1.642,-1.6637,-1.7543,-1.7117,-1.6416,-1.7701,-1.7405,0.0,0.0,0.0,0.0,0.0,0.0,0.0,0.0,0.0,-1.4986,0.0,0.0,0.0,-1.3914,-1.5534,0.0,0.0,0.0,0.0,0.0,0.0,0.0,0.0,-1.8748,0.0,-1.9703,-1.92,-1.8971,-1.9307,-1.9016,-1.8849,-1.9064,-1.9315,-1.954,-1.9728,-1.9739,-1.9715,-1.9738,-1.973,-1.987,-2.0144,-2.1,-2.1598,-2.1895,-2.1785,-2.1671,-2.1584,-2.0918,-2.0359,-1.9914,-1.9912,-1.9633,-1.9107,-1.9296,-1.9284,-1.9116,-1.8739,-1.8618,-1.8603,-1.811,-1.7785,-1.7719,-0.2297,-0.2593,-0.281,-0.3017,-0.3228,-0.3512,-0.3896,-0.4124,-0.4621,-0.5632,-0.5763,-0.5884,-0.619,-0.5935,0.0,-0.6797,0.0,0.0,-0.8137,0.0,-0.8182,-0.7046,-0.8126,-0.8287,-0.7384,-0.8566,-0.9635,-1.0464,-1.0789,-1.1131,-1.162,-1.1621,-1.1441,-1.1069,-1.0661,0.0,0.0,0.0,-1.1675,0.0,-1.3695,-1.4372,0.0,-1.462,-1.5049,-1.6004,-1.6501,-1.6705,-1.6676,0.0,-1.6635,-1.6934,0.0,-1.6535,-1.758,-1.5742,0.0,0.0,0.0,0.0,0.0,0.0,-1.5079,0.0,0.0,0.0,-1.4051,-1.3664,0.0,0.0,0.0,0.0,0.0,0.0,0.0,0.0,-1.5712,-1.7073,-1.7864,-1.7217,-1.6322,-1.6404,-1.7942,-1.7984,-1.8241,-1.895,-1.8312,-1.8232,-1.9065,-1.9104,-1.9104,-1.9109,-1.915,-1.9671,-2.0709,-2.0773,-2.1327,-2.2303,-2.1745,-2.1221,-2.083,-2.0255,-1.971,-1.9246,-1.9841,-1.9725,-1.9107,-1.9415,-1.9531,-1.95,-1.9798,-1.9219,-1.8289,-1.8627,-1.8105,-1.7361,-0.196,-0.2266,-0.2477,-0.2775,-0.3046,-0.3337,-0.367,-0.411,-0.4656,-0.5433,-0.5345,-0.5334,0.0,0.0,0.0,0.0,0.0,-0.6196,0.0,0.0,-0.7666,-0.7616,-0.8572,-0.8926,-0.8564,-0.9268,-0.999,-1.0631,-1.0731,-1.0929,-1.1167,-1.119,-1.1223,-1.1259,-1.1047,0.0,-1.1509,0.0,-1.2398,0.0,0.0,0.0,0.0,-1.4208,-1.4768,-1.5308,-1.5206,-1.5853,-1.6652,0.0,-1.6392,0.0,0.0,0.0,0.0,0.0,0.0,0.0,0.0,0.0,0.0,0.0,0.0,0.0,-1.4259,0.0,-1.4139,0.0,0.0,0.0,0.0,0.0,0.0,0.0,-1.5113,0.0,0.0,0.0,-1.5413,0.0,0.0,0.0,-1.7956,-1.8438,-1.8875,-1.9362,-1.8728,-1.855,-1.9139,-1.9003,-1.8874,-1.8898,-1.9194,-1.9622,-2.0094,-2.0373,-2.0771,-2.1227,-2.0695,-2.03,-2.0088,-1.9631,-1.9324,-1.9116,-1.9406,-1.9362,-1.9107,-1.9376,-1.9277,-1.9045,-1.9512,-1.9163,-1.8354,-1.8026,-1.7617,-1.728,-0.1035,0.0,-0.2038,-0.2434,-0.2711,-0.3009,-0.3335,-0.3907,-0.446,-0.4783,0.0,0.0,-0.4905,-0.4532,0.0,0.0,-0.4597,-0.5019,0.0,0.0,-0.7119,-0.7594,-0.8587,0.0,-0.8996,-0.9636,-1.0249,-1.0922,-1.0871,-1.1015,-1.125,-1.1092,-1.1216,-1.1543,0.0,-1.1433,-1.2089,0.0,-1.2474,-1.2982,-1.3053,-1.2982,-1.2987,-1.3944,-1.4418,-1.4501,-1.4373,-1.508,-1.6073,-1.609,-1.5882,0.0,-1.7088,0.0,0.0,0.0,0.0,0.0,-1.6742,0.0,0.0,0.0,0.0,0.0,0.0,0.0,0.0,0.0,0.0,0.0,0.0,0.0,0.0,0.0,0.0,-1.4795,0.0,-1.3022,0.0,0.0,0.0,0.0,0.0,-1.8294,-1.873,-1.9118,-1.8714,-1.8612,-1.9064,-1.8874,-1.8784,-1.8784,-1.9161,-1.9444,-1.9587,-1.9993,-2.0271,-2.0426,-2.0091,-1.9863,-1.9721,-1.9458,-1.9228,-1.9101,-1.9101,-1.9064,-1.8979,-1.9112,-1.8927,-1.8545,-1.883,-1.8679,-1.8267,-1.7661,-1.7342,-1.724,0.0796,-0.0258,0.0,-0.1855,-0.2023,-0.2259,-0.2676,-0.3469,0.0,0.0,0.0,0.0,0.0,0.0,0.0,0.0,0.0,-0.4273,-0.542,0.0,-0.643,-0.6105,-0.7594,-0.8114,0.0,-0.8983,-1.0182,-1.0922,-1.1175,-1.1477,-1.1877,-1.1859,-1.181,-1.1674,-1.0553,-1.0678,-1.1648,-1.0409,-1.1104,-1.3014,-1.2905,-1.284,-1.2857,0.0,-1.3714,-1.3623,-1.4451,0.0,0.0,-1.4072,-1.4904,0.0,0.0,0.0,0.0,0.0,0.0,0.0,0.0,0.0,0.0,-1.612,0.0,0.0,0.0,0.0,-1.5291,0.0,0.0,0.0,0.0,0.0,0.0,0.0,0.0,0.0,0.0,0.0,0.0,0.0,0.0,0.0,0.0,-1.6789,-1.695,0.0,-1.7581,-1.7847,-1.8475,-1.8644,-1.8711,-1.8694,-1.8792,-1.9046,-1.9604,-1.9633,-1.9905,-2.0514,-2.0485,-2.0274,-1.99,-1.9897,-1.9602,-1.9101,-1.9101,-1.8898,-1.863,-1.8606,-1.8506,-1.8259,-1.7894,-1.7874,-1.8044,-1.8074,-1.7695,-1.724,0.0,0.0,0.0,0.0,0.0,0.0,0.0,-0.291,0.0,0.0,0.0,0.0,0.0,-0.2403,-0.2457,0.0,0.0,-0.3568,-0.4417,-0.4877,0.0,0.0,0.0,-0.7854,0.0,-0.889,-0.9621,-1.0285,-1.0549,-1.0964,-1.1528,-1.1678,-1.1728,-1.1669,-1.1594,-1.1948,0.0,0.0,0.0,0.0,0.0,-1.1964,-1.1895,0.0,-1.3442,-1.3606,-1.3373,-1.4204,0.0,-1.5003,-1.47,-1.4626,-1.5529,-1.5029,-1.4317,-1.561,-1.5638,0.0,0.0,0.0,-1.5304,-1.5433,0.0,0.0,0.0,0.0,0.0,0.0,0.0,0.0,0.0,0.0,0.0,0.0,0.0,0.0,0.0,0.0,0.0,0.0,0.0,0.0,0.0,0.0,0.0,0.0,-1.6445,0.0,-1.8579,-1.8606,-1.8556,-1.8559,-1.8609,-1.8676,-1.8853,-1.8878,-1.9016,-1.9294,-1.9358,-1.9357,-1.9293,-1.9088,-1.8874,-1.8707,-1.8383,-1.8226,-1.8226,-1.8238,-1.8124,-1.7907,-1.7787,-1.7636,-1.7486,-1.7499,-1.7424,-1.735,0.1345,0.0,0.0,0.0,0.0,0.0,0.0,0.0,0.0,0.0,-0.1712,0.0,-0.1303,0.0,-0.1763,0.0,-0.2405,-0.3043,-0.3791,-0.4114,0.0,-0.6648,-0.7053,0.0,0.0,-0.8705,-0.9205,-0.9873,-1.0089,-1.0498,-1.1175,-1.1377,-1.1519,-1.1586,-1.1953,-1.2413,-1.3031,-1.2785,-1.2928,0.0,0.0,-1.1962,0.0,0.0,-1.3168,-1.3067,0.0,-1.3623,-1.5069,-1.4569,-1.4188,-1.411,-1.5109,-1.4508,-1.3724,-1.5189,-1.522,-1.4859,-1.5487,-1.5437,0.0,-1.5385,-1.5378,0.0,-1.5405,0.0,0.0,0.0,0.0,0.0,0.0,0.0,0.0,0.0,0.0,0.0,0.0,-1.3428,0.0,0.0,0.0,0.0,0.0,0.0,-1.464,-1.6292,-1.5882,-1.6445,0.0,-1.8528,-1.8517,-1.8581,-1.8503,-1.8517,-1.8556,-1.8517,-1.8559,-1.8694,-1.8617,-1.865,-1.8721,-1.84,-1.8268,-1.8226,-1.7908,-1.7787,-1.7828,-1.7894,-1.7733,-1.7516,-1.7557,-1.7447,-1.7253,-1.7199,-1.7295,-1.7432,0.2352,0.0,0.0,0.0,-0.0785,0.0,0.0,0.0,-0.161,0.0,-0.0902,-0.0665,-0.0513,-0.0647,-0.0971,-0.1292,-0.186,-0.2571,-0.3599,-0.3864,0.0,0.0,-0.6722,-0.7215,-0.8135,0.0,0.0,-0.9638,-0.976,-1.0182,-1.0871,-1.1023,-1.1175,-1.1326,-1.1578,0.0,-1.2903,-1.2359,-1.2604,-1.339,-1.3103,-1.2666,-1.2336,-1.3139,-1.2854,-1.2067,-1.2303,-1.2989,-1.3675,-1.2834,-1.3388,-1.4342,-1.3726,-1.4094,-1.4728,-1.4323,-1.4588,-1.5051,-1.5406,-1.5295,-1.5249,-1.5957,-1.5895,0.0,0.0,0.0,-1.5445,0.0,0.0,0.0,0.0,0.0,0.0,0.0,0.0,0.0,0.0,0.0,0.0,0.0,0.0,0.0,0.0,-1.2598,-1.3965,-1.3378,-1.5785,-1.7567,0.0,-1.8344,-1.8514,-1.8707,-1.8581,-1.8556,-1.8711,-1.8574,-1.8562,-1.868,-1.8375,-1.825,-1.8273,-1.7936,-1.776,-1.7747,-1.776,-1.7639,-1.7475,-1.7475,-1.7352,-1.7199,-1.7199,-1.7253,-1.7363,-1.7253,-1.7323,-1.7393,0.2183,0.185,0.129,0.0,-0.0505,-0.1168,0.0,0.0,0.0,0.0,0.0389,0.0816,0.0915,0.0848,0.0353,-0.0636,-0.1138,0.0,0.0,0.0,0.0,-0.5208,-0.5191,-0.5817,-0.7297,-0.7398,0.0,-0.9095,-0.9443,-0.9984,-1.0624,-1.0922,-1.1226,-1.1469,0.0,-1.2164,-1.3186,-1.2564,-1.2423,-1.2605,-1.2428,-1.2027,-1.1646,0.0,-1.245,-1.248,-1.3151,-1.3838,-1.4216,-1.364,-1.3536,-1.3614,-1.3709,-1.3623,-1.3606,-1.4222,-1.4529,-1.4697,-1.5032,-1.4984,-1.4869,-1.5182,-1.525,-1.5328,0.0,0.0,0.0,0.0,0.0,0.0,0.0,0.0,0.0,0.0,0.0,0.0,0.0,0.0,0.0,-1.2493,0.0,0.0,0.0,-1.2472,-1.3422,-1.5225,-1.4802,-1.5538,-1.8062,0.0,-1.804,-1.8528,-1.8525,-1.8549,-1.8711,-1.8711,-1.86,-1.8383,-1.8419,-1.8232,-1.794,-1.7529,-1.7329,-1.731,-1.6976,-1.6863,-1.6918,-1.7002,-1.7044,-1.7086,-1.7157,-1.7073,-1.6905,-1.696,-1.7002,-1.6989,0.2573,0.0,0.0,0.0729,0.0,0.0,-0.1028,-0.064,0.0,0.0445,0.1058,0.0,0.1571,0.123,0.0583,-0.0364,-0.0948,0.0,-0.2677,0.0,0.0,-0.476,-0.4558,-0.5222,-0.6923,-0.7221,0.0,-0.8492,-0.8893,-0.9383,-0.988,-1.0293,-1.0753,-1.1267,0.0,-1.186,-1.2771,-1.2621,-1.2431,-1.2216,-1.2312,-1.2127,0.0,-1.2051,-1.2249,-1.2582,-1.3149,-1.3778,-1.4156,-1.3346,-1.305,-1.3066,-1.2981,-1.2895,-1.3009,-1.3623,-1.3992,-1.424,-1.4419,-1.4419,-1.435,-1.446,-1.4529,-1.4649,-1.4952,-1.5161,-1.5248,0.0,0.0,0.0,0.0,0.0,0.0,0.0,0.0,0.0,0.0,0.0,0.0,0.0,-1.3141,0.0,0.0,-1.3245,-1.35,-1.4373,-1.4566,-1.5572,-1.7727,0.0,-1.7984,-1.8606,-1.8847,-1.8823,-1.8534,-1.8816,-1.8557,-1.7866,-1.7882,-1.7625,-1.7109,-1.6746,-1.6597,-1.6642,-1.6411,-1.6392,-1.6577,-1.6663,-1.6705,-1.6778,-1.6808,-1.6625,-1.638,-1.6349,-1.6479,-1.6552,0.3132,0.0,0.0,0.0,0.0,0.0,0.0,0.006,0.0,0.0867,0.0,0.1756,0.1701,0.1162,0.0515,-0.0147,0.0,-0.1733,-0.2686,-0.2654,-0.3239,-0.4589,-0.4426,-0.5038,-0.6684,-0.7203,-0.7599,0.0,0.0,0.0,-0.9099,-0.9406,-1.0028,-1.0846,0.0,0.0,0.0,-1.2436,-1.2354,-1.2004,-1.2303,-1.2436,-1.2436,-1.2189,-1.2305,-1.2552,-1.2736,-1.3241,-1.3675,-1.256,-1.246,-1.2677,-1.2003,-1.2228,-1.2712,-1.2773,-1.3208,-1.37,-1.3786,-1.3803,-1.383,-1.3959,-1.389,-1.3912,-1.4402,-1.4487,-1.4543,-1.4788,-1.4687,-1.4623,0.0,0.0,0.0,0.0,0.0,0.0,0.0,0.0,0.0,0.0,0.0,0.0,0.0,-1.4284,-1.4051,-1.278,-1.4795,-1.6459,-1.7334,0.0,-1.7997,-1.8782,-1.9265,-1.9189,-1.8542,-1.8927,-1.8572,-1.7562,-1.7273,-1.686,-1.6312,-1.599,-1.5901,-1.6015,-1.602,-1.6132,-1.6262,-1.6306,-1.6337,-1.6337,-1.6194,-1.6064,-1.5901,-1.5635,-1.58,-1.6095,0.3241,0.0,0.0,0.0,0.0,0.188,0.1448,0.157,0.1743,0.2015,0.1907,0.1834,0.1849,0.178,0.1319,0.0543,-0.031,0.0,0.0,0.0,0.0,-0.3741,-0.3764,-0.4326,-0.558,-0.5686,-0.6294,0.0,0.0,0.0,-0.912,-0.9211,-0.9614,-1.0174,0.0,0.0,-1.1519,-1.1523,0.0,-1.145,-1.1315,-1.1406,-1.1553,-1.2058,-1.2375,-1.2621,-1.2744,-1.2972,-1.3147,-1.2797,-1.2621,-1.2498,-1.2127,-1.212,-1.2305,-1.2674,-1.2903,-1.3094,-1.3649,-1.3683,-1.364,-1.3942,-1.3925,-1.3863,-1.4031,-1.4368,-1.4653,-1.4711,-1.5003,-1.5147,-1.4814,0.0,0.0,0.0,0.0,0.0,0.0,0.0,0.0,0.0,0.0,-1.3564,0.0,0.0,-1.4902,-1.4701,-1.5237,-1.6068,-1.7273,0.0,-1.7487,0.0,-1.8891,0.0,0.0,0.0,-1.9012,-1.8872,-1.7848,-1.7069,-1.6544,-1.6126,-1.5985,-1.6005,-1.6113,-1.5944,-1.5567,-1.5688,-1.5688,-1.5567,-1.5367,-1.5412,-1.5558,-1.5289,-1.5244,-1.5277,0.0,0.0,0.0,0.0,0.0,0.0,0.0,0.3147,0.2908,0.244,0.1995,0.1664,0.1513,0.1548,0.1257,0.055,0.0078,-0.0549,-0.1568,-0.196,-0.2586,-0.3446,-0.3411,-0.398,-0.528,-0.5493,-0.6056,-0.7031,0.0,0.0,-0.8487,0.0,0.0,-0.9821,0.0,-1.0193,0.0,0.0,0.0,-1.087,-1.0913,-1.1041,-1.1317,-1.1782,-1.1883,-1.1929,-1.2444,-1.2445,-1.2158,-1.2367,-1.2305,-1.2112,-1.1996,-1.1872,-1.1941,-1.2328,-1.2436,-1.2544,-1.2899,-1.2936,-1.2911,-1.3197,-1.325,-1.3224,-1.3329,-1.3563,-1.3734,-1.3734,-1.4103,-1.4501,-1.4715,-1.4053,0.0,0.0,0.0,0.0,0.0,0.0,0.0,0.0,0.0,0.0,0.0,0.0,0.0,0.0,0.0,0.0,0.0,0.0,-1.733,0.0,0.0,0.0,-1.9154,0.0,-1.8753,-1.8157,-1.7592,-1.6936,-1.6245,-1.5997,-1.5672,-1.5324,-1.548,-1.5266,-1.4846,-1.488,-1.4892,-1.4858,-1.4834,-1.4971,-1.5187,-1.5108,-1.5153,-1.521,0.0,0.3203,0.0,0.0,0.368,0.0,0.4408,0.4324,0.394,0.29,0.2147,0.1482,0.1111,0.1228,0.11,0.055,0.055,0.0078,-0.0941,-0.1411,-0.2116,-0.3134,-0.3215,-0.3807,-0.5022,-0.5355,-0.5793,0.0,0.0,0.0,0.0,0.0,0.0,0.0,0.0,0.0,0.0,0.0,-0.9976,-1.0242,-1.0399,-1.0754,-1.106,-1.1341,-1.1478,-1.1532,-1.2058,-1.1995,-1.1585,-1.1832,-1.1809,-1.1677,-1.1747,-1.1685,-1.1692,-1.2026,-1.2135,-1.212,-1.2305,-1.2305,-1.2305,-1.2436,-1.2498,-1.249,-1.2536,-1.2642,-1.2704,-1.2704,-1.3139,-1.3655,-1.4138,-1.3652,0.0,0.0,0.0,0.0,0.0,0.0,0.0,0.0,0.0,0.0,-1.3584,0.0,0.0,0.0,0.0,0.0,-1.7109,0.0,0.0,0.0,0.0,-1.9094,-1.858,0.0,-1.841,-1.7445,-1.7159,-1.6595,-1.5717,-1.5643,-1.5237,-1.4545,-1.4751,-1.4578,-1.4107,-1.4025,-1.4082,-1.4186,-1.4384,-1.4558,-1.4766,-1.4971,-1.5074,-1.5131,0.0,0.0,0.0,0.0,0.0,0.0,0.422,0.4642,0.4706,0.4133,0.296,0.1793,0.0936,0.1097,0.1257,0.1178,0.1176,0.1176,0.1021,-0.1568,-0.2904,-0.2352,-0.3214,-0.3917,-0.4219,-0.4523,-0.4889,0.0,0.0,-0.6832,0.0,0.0,0.0,0.0,0.0,0.0,0.0,-0.9238,-0.9237,-0.951,-0.9344,-0.9766,-1.0591,-1.0936,-1.1601,-1.2222,-1.1671,-1.1949,-1.2349,-1.1592,-1.131,-1.1247,-1.1498,-1.1622,-1.1685,-1.212,-1.2189,-1.2189,-1.2498,-1.2428,-1.2305,-1.2189,-1.2127,-1.2058,-1.1809,-1.2035,-1.2328,-1.2328,-1.2948,-1.328,-1.2591,-1.3248,-1.3798,0.0,0.0,0.0,0.0,0.0,-1.3522,-1.4021,0.0,0.0,0.0,-1.4796,0.0,0.0,-1.5421,0.0,0.0,0.0,0.0,-1.895,-1.8665,-1.8902,-1.9749,-1.9004,-1.8568,-1.8358,-1.7148,-1.6031,-1.507,-1.5081,-1.462,-1.3915,-1.4397,-1.4205,-1.3457,-1.3152,-1.319,-1.3515,-1.3763,-1.4046,-1.4316,-1.4673,-1.4776,-1.4673,0.0,0.0,0.0,0.0,0.0,0.0,0.0,0.4488,0.4628,0.4711,0.2429,0.0941,0.11,0.1257,0.1178,0.0943,0.0864,0.0863,0.0864,-0.0,-0.1176,-0.2668,-0.3688,-0.4157,-0.4157,-0.4618,-0.5013,0.0,0.0,0.0,0.0,0.0,0.0,0.0,0.0,-0.8697,-0.9496,-0.9008,-0.9066,-0.948,-0.93,-0.9622,-1.0143,-1.0283,-1.0689,-1.1147,-1.1077,-1.1336,-1.153,-1.0967,-1.1052,-1.1435,-1.156,-1.1622,-1.1622,-1.1934,-1.1809,-1.1685,-1.1934,-1.1872,-1.1747,-1.1809,-1.1809,-1.1685,-1.1373,-1.1428,-1.1545,-1.1296,-1.167,-1.2135,-1.2503,-1.2514,-1.2704,-1.3447,0.0,0.0,0.0,0.0,0.0,-1.4227,0.0,-1.349,0.0,0.0,0.0,0.0,0.0,0.0,0.0,0.0,0.0,-1.8265,0.0,-1.8606,-1.8975,-1.8506,-1.8077,-1.7732,-1.7092,-1.6275,-1.5378,-1.5454,-1.4946,-1.3996,-1.3687,-1.3399,-1.3104,-1.2978,-1.3152,-1.3515,-1.3621,-1.3999,-1.4512,-1.4373,-1.4326,-1.4326,0.5928,0.0,0.5123,0.0,0.4435,0.4363,0.4361,0.4384,0.4389,0.4711,0.2741,0.1489,0.1805,0.1492,0.1178,0.0864,0.055,0.0393,0.0393,0.0707,0.0078,-0.1961,-0.3059,0.0,-0.4316,-0.4701,-0.5075,-0.5411,-0.5901,0.0,0.0,0.0,0.0,0.0,-0.7876,-0.852,-0.9553,-0.9211,-0.9274,-0.9631,-0.9687,-0.9802,-1.0062,-1.004,-1.0248,-1.0568,-1.0588,-1.0763,-1.0804,-1.045,-1.08,-1.1428,-1.156,-1.1622,-1.1622,-1.1809,-1.1747,-1.156,-1.1685,-1.1622,-1.156,-1.156,-1.1622,-1.1498,-1.1185,-1.1122,-1.0996,-1.0814,-1.0996,-1.149,-1.229,-1.2004,-1.2014,-1.3236,0.0,0.0,0.0,-1.3199,0.0,0.0,-1.3496,-1.3523,-1.4933,-1.479,0.0,0.0,0.0,0.0,0.0,0.0,0.0,0.0,0.0,0.0,-1.8005,-1.7841,-1.7401,-1.6821,-1.6719,-1.615,-1.522,-1.5253,-1.4917,-1.4347,-1.3641,-1.3204,-1.3057,-1.3115,-1.32,-1.3334,-1.3372,-1.36,-1.3931,-1.3732,-1.3684,-1.3637,0.7074,0.7074,0.6824,0.6023,0.5693,0.5309,0.4538,0.4233,0.4157,0.4238,0.4396,0.4162,0.3219,0.2042,0.1335,0.1257,0.0471,0.0,0.0,0.0,0.0157,0.0,0.0,-0.2744,-0.4555,-0.4633,-0.4704,-0.4999,0.0,0.0,-0.6425,0.0,-0.7418,-0.7558,-0.8484,-0.9291,-0.9906,-0.9906,-0.9911,-0.996,-1.0433,-1.0536,-1.0396,-1.032,-1.067,-1.0965,-1.0237,-1.0356,-1.0732,-1.0053,-1.0345,-1.1108,-1.1498,-1.1622,-1.1685,-1.1996,-1.2058,-1.2058,-1.2058,-1.2058,-1.2003,-1.1685,-1.1622,-1.1498,-1.1185,-1.1122,-1.1122,-1.1059,-1.1373,-1.1622,-1.1622,-1.1864,-1.2228,-1.2712,0.0,0.0,0.0,0.0,0.0,-1.3597,-1.4016,-1.4644,-1.579,-1.6127,0.0,0.0,0.0,0.0,0.0,0.0,0.0,-1.7611,-1.7103,0.0,-1.7122,-1.6928,-1.6524,-1.5931,-1.5931,-1.5377,-1.4411,-1.4148,-1.4276,-1.4772,-1.4429,-1.4003,-1.3518,-1.3565,-1.3238,-1.2725,-1.2783,-1.2579,-1.2304,-1.2677,-1.2657,-1.2414,0.8022,0.775,0.7405,0.6136,0.5848,0.5464,0.4538,0.4307,0.4231,0.4157,0.4084,0.4006,0.3845,0.1804,0.0393,0.0,0.0157,0.0,0.0,0.0,0.0079,0.0157,-0.0314,-0.0861,-0.1488,-0.3686,-0.4945,-0.5012,0.0,0.0,0.0,-0.6462,-0.6618,-0.6699,-0.6992,-0.8157,-0.9771,-0.8169,-0.8546,-1.0257,-0.9632,-0.9857,-1.0466,-0.9725,-0.9834,-1.0232,-0.9817,-0.981,-0.9934,-0.9544,-0.9837,-1.0338,-1.0465,-1.1038,-1.174,-1.1872,-1.174,-1.1553,-1.1553,-1.1498,-1.1373,-1.131,-1.1247,-1.1247,-1.1122,-1.1122,-1.1122,-1.1122,-1.1185,-1.1373,-1.1685,-1.1747,-1.1934,-1.2359,-1.205,0.0,-1.2104,0.0,-1.2181,-1.3083,-1.3314,-1.3788,-1.4859,-1.5595,0.0,0.0,0.0,0.0,0.0,0.0,0.0,0.0,-1.7156,0.0,-1.7366,-1.739,-1.7022,-1.614,-1.614,-1.5746,-1.4946,-1.4673,-1.4656,-1.4844,-1.4164,-1.3781,-1.3537,-1.3163,-1.3007,-1.3035,-1.2967,-1.3025,-1.3132,-1.2871,-1.2764,-1.2618,0.9372,0.8922,0.8309,0.6915,0.6535,0.6076,0.4838,0.4535,0.4384,0.3999,0.3847,0.3849,0.4006,0.2511,0.0,0.0079,0.0,0.0,0.0,0.0,0.0,0.0,0.0,0.0,0.0,-0.2665,0.0,-0.4073,-0.5246,-0.5986,-0.6264,-0.6204,-0.6243,-0.6338,-0.6338,-0.7099,-0.847,-0.6949,-0.7326,-0.8946,-0.8825,-0.9072,-0.9592,-0.9349,-0.9382,-0.9562,-0.9563,-0.9419,-0.9298,-0.9211,-0.9415,-0.9703,-0.9703,-1.0408,-1.117,-1.1365,-1.1435,-1.1428,-1.1428,-1.1373,-1.131,-1.1373,-1.1373,-1.1373,-1.1373,-1.1373,-1.1373,-1.131,-1.131,-1.1435,-1.174,-1.1809,-1.1872,-1.2182,-1.2058,-1.1934,-1.1934,0.0,-1.2066,0.0,0.0,0.0,0.0,-1.5042,-1.5449,0.0,0.0,0.0,0.0,0.0,0.0,-1.6743,-1.7037,-1.7134,-1.7134,-1.72,-1.6853,-1.6322,-1.6322,-1.6104,-1.572,-1.5375,-1.531,-1.5506,-1.4572,-1.4195,-1.4255,-1.3459,-1.3144,-1.3214,-1.2998,-1.2939,-1.2939,-1.2638,-1.2491,-1.2344,1.0812,1.0368,0.9528,0.0,0.7761,0.0,0.5363,0.4841,0.4465,0.3919,0.3841,0.3843,0.3773,0.3773,0.2829,0.0472,0.0,0.0,0.0,-0.0079,-0.0,-0.0,0.0,0.0,0.0,-0.1568,-0.2352,-0.2347,-0.4073,-0.5326,-0.618,-0.6183,-0.6261,-0.6338,-0.6338,-0.6338,-0.6338,-0.6338,-0.6338,-0.6416,-0.794,-0.832,-0.8138,-0.8871,-0.9121,-0.9079,-0.9369,-0.9281,-0.8883,-0.8867,-0.9041,-0.9303,-0.9297,-0.96,-1.0085,-1.0604,-1.1115,-1.149,-1.149,-1.149,-1.1498,-1.1677,-1.1677,-1.174,-1.174,-1.174,-1.1677,-1.156,-1.1622,-1.174,-1.1802,-1.1934,-1.2065,-1.2127,-1.2127,-1.2127,-1.212,-1.212,-1.2364,0.0,0.0,0.0,-1.4289,-1.4468,-1.4611,0.0,0.0,0.0,0.0,0.0,-1.6721,-1.6797,-1.6694,-1.6684,-1.6627,-1.6467,-1.6353,-1.6353,-1.6296,-1.6353,-1.657,-1.6104,-1.6151,-1.6476,-1.539,-1.5129,-1.5375,-1.425,-1.3608,-1.3266,-1.2879,-1.2421,-1.2026,-1.2126,-1.2026,-1.1819,0.0,0.0,1.0212,0.8988,0.8689,0.7999,0.6234,0.5851,0.5392,0.4233,0.4079,0.4001,0.3843,0.3765,0.3565,0.3081,0.0875,-0.0471,-0.0471,-0.0471,-0.0314,-0.0,0.0,0.0,0.0,-0.0707,-0.102,-0.1018,-0.2896,-0.407,-0.4616,-0.5082,-0.5783,-0.6567,-0.6416,-0.6338,-0.6338,-0.6338,-0.6338,-0.6338,-0.6721,-0.7778,-0.9082,-0.7852,-0.8182,-0.9365,-0.8846,-0.8734,-0.8821,-0.8497,-0.8746,-0.9241,-0.9369,-0.9426,-0.9588,-1.0028,-1.0275,-1.0401,-1.0401,-1.0401,-1.0408,-1.0611,-1.0744,-1.087,-1.087,-1.087,-1.0877,-1.0807,-1.087,-1.1059,-1.156,-1.1685,-1.1879,-1.2375,-1.2498,-1.2436,-1.2243,-1.2367,-1.2458,0.0,-1.2789,-1.297,-1.3322,-1.38,-1.4123,0.0,0.0,0.0,-1.5391,-1.5522,-1.5943,-1.6797,-1.7145,-1.7256,-1.7155,-1.72,-1.7078,-1.6842,-1.6275,-1.6046,-1.6228,-1.5894,-1.5873,-1.6124,-1.5597,-1.5173,-1.4847,-1.4063,-1.3541,-1.3223,-1.3123,-1.2977,-1.2929,-1.3025,-1.2977,-1.2735,1.1626,1.0858,1.0173,0.9528,0.9155,0.877,0.8003,0.678,0.5783,0.5467,0.4932,0.4467,0.4073,0.3919,0.3868,0.3934,0.0963,-0.0957,-0.0943,-0.0952,-0.0795,-0.0629,-0.0393,-0.0236,-0.0236,-0.0471,-0.0707,-0.0941,-0.204,-0.2979,-0.3524,-0.3912,-0.4613,-0.5398,-0.6251,-0.6644,-0.6647,-0.6376,-0.6338,-0.6338,-0.6338,-0.7099,-0.8125,-0.7072,-0.7565,-0.8741,-0.8557,-0.8548,-0.8643,-0.8372,-0.8478,-0.8669,-0.8732,-0.8921,-0.9136,-0.9277,-0.9608,-1.0021,-1.0091,-1.0091,-1.0085,-1.0358,-1.0618,-1.0744,-1.0681,-1.0681,-1.0681,-1.0624,-1.0624,-1.0807,-1.131,-1.1435,-1.156,-1.1934,-1.1859,-1.1827,-1.2012,-1.2093,-1.2254,-1.2704,-1.2981,-1.3155,-1.3346,-1.3709,-1.3912,-1.3857,-1.4014,0.0,-1.5021,-1.5125,-1.5575,-1.6457,-1.6684,-1.6853,-1.6987,-1.7032,-1.6965,-1.6684,-1.6285,-1.6171,-1.6343,-1.5941,-1.5981,-1.6216,-1.5372,-1.5211,-1.5384,-1.4174,-1.378,-1.3841,-1.3184,-1.289,-1.2842,-1.2696,-1.254,-1.2344,1.2291,1.1131,1.0146,0.9911,0.9458,0.9306,0.9765,0.7778,0.6325,0.6538,0.5625,0.4859,0.454,0.4153,0.3841,0.3841,0.1124,-0.0648,-0.1037,-0.1215,-0.1215,-0.1027,-0.0866,-0.0707,-0.0707,-0.0707,-0.0864,-0.1335,-0.1493,-0.2043,-0.2669,-0.2756,-0.3154,-0.3781,-0.5476,-0.6468,-0.6773,-0.6572,-0.649,-0.649,-0.649,-0.6567,-0.6718,-0.6795,-0.7176,-0.7783,-0.8322,-0.8444,-0.837,-0.8337,-0.8206,-0.8122,-0.8122,-0.8457,-0.8749,-0.8559,-0.913,-0.9823,-1.0053,-0.997,-0.9958,-1.0225,-1.0548,-1.0737,-1.0611,-1.0618,-1.0555,-1.0434,-1.0491,-1.0681,-1.0933,-1.1059,-1.1149,-1.1174,-1.1026,-1.1063,-1.1524,0.0,-1.1993,-1.2785,-1.3277,-1.3631,-1.3769,-1.383,-1.389,-1.401,-1.3761,-1.4001,-1.4784,-1.4932,-1.5284,-1.5874,-1.5931,-1.6104,-1.6513,-1.657,-1.6513,-1.6353,-1.6296,-1.641,-1.657,-1.6056,-1.6016,-1.6377,-1.5161,-1.5138,-1.5883,-1.4366,-1.399,-1.4336,-1.3135,-1.2608,-1.2421,-1.1968,-1.1719,-1.1569,1.2445,1.1842,1.1099,1.0067,0.9846,0.969,0.9614,0.9382,0.8309,0.5631,0.5093,0.494,0.4937,0.4543,0.4151,0.3841,0.3306,0.2255,0.0337,-0.0757,-0.0912,0.0081,-0.0714,-0.1178,-0.1178,-0.1178,-0.1257,-0.1335,-0.1335,-0.1492,-0.1808,-0.1614,-0.2195,-0.3306,-0.324,-0.4112,-0.5558,-0.6785,-0.733,-0.733,-0.733,-0.7096,-0.6942,-0.7253,-0.7484,-0.7561,-0.7488,-0.7851,-0.833,-0.793,-0.8148,-0.8636,-0.8704,-0.8504,-0.8212,-0.8468,-0.8648,-0.882,-0.9139,-0.9274,-0.9396,-0.9466,-0.96,-0.9734,-0.9734,-0.967,-0.9676,-0.9676,-0.967,-0.9862,-1.0308,-1.0428,-1.045,-1.047,-1.0873,-1.1063,-1.0624,0.0,-1.234,-1.2413,-1.3216,-1.3769,-1.383,-1.389,-1.4079,-1.4267,-1.4207,-1.4267,-1.4565,-1.4556,-1.4675,-1.4883,-1.568,-1.6026,-1.5989,-1.6492,-1.6729,-1.657,-1.6285,-1.6285,-1.657,-1.572,-1.5464,-1.5663,-1.5399,-1.4821,-1.4122,-1.4264,-1.371,-1.278,-1.3027,-1.2735,-1.2255,-1.2276,-1.2187,-1.2008,1.3046,1.2799,1.2485,1.1922,1.0738,0.9846,0.9765,0.9841,0.9382,0.7851,0.6093,0.5018,0.5018,0.4859,0.4309,0.3214,0.3136,0.2698,0.1633,0.0681,0.0763,0.2156,0.1103,0.0392,0.0078,-0.0392,-0.0628,-0.0628,-0.1099,-0.1345,-0.1442,-0.1463,-0.1796,-0.2356,-0.218,-0.2697,-0.3595,-0.4227,-0.4608,-0.4919,-0.6009,-0.6398,-0.6321,-0.6707,-0.7092,-0.7484,-0.7411,-0.7561,-0.7851,-0.7685,-0.7806,-0.8019,-0.7986,-0.8034,-0.8078,-0.8113,-0.8064,-0.8184,-0.8857,-0.8947,-0.8947,-0.921,-0.9408,-0.9484,-0.9484,-0.9484,-0.9484,-0.9484,-0.9612,-0.974,-1.0053,-1.0238,-1.0279,-1.0309,-1.0402,0.0,-1.0558,-1.1115,-1.163,-1.2012,-1.2903,-1.3519,-1.3519,-1.389,-1.4207,-1.4396,-1.4327,-1.4336,-1.4506,-1.4515,-1.4506,-1.4597,-1.5342,-1.5633,-1.543,-1.5941,-1.6104,-1.5931,-1.5816,-1.5816,-1.5921,-1.5367,-1.515,-1.521,-1.4877,-1.429,-1.3613,-1.3461,-1.2886,-1.2079,-1.1805,-1.1566,-1.1434,-1.1183,-1.1191,-1.1217,1.3492,1.3528,1.3506,1.3484,1.2003,1.0513,0.9992,0.9922,0.9846,0.9614,0.7395,0.5631,0.5096,0.5018,0.4467,0.3214,0.3057,0.2902,0.2511,0.2011,0.2288,0.3756,0.2918,0.2038,0.141,0.0549,0.0157,0.0157,-0.0628,-0.0951,-0.0888,-0.0895,-0.106,-0.1303,-0.1477,-0.1656,-0.2002,-0.1922,-0.2043,-0.2354,-0.3988,-0.4844,-0.5231,-0.5461,-0.6083,-0.678,-0.6938,-0.7015,-0.7015,-0.7173,-0.7173,-0.7145,-0.6978,-0.729,-0.7608,-0.73,-0.7205,-0.741,-0.85,-0.8603,-0.8506,-0.895,-0.9127,-0.9221,-0.935,-0.9414,-0.9414,-0.9606,-0.9734,-0.9862,-1.0047,-1.0174,-1.0262,-1.0118,0.0,-1.0047,-1.0424,-1.0608,-1.0937,-1.1556,-1.2474,-1.3086,-1.3086,-1.3709,-1.4139,-1.4258,-1.4327,-1.4387,-1.4506,-1.4515,-1.4497,-1.4529,-1.5001,-1.5128,-1.4911,-1.5381,-1.5546,-1.541,-1.541,-1.541,-1.5468,-1.4964,-1.4712,-1.459,-1.3969,-1.3422,-1.291,-1.2429,-1.1944,-1.141,-1.0775,-1.0517,-1.0584,-1.0239,-1.0275,-1.0486,1.3492,1.3492,1.3492,1.3492,1.3346,1.2452,1.0218,0.9922,0.9614,0.8851,0.8551,0.7553,0.5249,0.5018,0.4937,0.4859,0.4781,0.4155,0.2588,0.2448,0.2901,0.3926,0.3456,0.2746,0.1724,0.0942,0.055,0.055,0.0157,0.0079,0.0473,0.0811,0.0491,-0.0488,-0.0738,-0.107,-0.1398,-0.1913,-0.1808,-0.1414,-0.157,-0.235,-0.3515,-0.3515,-0.3982,-0.4683,-0.5226,-0.5461,-0.5538,-0.6086,-0.6318,-0.6294,-0.6228,-0.6183,-0.6194,-0.5888,-0.5684,-0.5984,-0.775,-0.8134,-0.8098,-0.8225,-0.8195,-0.8247,-0.8894,-0.9017,-0.921,-0.9856,-0.9983,-1.0053,-1.0238,-1.0301,-1.0125,-0.9643,0.0,0.0,-0.9512,-1.0282,-1.0996,-1.1038,-1.1864,-1.2359,-1.2359,-1.3086,-1.3571,-1.3571,-1.413,-1.4515,-1.4515,-1.4515,-1.4556,-1.4647,-1.4706,-1.4715,-1.4715,-1.5186,-1.541,-1.541,-1.541,-1.5478,-1.5614,-1.4569,-1.3847,-1.3405,-1.285,-1.1997,-1.1022,-1.1501,-1.1082,-1.0198,-1.0626,-1.0482,-1.0089,-1.0348,-1.0484,-1.0518,1.3492,1.3492,1.3492,1.3492,1.3492,1.3193,1.2305,1.0887,0.9614,0.8775,0.8703,0.8318,0.7399,0.7322,0.7322,0.7322,0.7322,0.7007,0.6381,0.5381,0.4258,0.3139,0.3091,0.2826,0.2431,0.1725,0.1412,0.1412,0.0707,0.0475,0.0642,0.0731,0.057,0.0244,0.0081,-0.0243,-0.0719,-0.0868,-0.1178,-0.1493,-0.1649,-0.2272,-0.3207,-0.3287,-0.383,-0.445,-0.4683,-0.4761,-0.4838,-0.5461,-0.5616,-0.5659,-0.5966,-0.6177,-0.6187,-0.5951,-0.5816,-0.592,-0.6732,-0.6881,-0.6881,-0.7281,-0.7442,-0.7642,-0.8102,-0.8102,-0.8166,-0.863,-0.8823,-0.8882,-0.9011,-0.9524,-0.9901,-0.9748,0.0,-1.0537,-1.0247,-1.0719,-1.1059,-1.1059,-1.1677,-1.205,-1.1988,-1.2658,-1.3009,-1.2879,-1.313,-1.326,-1.326,-1.345,-1.3563,-1.3614,-1.3863,-1.4291,-1.5029,-1.5245,-1.541,-1.541,-1.5001,-1.4824,-1.4746,-1.3744,-1.3122,-1.2811,-1.2235,-1.1494,-1.0635,-1.0605,-1.0187,-0.9545,-0.9746,-0.9984,-1.0159,-1.0141,-1.0444,-1.0724,1.3637,1.3492,1.3492,1.3492,1.3492,1.3492,1.3492,1.2077,1.0807,1.0276,0.9301,0.8703,0.8703,0.8935,0.9096,0.9096,0.8855,0.8703,0.8703,0.7395,0.5386,0.2588,0.2668,0.2747,0.2747,0.2353,0.2117,0.2117,0.1491,0.1187,0.1205,0.1205,0.1124,0.0883,0.0883,0.0557,-0.0,-0.0157,-0.055,-0.1178,-0.1256,-0.1803,-0.2586,-0.2743,-0.3132,-0.3519,-0.383,-0.3908,-0.3986,-0.4611,-0.4844,-0.4889,-0.5138,-0.5393,-0.5609,-0.5727,-0.5724,-0.5652,-0.5797,-0.5745,-0.583,-0.6543,-0.6709,-0.6924,-0.7316,-0.7316,-0.7386,-0.7912,-0.8102,-0.8161,-0.8161,-0.8865,-0.9448,-0.9448,-0.9964,-1.0351,-1.0541,-1.0667,-1.0863,-1.1059,-1.1498,-1.1677,-1.149,-1.2104,-1.2397,-1.2212,-1.2389,-1.2512,-1.2512,-1.2818,-1.3009,-1.3009,-1.3321,-1.3872,-1.4725,-1.4765,-1.4815,-1.4815,-1.4341,-1.404,-1.3788,-1.3067,-1.253,-1.2225,-1.1735,-1.1005,-1.0228,-0.994,-0.9555,-0.9154,-0.8978,-0.9315,-0.987,-0.9653,-0.9859,-1.0229,1.3992,1.3499,1.3492,1.3492,1.3492,1.3492,1.3492,1.3492,1.3492,1.3492,1.072,0.8699,0.8703,0.9445,1.0028,1.0028,0.9185,0.8703,0.8703,0.794,0.6005,0.2666,0.2511,0.2511,0.2511,0.2511,0.2511,0.2511,0.2511,0.2511,0.2511,0.2511,0.2195,0.1646,0.1646,0.1255,0.055,0.0157,-0.0079,-0.0314,-0.0079,-0.055,-0.1335,-0.1493,-0.1572,-0.1729,-0.2512,-0.2826,-0.2904,-0.3528,-0.3763,-0.3746,-0.3425,-0.3634,-0.4116,-0.4792,-0.5029,-0.5092,-0.5032,-0.4866,-0.4998,-0.5964,-0.6015,-0.6086,-0.6732,-0.6859,-0.712,-0.7832,-0.7962,-0.8027,-0.8151,-0.8474,-0.8672,-0.8672,-0.9005,-0.946,-0.9958,-1.0015,-1.0281,-1.0996,-1.1059,-1.0996,-1.0807,-1.1428,-1.1677,-1.1483,-1.2089,-1.2512,-1.2512,-1.2826,-1.3009,-1.3009,-1.3321,-1.3563,-1.3692,-1.3571,-1.3511,-1.3502,-1.339,-1.3195,-1.2954,-1.2506,-1.1991,-1.1462,-1.1225,-1.0533,-0.9615,-0.9421,-0.9318,-0.9168,-0.8563,-0.861,-0.9051,-0.8847,-0.8776,-0.8816,1.6053,1.5912,1.5409,1.3783,1.3492,1.3492,1.3492,1.3492,1.3492,1.3492,1.2666,1.1248,0.8927,0.8926,0.9072,0.9072,0.9115,0.8936,0.8493,0.7706,0.6857,0.5777,0.4999,0.4455,0.4224,0.3992,0.3837,0.3837,0.337,0.3134,0.3134,0.2666,0.2431,0.2196,0.2196,0.1882,0.1333,0.1176,0.0785,0.0314,0.0393,-0.0079,-0.0786,-0.0864,-0.1257,-0.1808,-0.2043,-0.22,-0.2278,-0.2904,-0.3059,-0.3212,-0.3726,-0.3865,-0.3897,-0.4293,-0.4196,-0.4004,-0.4144,-0.4319,-0.4567,-0.5081,-0.5259,-0.5484,-0.5877,-0.5947,-0.5984,-0.6574,-0.6764,-0.6907,-0.6903,-0.7744,-0.8296,-0.8236,-0.8818,-0.9338,-0.946,-0.9709,-0.9964,-1.0161,-1.0281,-1.0281,-1.0091,-1.0485,-1.0681,-1.0485,-1.0982,-1.1358,-1.1483,-1.167,-1.1856,-1.1981,-1.2104,-1.2297,-1.2544,-1.3268,-1.3612,-1.3477,-1.3142,-1.2767,-1.2505,-1.202,-1.1512,-1.1009,-1.0707,-1.0114,-0.9348,-0.8977,-0.8895,-0.8896,-0.8592,-0.8819,-0.9208,-0.8921,-0.9007,-0.9202,1.6978,1.6908,1.6044,1.3477,1.3046,1.3119,1.3419,1.3492,1.3419,1.3046,1.3046,1.2298,1.0351,1.0126,1.0126,1.0126,0.9632,0.9068,0.8579,0.8089,0.7783,0.771,0.6857,0.5928,0.5004,0.4771,0.4538,0.4384,0.3992,0.3759,0.3759,0.3446,0.3136,0.2823,0.2823,0.251,0.196,0.196,0.1569,0.0864,0.0942,0.0471,-0.0236,-0.0235,-0.0549,-0.1099,-0.1492,-0.1649,-0.1805,-0.2433,-0.2589,-0.2662,-0.3484,-0.3591,-0.3536,-0.3919,-0.3907,-0.373,-0.3762,-0.3954,-0.4157,-0.4363,-0.4797,-0.5289,-0.5488,-0.5473,-0.5545,-0.5844,-0.604,-0.618,-0.6139,-0.6839,-0.7313,-0.7256,-0.7907,-0.856,-0.8818,-0.9204,-0.9582,-0.9831,-0.9894,-0.9831,-0.9709,-0.9849,-0.9856,-0.9728,-1.004,-1.0295,-1.0478,-1.0604,-1.073,-1.0856,-1.0919,-1.1108,-1.1358,-1.202,-1.2409,-1.2508,-1.192,-1.1539,-1.1316,-1.1091,-1.0732,-1.0374,-1.0246,-0.9842,-0.9264,-0.8924,-0.8775,-0.8794,-0.8417,-0.8504,-0.8801,-0.846,-0.8493,-0.8597,1.7116,1.6978,1.6044,1.3164,1.2445,1.2526,1.3273,1.3419,1.3119,1.2378,1.2305,1.2305,1.2305,1.2305,1.2305,1.2305,1.0455,0.9105,0.8727,0.8703,0.8703,0.8627,0.8165,0.7011,0.5234,0.5157,0.5004,0.454,0.454,0.4462,0.4462,0.4462,0.407,0.3524,0.3524,0.3136,0.2588,0.2588,0.2119,0.1414,0.1568,0.1099,0.0314,0.0314,0.0313,0.0078,-0.0862,-0.1254,-0.1333,-0.2117,-0.2353,-0.2343,-0.2976,-0.3025,-0.3081,-0.3601,-0.386,-0.39,-0.3732,-0.3707,-0.3704,-0.3695,-0.4509,-0.5233,-0.5246,-0.5352,-0.5454,-0.5537,-0.5641,-0.5803,-0.5817,-0.6057,-0.6157,-0.6142,-0.668,-0.7349,-0.7977,-0.8495,-0.9005,-0.9633,-0.964,-0.9512,-0.9326,-0.9268,-0.9274,-0.9338,-0.9338,-0.9396,-0.9518,-0.9709,-0.9837,-0.9837,-0.9958,-1.0078,-1.0338,-1.0275,-1.0458,-1.0878,-1.0325,-0.9944,-0.9823,-0.9963,-0.9888,-0.9739,-0.985,-0.9646,-0.921,-0.9017,-0.8829,-0.8641,-0.7927,-0.7857,-0.8102,-0.7587,-0.7456,-0.7391,1.7803,1.7323,1.6691,1.6035,1.3882,1.2378,1.2526,1.2526,1.2526,1.2298,1.2305,1.2305,1.2305,1.2305,1.2305,1.2305,1.0149,0.8798,0.8708,0.8703,0.8551,0.8255,0.8399,0.8012,0.7015,0.663,0.6325,0.5867,0.5398,0.5085,0.5085,0.4618,0.4307,0.4148,0.4148,0.3837,0.3212,0.3056,0.2586,0.1961,0.1885,0.1335,0.055,0.0549,0.0157,-0.0471,-0.0706,-0.0785,-0.0863,-0.1568,-0.2117,-0.2429,-0.2572,-0.2611,-0.2566,-0.2703,-0.2737,-0.2682,-0.2541,-0.2872,-0.3203,-0.3203,-0.3641,-0.4115,-0.4138,-0.4176,-0.4359,-0.5018,-0.5343,-0.5614,-0.6099,-0.6505,-0.6635,-0.6364,-0.6575,-0.6768,-0.6762,-0.7003,-0.726,-0.7386,-0.7512,-0.7642,-0.7907,-0.8361,-0.8877,-0.939,-0.9454,-0.9582,-0.9894,-0.9958,-1.0021,-1.0212,-1.0085,-1.0142,-1.0451,-0.9837,-0.9737,-1.02,-1.0233,-1.0069,-0.9823,-0.9963,-0.9799,-0.9382,-0.9436,-0.9145,-0.8641,-0.8312,-0.8182,-0.8117,-0.7722,-0.7587,-0.7587,-0.7068,-0.6872,-0.678,1.8008,1.7666,1.752,1.792,1.6009,1.4458,1.4458,1.3237,1.2305,1.2305,1.2599,1.29,1.29,1.2526,1.2305,1.2305,1.1174,1.0426,1.0426,0.9906,0.9458,0.9236,0.9458,0.9079,0.8093,0.7936,0.7476,0.6563,0.6247,0.5941,0.5789,0.5476,0.5165,0.4851,0.4851,0.4462,0.3837,0.3759,0.3288,0.2665,0.2588,0.204,0.1256,0.1335,0.1021,0.055,0.0157,-0.0235,-0.0628,-0.102,-0.1334,-0.1569,-0.1569,-0.1775,-0.1972,-0.1994,-0.2194,-0.2375,-0.2298,-0.2495,-0.268,-0.2714,-0.2893,-0.3215,-0.3707,-0.3883,-0.4087,-0.4559,-0.4773,-0.4983,-0.5354,-0.5482,-0.5583,-0.5365,-0.5509,-0.5762,-0.5884,-0.6261,-0.6597,-0.6873,-0.6858,-0.6868,-0.6937,-0.7343,-0.7885,-0.8495,-0.8296,-0.849,-0.9268,-0.9069,-0.9069,-0.946,-0.9332,-0.939,-0.9518,-0.9145,-0.9018,-0.9262,-0.9391,-0.9379,-0.9211,-0.9268,-0.919,-0.8894,-0.8894,-0.8765,-0.8447,-0.8182,-0.8047,-0.7917,-0.7326,-0.7134,-0.7064,-0.6408,-0.6155,-0.6069,1.8076,1.8076,1.8405,1.9008,1.7744,1.6791,1.7198,1.445,1.2378,1.2526,1.3119,1.3419,1.3346,1.2673,1.2305,1.2305,1.2305,1.2305,1.2305,1.1335,1.0738,1.0519,1.0594,1.0137,0.9003,0.9155,0.8542,0.7019,0.7019,0.6791,0.6412,0.6412,0.6099,0.5476,0.5476,0.5165,0.454,0.4538,0.399,0.3288,0.3444,0.2976,0.2194,0.2277,0.2121,0.1886,0.1019,0.0235,-0.0471,-0.0471,-0.055,-0.0628,-0.0628,-0.0929,-0.1376,-0.1402,-0.1777,-0.2063,-0.2105,-0.2157,-0.2266,-0.2257,-0.2295,-0.2542,-0.3347,-0.3674,-0.3825,-0.4056,-0.4155,-0.4226,-0.4384,-0.4311,-0.4244,-0.4225,-0.4443,-0.4767,-0.5114,-0.552,-0.5993,-0.6559,-0.6564,-0.6428,-0.6207,-0.6435,-0.6836,-0.7339,-0.6937,-0.7134,-0.8182,-0.7792,-0.7792,-0.8182,-0.8317,-0.8317,-0.8187,-0.8382,-0.8382,-0.8122,-0.8322,-0.8446,-0.8522,-0.8559,-0.8538,-0.8517,-0.8382,-0.8296,-0.8259,-0.7962,-0.7817,-0.7658,-0.6854,-0.6478,-0.6338,-0.565,-0.5345,-0.521,1.8472,1.8539,1.8998,1.9065,1.7136,1.6321,1.8497,1.513,1.2526,1.3273,1.3419,1.3273,1.2526,1.2378,1.2305,1.2305,1.2305,1.2305,1.2305,1.215,1.1558,1.0513,1.0812,1.0812,1.0288,1.0288,0.9377,0.7403,0.7403,0.7249,0.6788,0.6788,0.656,0.618,0.618,0.5789,0.5162,0.5004,0.4535,0.399,0.3832,0.3675,0.3441,0.2744,0.2433,0.2276,0.1492,0.0785,0.0157,0.0157,-0.0157,-0.0628,-0.0628,-0.0626,-0.0702,-0.0704,-0.0781,-0.0858,-0.0783,-0.1156,-0.1582,-0.1547,-0.1901,-0.2346,-0.2534,-0.2625,-0.2784,-0.3394,-0.3542,-0.368,-0.4307,-0.437,-0.4332,-0.4239,-0.4211,-0.4215,-0.4111,-0.4148,-0.426,-0.4317,-0.5093,-0.5494,-0.5385,-0.6086,-0.6643,-0.6806,-0.6741,-0.6802,-0.712,-0.706,-0.706,-0.7125,-0.7591,-0.7531,-0.6937,-0.7987,-0.7917,-0.6666,-0.7436,-0.8044,-0.8522,-0.8559,-0.8538,-0.8452,-0.7917,-0.755,-0.739,-0.6664,-0.6479,-0.6625,-0.6205,-0.5686,-0.5203,-0.4951,-0.4379,-0.3779,1.6979,1.7595,1.8607,1.9008,1.782,1.6914,1.7019,1.6505,1.5738,1.472,1.5027,1.4617,1.2519,1.2305,1.2305,1.2305,1.2305,1.2305,1.2305,1.2305,1.2077,1.1558,1.1706,1.1484,1.0887,1.0962,1.0432,0.915,0.8917,0.8613,0.8232,0.8232,0.7855,0.7176,0.7176,0.6637,0.5867,0.5786,0.5318,0.4771,0.4686,0.4373,0.3904,0.3517,0.3361,0.3127,0.2273,0.1803,0.1489,0.102,0.0707,0.0471,0.0471,0.0235,-0.0078,-0.0078,-0.0314,-0.0627,-0.0549,-0.0779,-0.1002,-0.0991,-0.1141,-0.1373,-0.1387,-0.139,-0.1698,-0.2701,-0.2879,-0.2979,-0.3292,-0.3368,-0.3357,-0.3244,-0.3238,-0.3277,-0.3463,-0.3505,-0.3566,-0.3835,-0.4445,-0.4712,-0.4458,-0.4959,-0.5338,-0.5545,-0.5267,-0.5368,-0.6062,-0.5777,-0.5773,-0.613,-0.6344,-0.6298,-0.6004,-0.6471,-0.6556,-0.6141,-0.6337,-0.6794,-0.744,-0.7547,-0.7583,-0.7532,-0.7258,-0.7009,-0.6902,-0.6392,-0.6374,-0.6578,-0.5553,-0.4841,-0.4305,-0.4181,-0.3961,-0.3636]}]]